     2.10           OBSERVATION DATA    G (GPS)             RINEX VERSION / TYPE
teqc 2000Jul20 Karen Wendt 20040802 19:45:31UTC             PGM / RUN BY / DATE
Linux 2.0.36|Pentium II|gcc -static|Linux|486/DX+           COMMENT
teqc 2000Jul20 Karen Wendt 20040802 19:45:31UTC             COMMENT
BIT 2 OF LLI FLAGS DATA COLLECTED UNDER A/S CONDITION       COMMENT
pier Pierce2_1923_USC&GS                                    MARKER NAME
JMS USGS                                                    OBSERVER / AGENCY
ZE1200331017 ASHTECH UZ-12 ZE00                             REC # / TYPE / VERS
CR620022605 ASH701945E_M NONE                               ANT # / TYPE
 -2728122.0000 -4026306.0000  4113976.0000                  APPROX POSITION XYZ
        1.4076        0.0000        0.0000                  ANTENNA: DELTA H/E/N
     1     1                                                WAVELENGTH FACT L1/2
     5    C1    L1    L2    P1    P2                        # / TYPES OF OBSERV
    30.0000                                                 INTERVAL
                                                            COMMENT
National Earthquake Hazard Reduction Program                COMMENT
Crustal Strain Project                                      COMMENT
345 Middlefield Road, MS/977                                COMMENT
U.S. Geological Survey, Menlo Park, California 94025        COMMENT
Contact: kwendt@usgs.gov (Ph: 650-329-4866)                 COMMENT
Antenna height is vertical to base of antenna               COMMENT
                                                            COMMENT
SNR is mapped to RINEX snr flag value [1-9]                 COMMENT
L1: 1 -> 1; 90 -> 5; 210 -> 9                               COMMENT
L2: 1 -> 1; 150 -> 5; 250 -> 9                              COMMENT
  2004     7    22     0     0    0.0000000     GPS         TIME OF FIRST OBS
                                                            END OF HEADER
 04  7 22  0  0  0.0000000  0  8G 3G27G13G16G 8G23G20G 1
  23721245.076   -10517472.44343  -8181363.27742  23721246.891    23721245.528
  21779602.922   -18844048.23743 -14658493.49742  21779604.743    21779602.305
  20372420.348   -28628102.10244 -22293309.85942  20372422.647    20372418.041
  23143944.237   -13997587.89743 -10674132.58942  23143945.875    23143942.632
  23644228.220   -12959429.57943 -10046893.79042  23644228.751    23644228.214
  21061303.695   -24955232.27543 -18956806.48442  21061305.528    21061299.669
  23774171.426    -5316285.70843  -4127595.01042  23774172.828    23774171.842
  21943232.153   -18346584.73743 -13867054.00142  21943233.949    21943231.527
 04  7 22  0  0 30.0000000  0  8G 3G27G13G16G 8G23G20G 1
  23710794.082   -10572391.86743  -8224157.58542  23710796.271    23710793.902
  21770866.325   -18889958.53243 -14694267.69842  21770868.177    21770865.651
  20367899.323   -28651860.30844 -22311822.72542  20367901.641    20367896.975
  23159972.541   -13913358.71243 -10608499.49742  23159974.216    23159970.972
  23628120.469   -13044075.77343 -10112851.78642  23628121.248    23628120.562
  21071461.722   -24901851.69943 -18915211.24842  21071463.532    21071457.613
  23795657.068    -5203377.22143  -4039614.49242  23795658.527    23795657.692
  21955437.945   -18282442.50443 -13817073.08542  21955439.833    21955437.483
 04  7 22  0  1  0.0000000  0  8G 3G27G13G16G 8G23G20G 1
  23700411.765   -10626948.09343  -8266668.87642  23700414.020    23700412.945
  21762167.188   -18935673.45843 -14729889.68442  21762168.964    21762166.310
  20363446.022   -28675262.12444 -22330057.90542  20363448.350    20363443.754
  23176064.083   -13828798.08143 -10542608.15642  23176065.591    23176062.166
  23612040.735   -13128575.27243 -10178695.46442  23612041.470    23612040.879
  21081687.142   -24848117.14644 -18873340.17642  21081689.024    21081683.038
  23817162.587    -5090366.72443  -3951554.50642  23817163.885    23817163.234
  21967697.780   -18218017.19443 -13766871.57242  21967699.580    21967697.176
 04  7 22  0  1 30.0000000  0  8G 3G27G13G16G 8G23G20G 1
  23690099.220   -10681141.16343  -8308897.18542  23690101.214    23690100.801
  21753504.580   -18981195.52843 -14765361.39242  21753506.443    21753503.939
  20359060.439   -28698308.78644 -22348016.32742  20359062.742    20359058.081
  23192217.752   -13743910.89343 -10476462.33442  23192219.289    23192215.790
  23595988.252   -13212930.05243 -10244426.35642  23595989.056    23595988.669
  21091979.333   -24794031.40844 -18831195.46342  21091981.271    21091975.289
  23838686.648    -4977259.76743  -3863419.33742  23838687.760    23838687.074
  21980010.928   -18153311.50343 -13716451.57042  21980012.725    21980010.242
 04  7 22  0  2  0.0000000  0  8G 3G27G13G16G 8G23G20G 1
  23679856.923   -10734967.22243  -8350839.53042  23679858.811    23679858.126
  21744878.733   -19026524.05743 -14800682.26342  21744880.571    21744878.235
  20354742.888   -28720997.73744 -22365696.01542  20354745.198    20354740.477
  23208433.016   -13658698.81743 -10410063.33442  23208434.646    23208431.432
  23579963.644   -13297138.47943 -10310043.23042  23579964.406    23579964.150
  21102338.451   -24739593.53143 -18788776.37042  21102340.373    21102334.457
  23860228.202    -4864057.98243  -3775210.30042  23860229.405    23860228.921
  21992377.586   -18088324.26343 -13665812.20742  21992379.406    21992376.841
 04  7 22  0  2 30.0000000  0  8G 3G27G13G16G 8G23G20G 1
  23669684.324   -10788424.15543  -8392494.20342  23669686.486    23669685.459
  21736289.606   -19071659.53043 -14835852.73742  21736291.375    21736289.100
  20350493.552   -28743327.99144 -22383096.21342  20350495.817    20350491.194
  23224709.407   -13573164.81143 -10343413.49042  23224711.110    23224707.984
  23563967.437   -13381200.84143 -10375546.27042  23563967.947    23563967.618
  21112764.533   -24684804.28743 -18746083.48042  21112766.386    21112760.477
  23881787.455    -4750764.36643  -3686929.70542  23881788.670    23881788.117
  22004797.527   -18023056.45343 -13614954.22042  22004799.264    22004796.876
 04  7 22  0  3  0.0000000  0  8G 3G27G13G16G 8G23G20G 1
  23659581.799   -10841510.56843  -8433860.13142  23659583.761    23659582.791
  21727737.284   -19116603.39443 -14870873.90542  21727738.963    21727736.317
  20346312.464   -28765299.86844 -22400217.14542  20346314.737    20346310.125
  23241046.603   -13487312.69343 -10276515.78242  23241048.230    23241045.124
  23547998.737   -13465117.71643 -10440935.95642  23547999.214    23547998.838
  21123257.204   -24629665.21843 -18703118.00242  21123259.051    21123253.126
  23903363.438    -4637382.73443  -3598580.52742  23903364.672    23903363.866
  22017270.605   -17957509.65443 -13563878.82542  22017272.192    22017270.164
 04  7 22  0  3 30.0000000  0  8G 3G27G13G16G 8G23G20G 1
  23649552.303   -10894216.81143  -8474929.96642  23649554.083    23649553.208
  21719222.615   -19161348.85843 -14905740.47042  21719224.332    21719221.601
  20342201.165   -28786904.58044 -22417051.98442  20342203.431    20342198.843
  23257444.774   -13401138.14043 -10209366.78942  23257446.492    23257443.745
  23532058.738   -13548881.94743 -10506206.66942  23532059.314    23532059.048
  21133817.683   -24574169.50743 -18659874.60642  21133819.645    21133813.598
  23924956.739    -4523909.03943  -3510159.61342  23924958.085    23924957.314
  22029798.238   -17891676.96843 -13512580.65442  22029799.789    22029797.799
 04  7 22  0  4  0.0000000  0  8G 3G27G13G16G 8G23G20G 1
  23639594.132   -10946548.48243  -8515707.81742  23639595.987    23639595.411
  21710743.776   -19205904.39043 -14940459.02342  21710745.620    21710743.023
  20338158.467   -28808149.32944 -22433606.33142  20338160.696    20338156.043
  23273902.531   -13314651.99343 -10141974.97342  23273904.157    23273901.536
  23516146.532   -13632500.87543 -10571364.18942  23516147.114    23516146.626
  21144444.464   -24518325.75243 -18616360.01142  21144446.434    21144440.266
  23946565.774    -4410354.15743  -3421675.42042  23946566.970    23946566.260
  22042378.668   -17825566.89843 -13461066.36342  22042380.294    22042378.147
 04  7 22  0  4 30.0000000  0  8G 3G27G13G16G 8G23G20G 1
  23629707.985   -10998498.71343  -8556188.41142  23629709.941    23629709.628
  21702301.876   -19250266.12243 -14975026.57142  21702303.698    21702301.351
  20334185.333   -28829028.48644 -22449875.79542  20334187.615    20334182.880
  23290420.170   -13227852.63443 -10074339.16542  23290421.808    23290418.747
  23500262.761   -13715970.32843 -10636405.24542  23500263.445    23500262.526
  21155138.195   -24462130.08743 -18572571.21542  21155140.146    21155133.968
  23968190.440    -4296716.56543  -3333126.77042  23968191.574    23968191.078
  22055012.538   -17759175.79643 -13409333.08042  22055014.190    22055012.118
 04  7 22  0  5  0.0000000  0  8G 3G27G13G16G 8G23G20G 1
  23619895.457   -11050064.48543  -8596369.52742  23619897.305    23619896.569
  21693897.209   -19294433.99043 -15009443.06742  21693898.913    21693896.316
  20330281.980   -28849540.62844 -22465859.28542  20330284.232    20330279.544
  23306996.632   -13140742.38443 -10006461.09542  23306998.287    23306995.086
  23484407.645   -13799289.50343 -10701329.18942  23484408.259    23484407.281
  21165898.769   -24405582.52743 -18528508.20442  21165900.724    21165894.693
  23989830.180    -4182998.76743  -3244515.59042  23989831.343    23989830.978
  22067699.996   -17692503.52543 -13357380.68542  22067701.733    22067699.652
 04  7 22  0  5 30.0000000  0  8G 3G27G13G16G 8G23G20G 1
  23610156.203   -11101245.37343  -8636250.70042  23610157.985    23610156.848
  21685528.768   -19338409.99643 -15043710.06242  21685530.568    21685527.953
  20326448.440   -28869686.25344 -22481557.17042  20326450.644    20326445.966
  23323631.292   -13053325.77643  -9938344.28242  23323633.079    23323629.974
  23468580.693   -13882460.13043 -10766137.35242  23468581.122    23468580.608
  21176725.897   -24348685.49043 -18484172.86242  21176727.845    21176721.871
  24011484.365    -4069205.47943  -3155845.62542  24011485.481    24011484.998
  22080440.468   -17625552.48243 -13305211.06342  22080442.272    22080440.002
 04  7 22  0  6  0.0000000  0  8G 3G27G13G16G 8G23G20G 1
  23600490.365   -11152037.65043  -8675829.00942  23600492.277    23600491.559
  21677196.998   -19382193.13143 -15077826.76042  21677198.822    21677196.288
  20322685.104   -28889462.86844 -22496967.51342  20322687.329    20322682.601
  23340324.522   -12965604.06543  -9869989.74342  23340326.183    23340323.131
  23452782.302   -13965480.39743 -10830828.35742  23452782.796    23452782.456
  21187619.824   -24291437.98243 -18439564.43542  21187621.742    21187615.692
  24033152.540    -3955338.18243  -3067117.96742  24033153.610    24033153.252
  22093233.876   -17558321.71343 -13252823.49442  22093235.700    22093233.319
 04  7 22  0  6 30.0000000  0  8G 3G27G13G16G 8G23G20G 1
  23590899.003   -11202440.99143  -8715104.28542  23590900.891    23590900.332
  21668901.517   -19425786.31543 -15111795.45142  21668903.337    21668900.948
  20318991.674   -28908871.70744 -22512091.27842  20318993.924    20318989.199
  23357074.301   -12877582.59743  -9801401.60242  23357076.034    23357073.146
  23437012.091   -14048352.30543 -10895403.76242  23437012.862    23437012.443
  21198579.876   -24233842.63543 -18394684.97042  21198581.791    21198575.716
  24054834.038    -3841401.96743  -2978336.63142  24054834.904    24054834.723
  22106080.055   -17490813.96743 -13200220.12542  22106081.771    22106079.534
 04  7 22  0  7  0.0000000  0  8G 3G27G13G16G 8G23G20G 1
  23581382.522   -11252451.26643  -8754073.30042  23581384.538    23581383.627
  21660642.486   -19469187.91343 -15145614.83842  21660644.237    21660641.811
  20315368.819   -28927909.95644 -22526926.27342  20315371.051    20315366.371
  23373881.363   -12789262.25843  -9732580.60942  23373882.866    23373879.781
  23421270.787   -14131074.07143 -10959862.19342  23421271.475    23421270.686
  21209606.391   -24175898.30343 -18349533.56242  21209608.287    21209602.210
  24076528.247    -3727397.85943  -2889502.35642  24076529.362    24076529.242
  22118979.311   -17423027.99043 -13147399.91942  22118980.849    22118979.000
 04  7 22  0  7 30.0000000  0  8G 3G27G13G16G 8G23G20G 1
  23571941.631   -11302061.86443  -8792730.81742  23571943.637    23571942.574
  21652420.504   -19512393.93943 -15179281.84642  21652422.325    21652419.850
  20311817.512   -28946571.81244 -22541467.97842  20311819.784    20311815.177
  23390745.307   -12700641.45943  -9663525.46342  23390747.027    23390743.887
  23405558.706   -14213640.58543 -11024199.65642  23405559.370    23405558.341
  21220699.870   -24117601.11443 -18304107.20442  21220701.761    21220695.851
  24098236.260    -3613324.21443  -2800613.96142  24098237.131    24098237.206
  22131932.312   -17354959.97643 -13094359.94042  22131933.795    22131931.994
 04  7 22  0  8  0.0000000  0  8G 3G27G13G16G 8G23G20G 1
  23562575.963   -11351279.58743  -8831082.23042  23562577.880    23562576.767
  21644234.043   -19555414.22443 -15212804.11842  21644235.844    21644233.146
  20308336.327   -28964865.65044 -22555722.90942  20308338.613    20308333.941
  23407664.415   -12611732.24743  -9594245.62542  23407666.039    23407662.938
  23389874.732   -14296061.19043 -11088423.38642  23389875.123    23389873.900
  21231858.786   -24058960.96443 -18258413.59442  21231860.624    21231854.773
  24119954.858    -3499193.43143  -2711681.02342  24119955.805    24119955.628
  22144937.185   -17286619.74643 -13041107.84342  22144938.831    22144936.567
 04  7 22  0  8 30.0000000  0  8G 3G27G13G16G 8G23G20G 1
  23553287.650   -11400089.59443  -8869115.95442  23553289.568    23553288.897
  21636085.434   -19598236.50344 -15246172.09142  21636087.159    21636084.361
  20304927.798   -28982777.67244 -22569680.31842  20304930.098    20304925.333
  23424639.805   -12522524.87943  -9524733.42642  23424641.520    23424638.411
  23374220.727   -14378323.00243 -11152523.41142  23374221.253    23374220.027
  21243085.371   -23999965.83644 -18212443.37942  21243087.239    21243081.160
  24141686.312    -3384995.84243  -2622696.05142  24141687.255    24141686.715
  22157996.220   -17217995.20443 -12987634.19042  22157997.988    22157995.274
 04  7 22  0  9  0.0000000  0  8G 3G27G13G16G 8G23G20G 1
  23544074.821   -11448501.25143  -8906839.25042  23544076.848    23544076.368
  21627971.741   -19640872.70443 -15279395.08542  21627973.637    21627970.933
  20301589.870   -29000318.41244 -22583348.42342  20301592.171    20301587.431
  23441669.585   -12433033.61743  -9455000.02542  23441671.298    23441668.155
  23358594.801   -14460437.90843 -11216508.93942  23358595.282    23358594.322
  21254377.063   -23940627.69743 -18166205.87542  21254378.988    21254372.727
  24163427.185    -3270745.79743  -2533670.18342  24163428.535    24163427.925
  22171106.849   -17149098.45643 -12933948.45342  22171108.671    22171106.053
 04  7 22  0  9 30.0000000  0  8G 3G27G13G16G 8G23G20G 1
  23534940.696   -11496502.79743  -8944242.99642  23534942.617    23534941.603
  21619895.451   -19683313.74843 -15312465.98942  21619897.290    21619894.657
  20298324.600   -29017477.33544 -22596719.01142  20298326.878    20298322.204
  23458754.367   -12343251.83543  -9385040.23642  23458756.097    23458753.388
  23342998.126   -14542395.89343 -11280372.22242  23342998.845    23342998.323
  21265735.511   -23880937.75843 -18119694.27942  21265737.420    21265731.337
  24185179.265    -3156436.90243  -2444598.44842  24185180.825    24185180.229
  22184270.734   -17079920.70443 -12880043.76942  22184272.488    22184270.421
 04  7 22  0 10  0.0000000  0  8G 3G27G13G16G 8G23G20G 1
  23525883.800   -11544096.42943  -8981328.86842  23525885.705    23525884.849
  21611855.454   -19725564.76044 -15345388.83542  21611857.225    21611854.463
  20295131.331   -29034258.12444 -22609794.94942  20295133.621    20295128.903
  23475892.973   -12253186.97643  -9314859.83542  23475894.643    23475892.293
  23327431.429   -14624201.56343 -11344116.79142  23327431.713    23327431.054
  21277160.106   -23820901.39943 -18072912.72842  21277161.961    21277156.010
  24206941.422    -3042076.33543  -2355486.46242  24206942.843    24206942.507
  22197486.945   -17010467.09843 -12825924.13042  22197488.538    22197487.221
 04  7 22  0 10 30.0000000  0  8G 3G27G13G16G 8G23G20G 1
  23516904.584   -11591282.39543  -9018097.09642  23516906.347    23516905.672
  21603850.943   -19767628.52043 -15378165.77042  21603852.731    21603849.950
  20292009.805   -29050661.87544 -22622577.08542  20292012.104    20292007.415
  23493084.952   -12162844.22743  -9244462.93442  23493086.539    23493083.598
  23311892.574   -14705856.83343 -11407744.20142  23311893.205    23311892.451
  21288650.088   -23760521.49243 -18025863.44842  21288652.005    21288645.966
  24228712.688    -2927669.56943  -2266338.49842  24228713.934    24228713.457
  22210755.706   -16940740.63743 -12771591.88042  22210757.062    22210755.915
 04  7 22  0 11  0.0000000  0  8G 3G27G13G16G 8G23G20G 1
  23508004.813   -11638051.38043  -9054540.42442  23508006.548    23508005.801
  21595883.213   -19809498.42743 -15410791.64242  21595885.002    21595882.369
  20288961.551   -29066680.73944 -22635059.31042  20288963.843    20288959.154
  23510330.409   -12072219.46343  -9173846.30742  23510332.076    23510328.642
  23296384.137   -14787354.72743 -11471248.96542  23296384.686    23296383.833
  21300206.697   -23699791.62143 -17978541.49842  21300208.693    21300202.484
  24250492.979    -2813212.53143  -2177151.34742  24250494.413    24250494.069
  22224077.731   -16870734.96143 -12717042.03542  22224079.258    22224077.566
 04  7 22  0 11 30.0000000  0  8G 3G27G13G16G 8G23G20G 1
  23499183.828   -11684405.04143  -9090660.07642  23499185.598    23499184.995
  21587951.734   -19851178.67343 -15443269.71742  21587953.524    21587950.892
  20285986.110   -29082316.99544 -22647243.39842  20285988.388    20285983.657
  23527627.945   -11981319.20043  -9103014.96242  23527629.558    23527626.532
  23280904.847   -14868698.76543 -11534633.83842  23280905.393    23280904.618
  21311828.923   -23638716.20843 -17930950.29442  21311830.875    21311824.866
  24272282.111    -2698711.81843  -2087930.16442  24272283.252    24272283.038
  22237451.630   -16800454.56243 -12662278.10742  22237453.449    22237451.132
 04  7 22  0 12  0.0000000  0  8G 3G27G13G16G 8G23G20G 1
  23490442.990   -11730338.60443  -9126452.41542  23490444.768    23490443.860
  21580056.791   -19892667.30244 -15475598.49942  21580058.519    21580055.880
  20283083.864   -29097567.96244 -22659127.26742  20283086.164    20283081.466
  23544978.191   -11890144.01843  -9031969.38242  23544979.680    23544976.644
  23265455.091   -14949886.22343 -11597896.69342  23265455.635    23265455.110
  21323517.102   -23577293.51443 -17883088.47742  21323518.975    21323513.237
  24294079.041    -2584167.89443  -1998675.27042  24294080.361    24294080.258
  22250878.149   -16729897.54943 -12607298.64742  22250879.974    22250877.157
 04  7 22  0 12 30.0000000  0  9G 3G19G27G13G16G 8G23G20G 1
  23481780.004   -11775862.52343  -9161925.54642  23481781.829    23481780.692
  24717158.937    -3648012.98053  -2834798.71152  24717161.149    24717158.484
  21572195.778   -19933977.06243 -15507787.89042  21572197.602    21572194.833
  20280252.997   -29112444.43544 -22670719.31142  20280255.278    20280250.554
  23562377.938   -11798708.93143  -8960721.29542  23562379.461    23562376.129
  23250033.167   -15030929.36943 -11661047.10442  23250033.699    23250032.975
  21335269.063   -23515536.64043 -17834966.27642  21335270.850    21335265.101
  24315881.792    -2469595.78543  -1909398.45642  24315883.041    24315882.661
  22264354.652   -16659076.78843 -12552113.68142  22264356.319    22264353.658
 04  7 22  0 13  0.0000000  0  9G 3G19G27G13G16G 8G23G20G 1
  23473200.118   -11820950.27043  -9197058.79742  23473201.999    23473200.768
  24701431.012    -3730663.69843  -2899201.82242  24701433.004    24701430.548
  21564373.298   -19975084.13743 -15539819.34342  21564375.067    21564372.301
  20277498.174   -29126921.26144 -22681999.94542  20277500.466    20277495.675
  23579830.671   -11706992.46243  -8889253.93842  23579832.362    23579829.264
  23234643.302   -15111803.94443 -11724066.20242  23234643.925    23234642.652
  21347089.235   -23453421.71943 -17786565.08042  21347091.025    21347085.178
  24337693.314    -2354974.45743  -1820083.29642  24337694.884    24337694.138
  22277885.721   -16587968.88943 -12496704.97642  22277887.279    22277885.376
 04  7 22  0 13 30.0000000  0  9G 3G19G27G13G16G 8G23G20G 1
  23464699.934   -11865618.50843  -9231865.16442  23464701.880    23464700.664
  24685711.778    -3813268.29243  -2963568.94442  24685713.748    24685711.262
  21556585.669   -20016007.76043 -15571707.84242  21556587.447    21556584.704
  20274815.882   -29141016.30644 -22692983.09442  20274818.181    20274813.452
  23597333.163   -11615016.43343  -8817584.36242  23597334.780    23597331.901
  23219281.711   -15192528.46843 -11786968.36042  23219282.415    23219280.960
  21358973.767   -23390968.47643 -17737900.22942  21358975.668    21358969.667
  24359510.611    -2240325.33443  -1730746.46442  24359512.068    24359510.635
  22291468.491   -16516593.32743 -12441087.70342  22291469.867    22291468.369
 04  7 22  0 14  0.0000000  0  9G 3G19G27G13G16G 8G23G20G 1
  23456282.105   -11909853.89743  -9266334.25442  23456283.993    23456282.865
  24670003.660    -3895812.99143  -3027889.22042  24670005.608    24670003.759
  21548835.172   -20056737.27244 -15603445.09342  21548836.903    21548834.181
  20272208.604   -29154717.71744 -22703659.51442  20272210.877    20272206.193
  23614886.478   -11522772.43443  -8745705.94742  23614888.240    23614885.551
  23203950.750   -15273091.63143 -11849744.74242  23203951.519    23203950.359
  21370924.645   -23328166.38043 -17688963.54742  21370926.568    21370920.545
  24381334.428    -2125640.32043  -1641381.69742  24381335.831    24381334.324
  22305104.135   -16444939.47343 -12385253.58742  22305105.736    22305104.239
 04  7 22  0 14 30.0000000  0  9G 3G19G27G13G16G 8G23G20G 1
  23447946.051   -11953661.30843  -9300469.88442  23447947.761    23447946.572
  24654306.296    -3978301.82243  -3092166.08542  24654308.235    24654306.651
  21541120.177   -20097279.96343 -15635036.76942  21541121.904    21541119.299
  20269675.263   -29168030.81344 -22714033.35042  20269677.540    20269672.817
  23632489.162   -11430270.24143  -8673626.34942  23632490.952    23632488.264
  23188649.367   -15353500.47843 -11912400.90442  23188650.152    23188649.304
  21382940.392   -23265023.18543 -17639761.09242  21382942.275    21382936.291
  24403163.375    -2010929.36343  -1551996.65542  24403164.722    24403163.370
  22318791.058   -16373014.97143 -12329208.56542  22318792.818    22318791.250
 04  7 22  0 15  0.0000000  0  9G 3G19G27G13G16G 8G23G20G 1
  23439691.465   -11997040.42843  -9334271.76842  23439693.235    23439691.660
  24638620.188    -4060733.83643  -3156398.72042  24638621.940    24638620.277
  21533440.320   -20137638.14544 -15666484.66942  21533442.040    21533439.337
  20267215.503   -29180956.70344 -22724105.46542  20267217.817    20267213.101
  23650140.217   -11337514.42843  -8601349.14342  23650141.821    23650139.074
  23173377.510   -15433756.44643 -11974937.92342  23173378.083    23173377.085
  21395020.547   -23201541.42243 -17590294.83142  21395022.400    21395016.586
  24424996.496    -1896196.90543  -1462594.89142  24424997.747    24424996.283
  22332528.653   -16300822.39843 -12272954.66142  22332530.471    22332528.803
 04  7 22  0 15 30.0000000  0  9G 3G19G27G13G16G 8G23G20G 1
  23431520.818   -12039974.94943  -9367727.16242  23431522.849    23431521.311
  24622947.584    -4143092.41543  -3220574.20442  24622949.165    24622947.645
  21525798.021   -20177798.18244 -15697778.18542  21525799.768    21525796.956
  20264832.377   -29193480.09144 -22733863.94842  20264834.693    20264829.960
  23667841.353   -11244493.80243  -8528865.59942  23667842.909    23667840.166
  23158136.849   -15513845.75543 -12037345.10742  23158137.524    23158136.347
  21407167.760   -23137707.50043 -17540554.13142  21407169.581    21407163.767
  24446835.437    -1781431.75143  -1373167.65642  24446836.934    24446835.684
  22346319.800   -16228348.34243 -12216481.43542  22346321.429    22346319.622
 04  7 22  0 16  0.0000000  0  9G 3G19G27G13G16G 8G23G20G 1
  23423432.609   -12082479.75743  -9400847.75942  23423434.544    23423433.014
  24607286.255    -4225391.61943  -3284703.28942  24607287.702    24607286.501
  21518190.148   -20217777.28543 -15728930.72242  21518191.906    21518188.971
  20262522.789   -29205617.11044 -22743321.36842  20262525.097    20262520.317
  23685589.400   -11151227.87243  -8456190.89742  23685590.912    23685588.039
  23142925.158   -15593784.19643 -12099634.73242  23142925.656    23142924.212
  21419378.651   -23073539.06743 -17490552.78142  21419380.471    21419374.489
  24468677.384    -1666653.57743  -1283730.31842  24468678.813    24468677.543
  22360161.258   -16155610.24243 -12159802.43542  22360162.782    22360160.780
 04  7 22  0 16 30.0000000  0  9G 3G19G27G13G16G 8G23G20G 1
  23415428.670   -12124541.45443  -9433623.12442  23415430.503    23415428.991
  24591639.157    -4307617.58843  -3348775.35142  24591640.718    24591639.793
  21510618.910   -20257564.90744 -15759934.04442  21510620.590    21510617.722
  20260289.007   -29217355.77344 -22752468.37742  20260291.294    20260286.500
  23703385.589   -11057708.70243  -8383318.87742  23703387.041    23703383.939
  23127743.667   -15673561.40343 -12161798.70042  23127744.264    23127743.088
  21431655.117   -23009025.99543 -17440282.88242  21431656.998    21431650.882
  24490522.931    -1551854.46543  -1194276.63942  24490524.319    24490523.596
  22374055.296   -16082598.00343 -12102909.80542  22374056.852    22374054.499
 04  7 22  0 17  0.0000000  0  9G 3G19G27G13G16G 8G23G20G 1
  23407508.461   -12166161.12643  -9466053.98242  23407510.400    23407508.811
  24576006.272    -4389770.37943  -3412790.38242  24576007.890    24576006.667
  21503083.391   -20297164.15144 -15790790.58242  21503085.147    21503082.417
  20258130.689   -29228697.82444 -22761306.33642  20258132.982    20258128.199
  23721228.792   -10963941.67743  -8310253.71742  23721230.232    23721227.326
  23112592.633   -15753180.17943 -12223839.23242  23112593.305    23112592.299
  21443996.530   -22944171.87043 -17389747.21342  21443998.441    21443992.315
  24512371.668    -1437039.95743  -1104810.95242  24512372.999    24512372.634
  22388000.875   -16009315.12243 -12045806.32842  22388002.551    22388000.085
 04  7 22  0 17 30.0000000  0  9G 3G19G27G13G16G 8G23G20G 1
  23399672.763   -12207338.17443  -9498139.93242  23399674.599    23399673.037
  24560387.580    -4471848.52743  -3476747.27542  24560389.285    24560387.716
  21495583.450   -20336576.90944 -15821501.78842  21495585.143    21495582.481
  20256047.740   -29239643.97344 -22769835.80142  20256050.053    20256045.226
  23739118.297   -10869930.88443  -8236998.60242  23739120.028    23739117.191
  23097471.914   -15832641.19343 -12285756.82542  23097472.521    23097471.486
  21456402.457   -22878978.60143 -17338947.29442  21456404.351    21456398.338
  24534222.299    -1322214.11143  -1015336.41942  24534223.754    24534223.751
  22401997.344   -15935763.43043 -11988493.37642  22401999.112    22401997.076
 04  7 22  0 18  0.0000000  0  9G 3G19G27G13G16G 8G23G20G 1
  23391922.719   -12248064.89143  -9529875.03142  23391924.564    23391923.218
  24544783.460    -4553844.18543  -3540639.88142  24544785.375    24544784.961
  21488119.776   -20375798.04744 -15852063.70142  21488121.555    21488118.869
  20254041.322   -29250187.42944 -22778051.48242  20254043.647    20254038.873
  23757055.116   -10775673.93843  -8163551.69842  23757056.520    23757053.631
  23082381.921   -15911938.80343 -12347547.09642  23082382.623    23082381.492
  21468873.603   -22813441.55643 -17287879.49642  21468875.496    21468869.681
  24556075.475    -1207374.31043   -925851.02342  24556077.129    24556077.272
  22416045.743   -15861938.18343 -11930967.28442  22416047.488    22416045.930
 04  7 22  0 18 30.0000000  0  9G 3G19G27G13G16G 8G23G20G 1
  23384257.290   -12288347.00343  -9561263.66742  23384259.147    23384257.929
  24529194.668    -4635762.09243  -3604471.89342  24529196.568    24529196.112
  21480691.229   -20414835.86644 -15882482.76442  21480692.929    21480690.026
  20252110.301   -29260334.98344 -22785958.66742  20252112.564    20252107.852
  23775036.323   -10681181.33143  -8089921.15942  23775037.905    23775034.832
  23067321.677   -15991080.83343 -12409216.13842  23067322.191    23067320.838
  21481408.557   -22747569.29443 -17236550.49842  21481410.407    21481404.687
  24577929.708    -1092531.32543   -836363.17142  24577931.314    24577931.290
  22430144.571   -15787848.11943 -11873234.82142  22430146.210    22430144.693
 04  7 22  0 19  0.0000000  0  9G 3G19G27G13G16G 8G23G20G 1
  23376677.438   -12328179.25743  -9592301.74642  23376679.286    23376677.826
  24513622.550    -4717595.70743  -3668238.26342  24513624.250    24513623.591
  21473297.946   -20453687.22443 -15912756.54542  21473299.701    21473296.756
  20250255.520   -29270082.13944 -22793553.84442  20250257.777    20250252.987
  23793062.896   -10586452.20743  -8016106.34042  23793064.388    23793061.301
  23052291.471   -16070063.75243 -12470761.19842  23052291.976    23052290.694
  21494008.044   -22681358.99343 -17184958.10542  21494009.768    21494004.069
  24599784.402     -977684.33243   -746872.19242  24599785.972    24599786.237
  22444294.293   -15713490.37443 -11815293.76342  22444295.921    22444294.052
 04  7 22  0 19 30.0000000  0  9G 3G19G27G13G16G 8G23G20G 1
  23369184.727   -12367551.84943  -9622981.61942  23369186.769    23369185.356
  24498067.846    -4799335.06243  -3731931.07342  24498069.446    24498069.147
  21465941.679   -20492344.88044 -15942879.36442  21465943.402    21465940.572
  20248478.514   -29279420.54444 -22800830.51342  20248480.796    20248475.954
  23811135.263   -10491481.96343  -7942103.62242  23811136.819    23811133.704
  23037293.289   -16148879.80143 -12532176.24242  23037293.884    23037292.301
  21506673.065   -22614804.02743 -17133097.10842  21506674.764    21506669.178
  24621640.972     -862828.66543   -657374.44342  24621642.282    24621642.591
  22458496.353   -15638858.06743 -11757138.74342  22458498.030    22458495.955
 04  7 22  0 20  0.0000000  0  9G 3G19G27G13G16G 8G23G20G 1
  23361778.400   -12406473.68843  -9653310.29942  23361780.253    23361778.900
  24482529.539    -4880988.11043  -3795556.64642  24482531.239    24482530.583
  21458620.000   -20530820.18944 -15972860.10842  21458621.692    21458618.948
  20246777.330   -29288360.06344 -22807796.36742  20246779.616    20246774.818
  23829250.882   -10396284.17243  -7867923.58442  23829252.415    23829249.414
  23022325.164   -16227539.78343 -12593469.67542  23022325.601    23022323.953
  21519401.648   -22547915.79443 -17080976.42442  21519403.386    21519397.673
  24643496.140     -747977.87443   -567880.46642  24643497.693    24643498.015
  22472748.494   -15563962.87743 -11698778.88942  22472750.226    22472748.261
 04  7 22  0 20 30.0000000  0  9G 3G19G27G13G16G 8G23G20G 1
  23354459.560   -12444934.02643  -9683279.38942  23354461.442    23354460.038
  24467010.590    -4962543.06243  -3859105.90142  24467012.152    24467010.665
  21451334.654   -20569104.47343 -16002692.00142  21451336.405    21451333.682
  20245153.985   -29296890.78444 -22814443.68242  20245156.272    20245151.460
  23847410.607   -10300852.65643  -7793561.38542  23847412.261    23847409.588
  23007387.696   -16306034.39843 -12654634.23442  23007388.389    23007387.280
  21532195.012   -22480686.34543 -17028589.87142  21532196.905    21532190.948
  24665351.711     -633126.15243   -478385.77542  24665353.365    24665353.912
  22487052.481   -15488796.69843 -11640207.92042  22487054.060    22487052.201
 04  7 22  0 21  0.0000000  0  9G 3G19G27G13G16G 8G23G20G 1
  23347227.221   -12482939.08143  -9712893.71242  23347229.191    23347227.761
  24451508.728    -5044005.33743  -3922582.97542  24451510.580    24451508.846
  21444084.219   -20607206.51044 -16032381.88242  21444085.923    21444083.086
  20243607.022   -29305020.06944 -22820778.18742  20243609.298    20243604.516
  23865613.327   -10205198.45743  -7719025.70442  23865614.779    23865611.818
  22992480.475   -16384371.94243 -12715676.38142  22992480.996    22992480.170
  21545051.506   -22413124.59643 -16975944.38542  21545053.415    21545047.607
  24687205.192     -518284.40243   -388898.83042  24687207.124    24687207.928
  22501406.039   -15413368.27443 -11581432.63242  22501407.632    22501406.093
 04  7 22  0 21 30.0000000  0  9G 3G19G27G13G16G 8G23G20G 1
  23340083.259   -12520482.27643  -9742148.12042  23340085.214    23340083.508
  24436025.256    -5125367.55343  -3985981.86642  24436027.167    24436026.191
  21436869.108   -20645121.79344 -16061926.25042  21436870.889    21436868.002
  20242137.578   -29312742.07144 -22826795.33542  20242139.853    20242135.053
  23883858.637   -10109319.44343  -7644314.84442  23883860.194    23883856.856
  22977604.556   -16462547.26943 -12776592.17542  22977605.015    22977603.565
  21557972.097   -22345226.68843 -16923036.95742  21557973.927    21557968.365
  24709057.510     -403450.40943   -299418.02742  24709059.161    24709060.135
  22515809.888   -15337673.46843 -11522449.72542  22515811.532    22515810.652
 04  7 22  0 22  0.0000000  0  9G 3G19G27G13G16G 8G23G20G 1
  23333027.908   -12557558.96243  -9771039.03842  23333029.815    23333027.971
  24420562.632    -5206624.22143  -4049298.63642  24420564.227    24420563.181
  21429689.966   -20682848.24843 -16091323.46942  21429691.689    21429688.902
  20240746.308   -29320053.53944 -22832492.58042  20240748.590    20240743.723
  23902146.483   -10013215.74343  -7569428.88442  23902148.284    23902145.034
  22962759.593   -16540557.70743 -12837379.50442  22962760.172    22962758.326
  21570956.850   -22276990.83243 -16869866.21142  21570958.709    21570953.260
  24730908.583     -288624.36043   -209943.44142  24730909.981    24730910.354
  22530265.104   -15261710.70243 -11463258.01842  22530266.593    22530265.847
 04  7 22  0 22 30.0000000  0  9G 3G19G27G13G16G 8G23G20G 1
  23326060.301   -12594170.76443  -9799567.72642  23326062.339    23326060.988
  24405120.251    -5287775.69243  -4112533.51342  24405121.777    24405119.790
  21422546.055   -20720389.43044 -16120576.32642  21422547.717    21422545.008
  20239432.670   -29326956.67044 -22837871.64242  20239434.967    20239430.107
  23920476.082    -9916893.55443  -7494372.68542  23920477.852    23920474.861
  22947945.094   -16618406.40443 -12898040.76642  22947945.648    22947944.066
  21584005.436   -22208420.95543 -16816435.19042  21584007.220    21584001.625
  24752756.687     -173812.51343   -120479.87842  24752757.787    24752758.423
  22544770.780   -15185483.96443 -11403860.62442  22544772.233    22544771.080
 04  7 22  0 23  0.0000000  0  9G 3G19G27G13G16G 8G23G20G 1
  23319182.770   -12630313.86343  -9827731.16542  23319184.695    23319183.362
  24389698.367    -5368817.77343  -4175683.09542  24389699.854    24389697.604
  21415437.740   -20757744.35844 -16149684.04442  21415439.372    21415436.573
  20238197.221   -29333448.92244 -22842930.54242  20238199.515    20238194.707
  23938846.771    -9820354.21643  -7419147.31842  23938848.501    23938845.912
  22933161.711   -16696091.70443 -12958574.68442  22933162.214    22933161.269
  21597117.589   -22139516.43043 -16762743.36642  21597119.422    21597113.703
  24774601.552      -59016.15843    -31028.32442  24774602.721    24774603.751
  22559326.760   -15108992.50843 -11344256.96742  22559328.223    22559326.562
 04  7 22  0 23 30.0000000  0  8G 3G19G27G13G16G 8G23G 1
  23312395.460   -12665981.73043  -9855524.26042  23312397.376    23312396.012
  24374298.834    -5449742.78743  -4238741.42442  24374300.169    24374298.187
  21408365.689   -20794908.29044 -16178642.93642  21408367.371    21408364.553
  20237041.047   -29339524.54544 -22847664.79542  20237043.349    20237038.523
  23957259.551    -9723595.42343  -7343750.95542  23957261.166    23957258.466
  22918410.962   -16773608.48643 -13018977.30342  22918411.408    22918410.449
  21610294.121   -22070273.21143 -16708787.66142  21610295.973    21610290.187
  22573933.874   -15032232.49743 -11284444.03442  22573935.431    22573933.408
 04  7 22  0 24  0.0000000  0  8G 3G19G27G13G16G 8G23G 1
  23305696.828   -12701182.79343  -9882953.63642  23305698.714    23305697.244
  24358920.202    -5530558.10043  -4301714.28342  24358921.536    24358919.672
  21401327.872   -20831891.96744 -16207461.36742  21401329.614    21401326.707
  20235962.388   -29345193.05144 -22852081.82042  20235964.666    20235959.818
  23975711.951    -9626630.13443  -7268193.69642  23975713.321    23975710.351
  22903690.317   -16850967.47743 -13079256.99842  22903690.735    22903689.350
  21623533.027   -22000702.49843 -16654576.78542  21623534.871    21623528.899
  22588590.068   -14955214.75143 -11224430.25642  22588591.772    22588589.620
 04  7 22  0 24 30.0000000  0  8G 3G19G27G13G16G 8G23G 1
  23299089.057   -12735907.90543  -9910012.19242  23299090.863    23299089.314
  24343564.544    -5611253.70143  -4364593.88242  24343565.821    24343563.751
  21394325.712   -20868688.54943 -16236134.01342  21394327.442    21394324.556
  20234962.789   -29350446.14344 -22856175.14542  20234965.060    20234960.217
  23994203.731    -9529454.07443  -7192472.17842  23994205.194    23994202.495
  22889000.716   -16928160.95943 -13139407.71142  22889001.309    22888999.695
  21636835.360   -21930797.88043 -16600105.67942  21636837.186    21636831.216
  22603296.291   -14877932.97843 -11164210.77642  22603298.014    22603296.127
 04  7 22  0 25  0.0000000  0  8G 3G19G27G13G16G 8G23G 1
  23292571.495   -12770157.01043  -9936699.78742  23292573.256    23292571.991
  24328231.869    -5691828.14743  -4427379.16042  24328233.374    24328231.091
  21387358.699   -20905299.96044 -16264662.36242  21387360.418    21387357.610
  20234042.013   -29355284.84244 -22859945.56342  20234044.307    20234039.430
  24012735.070    -9432071.21843  -7116589.54242  24012736.531    24012733.978
  22874342.577   -17005189.77243 -13199430.10542  22874343.030    22874341.721
  21650200.908   -21860561.70843 -16545376.24542  21650202.715    21650196.819
  22618052.399   -14800389.23243 -11103787.18342  22618054.028    22618052.476
 04  7 22  0 25 30.0000000  0  8G 3G19G27G13G16G 8G23G 1
  23286144.945   -12803928.53343  -9963015.25042  23286146.686    23286145.369
  24312922.227    -5772279.29343  -4490068.23742  24312924.019    24312921.946
  21380426.891   -20941726.94044 -16293047.01242  21380428.584    21380425.766
  20233200.261   -29359708.44244 -22863392.53142  20233202.546    20233197.644
  24031305.291    -9334484.85443  -7040548.32842  24031306.627    24031304.119
  22859715.527   -17082054.53643 -13259324.66642  22859716.053    22859714.906
  21663629.237   -21789995.21443 -16490389.42542  21663631.034    21663625.325
  22632858.252   -14722584.90743 -11043160.51942  22632859.800    22632858.261
 04  7 22  0 26  0.0000000  0  8G 3G19G27G13G16G 8G23G 1
  23279809.437   -12837221.67643  -9988957.93442  23279811.118    23279809.726
  24297636.589    -5852605.30343  -4552659.82142  24297638.414    24297636.376
  21373530.024   -20977970.81344 -16321288.96942  21373531.730    21373528.879
  20232437.433   -29363716.94044 -22866516.05042  20232439.731    20232434.911
  24049913.550    -9236698.51743  -6964351.26642  24049914.762    24049912.191
  22845120.028   -17158756.03543 -13319092.02342  22845120.320    22845118.990
  21677120.164   -21719100.59543 -16435146.92042  21677121.923    21677116.265
  22647713.052   -14644522.02443 -10982332.36242  22647714.667    22647713.056
 04  7 22  0 26 30.0000000  0  8G 3G19G27G13G16G 8G23G 1
  23273566.538   -12870027.65943 -10014521.02842  23273568.180    23273567.021
  24282376.829    -5932795.93143  -4615146.00442  24282378.577    24282376.283
  21366669.025   -21014024.80344 -16349382.98642  21366670.752    21366668.012
  20231755.221   -29367302.23244 -22869309.80442  20231757.495    20231752.628
  24068560.031    -9138707.95343  -6887995.05642  24068561.586    24068559.254
  22830556.391   -17235286.99743 -13378726.50442  22830557.002    22830555.485
  21690675.021   -21647871.11743 -16379643.48842  21690676.803    21690670.958
  22662618.481   -14566194.09643 -10921297.70042  22662620.094    22662618.271
 04  7 22  0 27  0.0000000  0  8G 3G19G27G13G16G 8G23G 1
  23267415.655   -12902352.59543 -10039709.35142  23267417.284    23267415.939
  24267141.698    -6012856.10243  -4677530.61942  24267143.245    24267141.119
  21359842.809   -21049897.11744 -16377335.45242  21359844.519    21359841.694
  20231152.112   -29370471.45444 -22871779.36642  20231154.385    20231149.518
  24087243.990    -9040523.73043  -6811488.01142  24087245.547    24087243.008
  22816024.141   -17311655.04943 -13438234.06242  22816024.573    22816023.047
  21704291.623   -21576315.45443 -16323885.89542  21704293.510    21704287.674
  22677572.673   -14487609.66243 -10860063.20742  22677574.262    22677572.339
 04  7 22  0 27 30.0000000  0  8G 3G19G27G13G16G 8G23G 1
  23261356.553   -12934193.03843 -10064520.13042  23261358.263    23261356.787
  24251932.656    -6092781.63143  -4739810.19842  24251934.272    24251932.049
  21353051.399   -21085586.46044 -16405145.34342  21353053.048    21353050.133
  20230628.684   -29373222.19844 -22873922.83142  20230630.899    20230626.111
  24105964.825    -8942146.89843  -6734830.88642  24105966.293    24105963.575
  22801522.972   -17387858.73243 -13497613.54342  22801523.448    22801521.752
  21717970.273   -21504433.20843 -16267873.85142  21717972.160    21717966.423
  22692575.771   -14408768.14343 -10798628.34742  22692577.276    22692575.303
 04  7 22  0 28  0.0000000  0  8G 3G19G27G13G16G 8G23G 1
  23255390.820   -12965542.97643 -10088948.66042  23255392.534    23255390.918
  24236750.272    -6172565.62243  -4801979.47442  24236751.911    24236749.742
  21346295.406   -21121089.23044 -16432809.83042  21346297.114    21346294.146
  20230185.847   -29375549.62444 -22875736.41242  20230188.054    20230183.224
  24124722.112    -8843576.01743  -6658022.49342  24124723.701    24124721.159
  22787054.091   -17463893.45443 -13556861.32642  22787054.561    22787052.581
  21731711.614   -21432221.02543 -16211604.68342  21731713.347    21731707.909
  22707628.505   -14329666.27043 -10736990.60842  22707630.025    22707628.036
 04  7 22  0 28 30.0000000  0  8G 3G19G27G13G16G 8G23G 1
  23249518.732   -12996400.93143 -10112993.83742  23249520.494    23249519.116
  24221594.918    -6252205.19543  -4864036.22242  24221596.712    24221594.650
  21339574.881   -21156405.69844 -16460329.15542  21339576.593    21339573.648
  20229823.673   -29377452.80744 -22877219.43342  20229825.883    20229821.081
  24143516.076    -8744813.87043  -6581065.07242  24143517.476    24143515.175
  22772617.256   -17539759.48643 -13615977.68442  22772617.739    22772615.658
  21745515.732   -21359680.02343 -16155079.28142  21745517.354    21745511.958
  22722730.528   -14250304.96543 -10675150.72142  22722732.124    22722730.327
 04  7 22  0 29  0.0000000  0  9G 3G19G27G13G16G 8G10G23G 1
  23243740.112   -13026766.72043 -10136655.40842  23243742.007    23243740.913
  24206467.217    -6331698.90943  -4925979.26942  24206468.992    24206467.601
  21332889.466   -21191537.76244 -16487704.76842  21332891.168    21332888.285
  20229542.237   -29378932.07344 -22878372.11042  20229544.422    20229539.653
  24162345.546    -8645864.60243  -6503961.79342  24162346.832    24162344.737
  22758212.203   -17615457.93043 -13674963.39542  22758212.721    22758211.023
  24627059.427    -2256957.51153  -1748357.84052  24627060.976    24627060.082
  21759382.163   -21286812.53343 -16098299.45042  21759383.844    21759378.153
  22737881.477   -14170686.43243 -10613110.38442  22737882.943    22737881.395
 04  7 22  0 29 30.0000000  0  9G 3G19G27G13G16G 8G10G23G 1
  23238055.007   -13056641.39343 -10159934.35542  23238056.913    23238055.564
  24191367.319    -6411046.45943  -4987808.47542  24191369.033    24191368.357
  21326238.649   -21226487.98144 -16514938.69242  21326240.393    21326237.517
  20229341.016   -29379989.61944 -22879196.17542  20229343.254    20229338.416
  24181209.706    -8546733.42143  -6426716.80342  24181210.864    24181208.908
  22743838.454   -17690990.96943 -13733820.22442  22743839.092    22743837.912
  24610607.672    -2343412.71243  -1815725.46942  24610608.985    24610608.115
  21773309.923   -21213621.93143 -16041267.86742  21773311.742    21773306.025
  22753080.331   -14090814.12343 -10550872.31242  22753081.742    22753080.716
 04  7 22  0 30  0.0000000  0  9G 3G19G27G13G16G 8G10G23G 1
  23232464.026   -13086022.81443 -10182828.96442  23232465.798    23232464.484
  24176297.092    -6490244.82543  -5049521.44242  24176298.410    24176296.925
  21319622.281   -21261256.80244 -16542031.27442  21319623.996    21319621.257
  20229220.233   -29380624.40344 -22879690.82842  20229222.474    20229217.604
  24200108.417    -8447422.71643  -6349331.97342  24200109.403    24200106.840
  22729496.427   -17766358.90343 -13792548.42542  22729496.894    22729495.815
  24594219.326    -2429532.41443  -1882831.74142  24594220.791    24594220.144
  21787299.107   -21140108.96443 -15983985.10342  21787300.931    21787295.312
  22768327.833   -14010688.68643 -10488436.99442  22768329.154    22768327.956
 04  7 22  0 30 30.0000000  0  9G 3G19G27G13G16G 8G10G23G 1
  23226968.372   -13114903.59543 -10205333.51342  23226970.099    23226969.096
  24161256.316    -6569285.33643  -5111111.42842  24161257.577    24161255.895
  21313041.719   -21295838.61244 -16568978.14242  21313043.363    21313040.575
  20229181.233   -29380829.51644 -22879850.68142  20229183.498    20229178.588
  24219041.132    -8347929.42343  -6271804.91042  24219042.385    24219039.757
  22715187.210   -17841555.48143 -13851143.15342  22715187.659    22715185.938
  24577896.689    -2515308.45543  -1949670.26642  24577897.999    24577897.480
  21801350.598   -21066268.80743 -15926447.39742  21801352.460    21801346.684
  22783624.674   -13930305.21043 -10425800.61842  22783626.014    22783624.470
 04  7 22  0 31  0.0000000  0  9G 3G19G27G13G16G 8G10G23G 1
  23221567.398   -13143285.67843 -10227449.41442  23221569.143    23221568.165
  24146245.774    -6648168.57543  -5172578.83542  24146246.959    24146244.646
  21306495.865   -21330237.40144 -16595782.39942  21306497.579    21306494.670
  20229223.453   -29380607.63744 -22879677.80142  20229225.712    20229220.857
  24238007.235    -8248259.73043  -6194140.32642  24238008.791    24238006.399
  22700909.920   -17916583.66043 -13909606.64942  22700910.451    22700908.242
  24561639.636    -2600741.75143  -2016241.68742  24561640.579    24561640.237
  21815463.419   -20992106.02143 -15868658.26342  21815465.331    21815459.470
  22798969.642   -13849668.10643 -10362966.61542  22798971.145    22798969.371
 04  7 22  0 31 30.0000000  0  9G 3G19G27G13G16G 8G10G23G 1
  23216261.918   -13171167.48043 -10249175.49742  23216263.594    23216262.141
  24131265.173    -6726891.77743  -5233921.50642  24131266.610    24131264.368
  21299984.689   -21364453.47144 -16622444.26642  21299986.411    21299983.537
  20229347.032   -29379958.14944 -22879171.71142  20229349.277    20229344.456
  24257007.424    -8148416.26743  -6116340.32742  24257008.603    24257006.331
  22686664.378   -17991443.70743 -13967939.10242  22686665.002    22686662.790
  24545448.041    -2685829.67543  -2082543.93442  24545448.968    24545448.794
  21829637.213   -20917621.35043 -15810618.32142  21829639.151    21829633.551
  22814362.661   -13768778.14943 -10299935.57842  22814364.219    22814362.390
 04  7 22  0 32  0.0000000  0  9G 3G19G27G13G16G 8G10G23G 1
  23211051.722   -13198545.96143 -10270509.34942  23211053.503    23211052.288
  24116315.753    -6805450.21843  -5295135.81342  24116317.277    24116315.259
  21293508.564   -21398485.19944 -16648962.47242  21293510.315    21293507.474
  20229552.395   -29378878.72644 -22878330.60542  20229554.651    20229549.872
  24276040.002    -8048399.96043  -6038405.62342  24276041.376    24276039.167
  22672451.048   -18066133.45343 -14026138.83942  22672451.683    22672449.913
  24529322.691    -2770568.21943  -2148573.93242  24529323.800    24529323.670
  21843872.359   -20842814.04043 -15752326.97942  21843874.187    21843868.817
  22829803.574   -13687634.42843 -10236706.81642  22829805.219    22829803.911
 04  7 22  0 32 30.0000000  0  9G 3G19G27G13G16G 8G10G23G 1
  23205937.837   -13225418.74443 -10291449.14542  23205939.531    23205938.794
  24101398.564    -6883840.58443  -5356219.14142  24101400.117    24101397.548
  21287067.698   -21432332.55944 -16675337.02042  21287069.372    21287066.538
  20229839.890   -29377367.76044 -22877153.23342  20229842.162    20229837.415
  24295105.454    -7948212.87043  -5960337.88142  24295106.766    24295104.195
  22658270.486   -18140652.39143 -14084205.49342  22658271.066    22658269.533
  24513264.356    -2854954.50043  -2214329.43142  24513265.599    24513265.208
  21858169.073   -20767684.52843 -15693784.53842  21858170.867    21858165.482
  22845292.634   -13606237.41543 -10173280.62642  22845294.251    22845293.470
 04  7 22  0 33  0.0000000  0  9G 3G19G27G13G16G 8G10G23G 1
  23200920.085   -13251788.01743 -10311996.62242  23200921.747    23200920.670
  24086512.917    -6962063.46143  -5417171.94642  24086514.341    24086512.101
  21280661.120   -21465999.28044 -16701570.81742  21280662.824    21280659.859
  20230209.001   -29375427.92244 -22875641.68342  20230211.249    20230206.546
  24314201.741    -7847861.15543  -5882141.85242  24314203.188    24314200.410
  22644121.952   -18215003.88143 -14142141.67342  22644122.437    22644120.952
  24497273.117    -2938989.56843  -2279811.24842  24497274.167    24497273.626
  21872526.385   -20692237.34943 -15634994.56242  21872528.187    21872522.688
  22860829.463   -13524591.53543 -10109660.55242  22860830.924    22860830.176
 04  7 22  0 33 30.0000000  0  9G 3G19G27G13G16G 8G10G23G 1
  23195999.026   -13277648.27943 -10332147.45242  23196000.791    23195999.476
  24071660.674    -7040112.14143  -5477989.00642  24071661.855    24071659.774
  21274289.682   -21499481.82344 -16727661.10142  21274291.372    21274288.321
  20230660.632   -29373054.86644 -22873792.56842  20230662.819    20230658.111
  24333329.550    -7747343.53843  -5803816.49142  24333331.045    24333328.454
  22630006.158   -18289183.87343 -14199944.22042  22630006.504    22630004.768
  24481349.351    -3022667.44843  -2345014.73642  24481350.649    24481350.390
  21886944.759   -20616469.50443 -15575954.73342  21886946.600    21886940.856
  22876414.332   -13442693.82243 -10045844.23542  22876415.825    22876414.571
 04  7 22  0 34  0.0000000  0  9G 3G19G27G13G16G 8G10G23G 1
  23191174.808   -13302999.47543 -10351901.58042  23191176.572    23191175.539
  24056841.964    -7117985.37443  -5538669.36042  24056843.190    24056841.078
  21267952.819   -21532781.81544 -16753609.12942  21267954.523    21267951.568
  20231194.583   -29370249.17944 -22871606.33442  20231196.765    20231192.037
  24352488.091    -7646664.17443  -5725365.07942  24352489.768    24352487.472
  22615922.350   -18363193.67643 -14257614.12542  22615922.747    22615920.773
  24465494.102    -3105987.15343  -2409939.15642  24465495.427    24465495.093
  21901423.344   -20540383.61343 -15516667.08242  21901425.248    21901419.626
  22892046.582   -13360546.84343  -9981833.65342  22892048.232    22892046.475
 04  7 22  0 34 30.0000000  0  9G 3G19G27G13G16G 8G10G23G 1
  23186447.826   -13327841.03443 -10371258.62042  23186449.497    23186448.445
  24042056.891    -7195680.99643  -5599211.32742  24042058.214    24042055.916
  21261650.399   -21565900.62544 -16779415.96642  21261652.137    21261649.433
  20231810.754   -29367011.14344 -22869083.19742  20231812.983    20231808.187
  24371676.719    -7545826.49743  -5646790.30742  24371678.479    24371676.488
  22601870.839   -18437034.17243 -14315152.12342  22601871.332    22601869.478
  24449707.753    -3188947.17643  -2474583.26942  24449708.808    24449708.390
  21915962.173   -20463981.37143 -15457132.86342  21915964.032    21915958.497
  22907725.980   -13278152.26343  -9917630.13042  22907727.703    22907725.541
 04  7 22  0 35  0.0000000  0  9G 3G19G27G13G16G 8G10G23G 1
  23181818.177   -13352167.65343 -10390214.40442  23181819.992    23181818.933
  24027306.845    -7273192.32343  -5659609.66542  24027308.307    24027306.087
  21255383.311   -21598834.80344 -16805078.93742  21255384.984    21255382.370
  20232510.128   -29363335.91244 -22866219.37342  20232512.379    20232507.586
  24390896.171    -7444829.44443  -5568091.39442  24390897.792    24390895.677
  22587852.604   -18510701.21443 -14372554.95042  22587853.070    22587851.399
  24433990.358    -3271541.08943  -2538942.11542  24433991.709    24433991.307
  21930561.857   -20387260.15943 -15397350.15142  21930563.737    21930557.891
  22923452.644   -13195507.23043  -9853231.47842  22923454.476    22923452.658
 04  7 22  0 35 30.0000000  0  9G 3G19G27G13G16G 8G10G23G 1
  23177286.685   -13375980.16943 -10408769.58542  23177288.394    23177287.530
  24012591.877    -7350519.07443  -5719864.19142  24012593.340    24012591.396
  21249150.756   -21631586.77844 -16830599.94842  21249152.471    21249149.874
  20233292.428   -29359225.12244 -22863016.15442  20233294.708    20233289.862
  24410144.824    -7343677.75443  -5489271.96042  24410146.504    24410144.074
  22573866.716   -18584196.78143 -14429824.13142  22573867.172    22573865.921
  24418342.994    -3353768.70043  -2603015.51942  24418344.287    24418344.016
  21945221.457   -20310223.25543 -15337321.44342  21945223.256    21945217.491
  22939226.325   -13112614.89543  -9788640.13142  22939228.037    22939226.930
 04  7 22  0 36  0.0000000  0  9G 3G19G27G13G16G 8G10G23G 1
  23172853.486   -13399277.39643 -10426923.22442  23172855.232    23172854.326
  23997912.843    -7427658.19943  -5779972.51642  23997914.264    23997912.438
  21242952.984   -21664157.06744 -16855979.37742  21242954.668    21242951.781
  20234157.617   -29354678.46844 -22859473.30742  20234159.909    20234155.071
  24429422.367    -7242373.98343  -5410334.01742  24429423.877    24429421.476
  22559913.499   -18657520.97443 -14486959.81342  22559913.973    22559912.789
  24402765.585    -3435627.92043  -2666801.84842  24402766.825    24402766.734
  21959940.899   -20232871.75243 -15277047.56442  21959942.645    21959937.287
  22955047.363   -13029476.30743  -9723856.92042  22955048.790    22955047.954
 04  7 22  0 36 30.0000000  0  9G 3G19G27G13G16G 8G10G23G 1
  23168518.601   -13422058.07443 -10444674.36242  23168520.313    23168519.014
  23983270.032    -7504607.01443  -5839932.53142  23983271.368    23983269.315
  21236789.621   -21696545.85344 -16881217.39242  21236791.292    21236788.210
  20235105.906   -29349695.17844 -22855590.22742  20235108.186    20235103.379
  24448727.824    -7140921.32843  -5331280.00442  24448729.495    24448727.357
  22545993.107   -18730673.88143 -14543962.01742  22545993.627    22545991.997
  24387258.601    -3517116.42743  -2730299.35242  24387259.863    24387260.038
  21974720.239   -20155206.74143 -15216529.40742  21974721.962    21974716.840
  22970914.983   -12946092.62843  -9658882.66642  22970916.420    22970915.580
 04  7 22  0 37  0.0000000  0  9G 3G19G27G13G16G 8G10G23G 1
  23164282.567   -13444318.82243 -10462020.35942  23164284.307    23164282.722
  23968663.683    -7581361.00643  -5899740.73742  23968665.231    23968663.614
  21230660.986   -21728751.77144 -16906312.89342  21230662.749    21230659.609
  20236137.723   -29344272.90744 -22851365.08442  20236140.011    20236135.231
  24468062.120    -7039319.99943  -5252110.22042  24468063.741    24468061.438
  22532105.512   -18803653.72143 -14600829.38442  22532105.919    22532104.000
  24371823.269    -3598230.27743  -2793504.89942  24371824.146    24371824.683
  21989559.108   -20077227.67243 -15155766.55542  21989560.877    21989555.980
  22986829.370   -12862462.78643  -9593716.58742  22986831.041    22986829.724
 04  7 22  0 37 30.0000000  0  9G 3G19G27G13G16G 8G10G23G 1
  23160145.020   -13466060.33743 -10478961.77942  23160146.918    23160145.531
  23954095.648    -7657919.04643  -5959396.23642  23954097.100    23954095.206
  21224566.648   -21760777.03744 -16931267.62142  21224568.374    21224565.408
  20237252.892   -29338412.73844 -22846798.70542  20237255.164    20237250.345
  24487423.651    -6937574.75543  -5172828.32242  24487425.502    24487422.661
  22518250.171   -18876461.74243 -14657562.86342  22518250.729    22518248.733
  24356459.451    -3678969.11243  -2856418.20842  24356460.209    24356460.471
  22004457.174   -19998937.29743 -15094761.11442  22004458.973    22004454.280
  23002789.883   -12778589.83743  -9528361.10242  23002791.595    23002789.958
 04  7 22  0 38  0.0000000  0  9G 3G19G27G13G16G 8G10G23G 1
  23156107.763   -13487277.20343 -10495494.37842  23156109.461    23156108.263
  23939565.956    -7734273.92643  -6018893.47542  23939567.486    23939565.213
  21218507.536   -21792617.70644 -16956078.51642  21218509.213    21218506.400
  20238452.294   -29332109.60544 -22841887.16842  20238454.603    20238449.831
  24506813.112    -6835683.95943  -5093432.97242  24506814.933    24506811.603
  22504428.822   -18949094.05143 -14714159.40242  22504429.183    22504427.134
  24341168.148    -3759326.08343  -2919033.98542  24341168.994    24341168.990
  22019415.315   -19920332.44843 -15033510.61642  22019417.126    22019412.191
  23018796.903   -12694470.69143  -9462813.78142  23018798.674    23018797.036
 04  7 22  0 38 30.0000000  0  9G 3G19G27G13G16G 8G10G23G 1
  23152169.222   -13507972.89243 -10511620.81642  23152171.115    23152170.130
  23925073.810    -7810427.91343  -6078234.17042  23925075.542    23925073.262
  21212482.780   -21824278.84844 -16980749.51642  21212484.453    21212481.437
  20239735.285   -29325367.76444 -22836633.77542  20239737.554    20239732.781
  24526229.019    -6733655.08543  -5013930.04442  24526230.754    24526227.213
  22490639.895   -19021555.05043 -14770622.47542  22490640.444    22490638.588
  24325948.954    -3839303.85743  -2981354.24542  24325949.994    24325949.727
  22034432.199   -19841419.22543 -14972019.82442  22034434.074    22034428.537
  23034849.821   -12610111.06343  -9397079.08142  23034851.435    23034850.260
 04  7 22  0 39  0.0000000  0  9G 3G19G27G13G16G 8G10G23G 1
  23148331.408   -13528142.67043 -10527337.49142  23148333.138    23148331.802
  23910621.380    -7886374.46443  -6137413.24842  23910622.996    23910620.737
  21206492.548   -21855757.30744 -17005278.17442  21206494.284    21206491.285
  20241102.331   -29318183.49944 -22831035.64442  20241104.623    20241099.865
  24545670.310    -6631487.30743  -4934318.83442  24545672.427    24545669.354
  22476884.341   -19093841.24443 -14826949.29942  22476884.915    22476883.214
  24310802.640    -3918896.46343  -3043374.38242  24310804.085    24310803.523
  22049508.251   -19762195.06443 -14910286.73142  22049510.145    22049504.186
  23050949.363   -12525508.47443  -9331155.06342  23050950.951    23050949.977
 04  7 22  0 39 30.0000000  0  9G 3G19G27G13G16G 8G10G23G 1
  23144593.363   -13547785.58343 -10542643.63842  23144595.189    23144593.940
  23896209.227    -7962111.59943  -6196429.07242  23896210.940    23896208.052
  21200536.928   -21887054.01344 -17029665.18342  21200538.655    21200535.738
  20242553.696   -29310556.49244 -22825092.51742  20242555.984    20242551.237
  24565137.665    -6529183.64243  -4854601.75442  24565139.846    24565137.406
  22463161.749   -19165953.22343 -14883140.36342  22463162.341    22463160.837
  24295729.960    -3998102.08943  -3105092.96842  24295731.460    24295731.092
  22064642.889   -19682661.82843 -14848312.81442  22064644.761    22064638.797
  23067094.771   -12440664.58043  -9265043.00042  23067096.418    23067095.564
 04  7 22  0 40  0.0000000  0  9G 3G19G27G13G16G 8G10G23G 1
  23140955.801   -13566900.56243 -10557538.38942  23140957.601    23140956.556
  23881837.271    -8037636.39443  -6255279.50442  23881838.929    23881836.013
  21194615.808   -21918169.26544 -17053910.80542  21194617.499    21194614.666
  20244089.440   -29302486.08144 -22818803.88442  20244091.701    20244086.984
  24584630.653    -6426746.72443  -4774780.87442  24584632.680    24584630.717
  22449472.382   -19237890.50443 -14939195.33242  22449473.037    22449471.193
  24280731.774    -4076918.71843  -3166508.47242  24280733.087    24280732.525
  22079835.944   -19602820.56343 -14786098.87742  22079837.868    22079832.097
  23083285.588   -12355580.49143  -9198743.79642  23083287.263    23083286.501
 04  7 22  0 40 30.0000000  0  9G 3G19G27G13G16G 8G10G23G 1
  23137418.418   -13585490.85043 -10572024.31342  23137420.033    23137418.709
  23867505.280    -8112950.44843  -6313965.71942  23867506.906    23867504.487
  21188728.440   -21949107.63244 -17078018.60642  21188730.113    21188727.249
  20245708.810   -29293975.87244 -22812172.54542  20245711.074    20245706.365
  24604147.598    -6324183.29543  -4694861.38042  24604149.601    24604147.882
  22435815.825   -19309657.36443 -14995117.53142  22435816.431    22435813.941
  24265807.155    -4155348.35743  -3227622.38942  24265808.538    24265807.643
  22095086.864   -19522676.57443 -14723649.06042  22095088.736    22095083.180
  23099521.402   -12270261.43443  -9132261.48242  23099522.897    23099522.260
 04  7 22  0 41  0.0000000  0  9G 3G19G27G13G16G 8G10G23G 1
  23133982.101   -13603546.08443 -10586093.27742  23133984.003    23133982.797
  23853216.121    -8188041.38143  -6372478.00542  23853217.692    23853215.225
  21182876.641   -21979859.87144 -17101981.35342  21182878.298    21182875.134
  20247413.755   -29285016.38344 -22805191.11642  20247416.026    20247411.292
  24623690.325    -6221486.67743  -4614838.11242  24623692.031    24623690.501
  22422193.211   -19381244.77543 -15050899.85742  22422193.710    22422191.326
  24250958.349    -4233379.22543  -3288425.57342  24250959.826    24250958.865
  22110396.849   -19442221.79043 -14660957.08242  22110398.606    22110393.439
  23115803.475   -12184699.10543  -9065589.60842  23115804.998    23115804.067
 04  7 22  0 41 30.0000000  0  9G 3G19G27G13G16G 8G10G23G 1
  23130647.804   -13621069.14243 -10599747.58042  23130649.547    23130648.429
  23838969.000    -8262910.31643  -6430817.38242  23838970.587    23838968.361
  21177059.191   -22010430.40144 -17125802.53842  21177060.927    21177057.826
  20249203.515   -29275610.90944 -22797862.18642  20249205.776    20249201.121
  24643257.366    -6118663.34343  -4534716.10042  24643258.694    24643257.121
  22408603.360   -19452656.22843 -15106545.06442  22408604.122    22408602.386
  24236184.828    -4311013.38043  -3348919.61342  24236186.207    24236185.619
  22125765.048   -19361461.41643 -14598026.98242  22125766.717    22125761.727
  23132130.807   -12098898.50743  -8998732.08542  23132132.486    23132131.354
 04  7 22  0 42  0.0000000  0  9G 3G19G27G13G16G 8G10G23G 1
  23127414.397   -13638060.99343 -10612987.96242  23127416.175    23127414.885
  23824763.979    -8337556.92743  -6488983.47742  23824765.540    23824763.551
  21171275.807   -22040822.04944 -17149484.30442  21171277.574    21171274.522
  20251077.839   -29265761.32644 -22790187.18542  20251080.079    20251075.400
  24662847.386    -6015718.33543  -4454499.27342  24662848.716    24662846.816
  22395047.574   -19523894.30843 -15162055.20042  22395048.061    22395046.099
  24221486.666    -4388250.84243  -3409104.60442  24221488.127    24221487.890
  22141190.753   -19280398.98943 -14534861.49942  22141192.434    22141187.333
  23148502.829   -12012863.30343  -8931691.72142  23148504.460    23148503.452
 04  7 22  0 42 30.0000000  0  9G 3G19G27G13G16G 8G10G23G 1
  23124282.816   -13654517.50043 -10625811.17642  23124284.574    23124283.294
  23810602.360    -8411975.32743  -6546971.76642  23810603.999    23810601.938
  21165527.027   -22071031.85444 -17173024.39142  21165528.765    21165525.873
  20253037.351   -29255463.80844 -22782163.14042  20253039.595    20253034.918
  24682460.730    -5912651.00043  -4374187.13742  24682462.213    24682459.991
  22381525.088   -19594955.33543 -15217427.36042  22381525.565    22381523.565
  24206865.656    -4465086.25843  -3468976.27142  24206866.910    24206866.767
  22156674.340   -19199032.54343 -14471459.10142  22156676.091    22156670.971
  23164920.013   -11926591.44243  -8864466.97942  23164921.599    23164920.559
 04  7 22  0 43  0.0000000  0  9G 3G19G27G13G16G 8G10G23G 1
  23121252.964   -13670440.45843 -10638218.65842  23121254.705    23121253.417
  23796484.661    -8486165.41343  -6604782.17342  23796486.308    23796483.731
  21159812.196   -22101062.76644 -17196425.08842  21159813.949    21159811.121
  20255081.705   -29244720.65644 -22773791.84742  20255083.949    20255079.259
  24702095.573    -5809466.56743  -4293783.75342  24702097.452    24702095.411
  22368035.464   -19665841.76443 -15272663.43642  22368036.044    22368034.421
  24192320.773    -4541520.03643  -3528535.00542  24192322.229    24192321.823
  22172215.254   -19117365.65443 -14407822.60642  22172217.060    22172211.721
  23181381.504   -11840086.57843  -8797060.66242  23181383.156    23181382.047
 04  7 22  0 43 30.0000000  0  9G 3G19G27G13G16G 8G10G23G 1
  23118325.058   -13685825.10343 -10650206.65542  23118326.855    23118325.652
  23782411.355    -8560120.87043  -6662409.73542  23782413.016    23782410.380
  21154132.205   -22130911.78744 -17219684.03642  21154133.893    21154130.871
  20257211.563   -29233528.09744 -22765070.36942  20257213.860    20257209.181
  24721753.067    -5706164.09643  -4213288.39042  24721755.105    24721753.641
  22354580.102   -19736550.73343 -15327761.26042  22354580.576    22354578.676
  24177853.496    -4617546.48343  -3587776.33842  24177854.828    24177854.274
  22187813.630   -19035396.24843 -14343950.38442  22187815.420    22187810.011
  23197887.816   -11753346.49743  -8729471.07542  23197889.476    23197888.409
 04  7 22  0 44  0.0000000  0  9G 3G19G27G13G16G 8G10G23G 1
  23115500.141   -13700670.31243 -10661774.35842  23115501.882    23115500.420
  23768382.888    -8633838.73643  -6719852.13242  23768384.588    23768382.398
  21148486.686   -22160578.79344 -17242801.18342  21148488.378    21148485.415
  20259427.178   -29221884.88444 -22755997.73442  20259429.439    20259424.802
  24741433.652    -5602746.01343  -4132702.95542  24741435.126    24741433.815
  22341158.858   -19807081.33243 -15382720.10842  22341159.275    22341157.040
  24163464.077    -4693163.25243  -3646698.41842  24163465.476    24163464.807
  22203469.101   -18953125.48343 -14279843.32542  22203470.992    22203465.658
  23214438.462   -11666372.01843  -8661698.81742  23214440.161    23214439.019
 04  7 22  0 44 30.0000000  0  9G 3G19G27G13G16G 8G10G23G 1
  23112777.117   -13714979.43743 -10672924.33042  23112778.911    23112777.413
  23754400.033    -8707320.29443  -6777110.42442  23754401.635    23754399.132
  21142875.058   -22190068.22844 -17265779.93842  21142876.780    21142873.648
  20261727.849   -29209794.85644 -22746576.93042  20261730.104    20261725.436
  24761134.523    -5499218.93243  -4052032.58542  24761135.615    24761134.594
  22327770.197   -19877437.94543 -15437543.35942  22327770.772    22327768.551
  24149152.203    -4768371.97943  -3705302.54142  24149153.712    24149152.806
  22219181.039   -18870558.46043 -14215505.43542  22219182.846    22219177.707
  23231032.916   -11579168.41043  -8593748.02142  23231034.597    23231033.091
 04  7 22  0 45  0.0000000  0  8G 3G19G27G13G 8G10G23G 1
  23110158.460   -13728740.99843 -10683647.57842  23110160.137    23110158.704
  23740464.401    -8780552.29143  -6834174.24042  23740465.976    23740463.227
  21137299.128   -22219369.95044 -17288612.43842  21137300.791    21137297.772
  20264115.594   -29197247.37844 -22736799.67042  20264117.844    20264113.159
  22314416.710   -19947609.72243 -15492222.56642  22314417.344    22314415.395
  24134920.757    -4843160.26443  -3763579.05742  24134922.300    24134921.053
  22234951.086   -18787686.14243 -14150929.65342  22234952.835    22234947.974
  23247672.516   -11491726.32943  -8525611.35342  23247674.387    23247672.454
 04  7 22  0 45 30.0000000  0  8G 3G19G27G13G 8G10G23G 1
  23107641.892   -13741967.01643 -10693953.55742  23107643.532    23107641.838
  23726573.839    -8853545.15643  -6891051.67442  23726575.480    23726573.134
  21131756.264   -22248497.32344 -17311309.06842  21131757.964    21131754.951
  20266587.933   -29184254.83944 -22726675.61442  20266590.230    20266585.557
  22301096.288   -20017609.75643 -15546767.95742  22301096.748    22301094.818
  24120766.356    -4917538.97043  -3821536.44742  24120768.428    24120767.436
  22250776.632   -18704522.79843 -14086127.09242  22250778.388    22250773.634
  23264355.077   -11404059.82743  -8457299.88342  23264356.876    23264355.020
 04  7 22  0 46  0.0000000  0  8G 3G19G27G13G 8G10G23G 1
  23105228.084   -13754649.57243 -10703836.03242  23105229.913    23105228.405
  23712731.377    -8926289.33843  -6947735.36142  23712732.858    23712730.600
  21126247.971   -22277443.88144 -17333864.80642  21126249.626    21126246.661
  20269146.416   -29170810.12444 -22716199.20542  20269148.705    20269144.000
  22287809.659   -20087431.61443 -15601174.53542  22287810.219    22287808.063
  24106692.253    -4991499.15043  -3879167.71242  24106693.893    24106692.985
  22266658.702   -18621062.98043 -14021093.51042  22266660.465    22266655.565
  23281081.156   -11316163.51043  -8388809.33442  23281082.911    23281081.428
 04  7 22  0 46 30.0000000  0  8G 3G19G27G13G 8G10G23G 1
  23102918.725   -13766786.14543 -10713293.08342  23102920.506    23102918.798
  23698937.167    -8998780.04043  -7004221.51942  23698938.623    23698935.891
  21120774.309   -22306207.90844 -17356278.30842  21120775.960    21120772.990
  20271791.298   -29156910.81044 -22705368.57242  20271793.586    20271788.933
  22274557.290   -20157072.63843 -15655440.20042  22274557.894    22274555.681
  24092698.386    -5065036.88043  -3936469.77042  24092700.272    24092699.075
  22282597.257   -18537306.00343 -13955828.35842  22282599.092    22282593.976
  23297850.996   -11228036.74443  -8320139.20842  23297852.598    23297851.785
 04  7 22  0 47  0.0000000  0  8G 3G19G27G13G 8G10G23G 1
  23100712.536   -13778378.95443 -10722326.40842  23100714.348    23100712.697
  23685190.402    -9071017.74843  -7060510.59142  23685191.892    23685189.324
  21115334.911   -22334792.81544 -17378552.24442  21115336.553    21115333.509
  20274522.280   -29142559.59344 -22694185.80842  20274524.544    20274519.912
  22261338.548   -20226536.28843 -15709567.65442  22261339.200    22261337.097
  24078784.778    -5138152.96043  -3993443.30442  24078786.684    24078785.799
  22298591.465   -18453256.01943 -13890334.90742  22298593.393    22298587.969
  23314664.212   -11139683.57043  -8251292.66042  23314665.784    23314665.104
 04  7 22  0 47 30.0000000  0  8G 3G19G27G13G 8G10G23G 1
  23098610.396   -13789425.29043 -10730933.93542  23098612.255    23098610.671
  23671492.634    -9142998.00643  -7116598.99742  23671494.216    23671491.921
  21109929.727   -22363197.16244 -17400685.48042  21109931.422    21109928.314
  20277339.612   -29127754.80144 -22682649.60242  20277341.875    20277337.199
  22248154.044   -20295820.09343 -15763554.96442  22248154.570    22248152.949
  24064952.242    -5210843.88543  -4050085.51442  24064954.072    24064953.405
  22314641.322   -18368912.72643 -13824612.91642  22314643.288    22314637.651
  23331520.485   -11051103.55843  -8182269.31342  23331522.085    23331521.468
 04  7 22  0 48  0.0000000  0  8G 3G19G27G13G 8G10G23G 1
  23096612.840   -13799923.12643 -10739114.04442  23096614.613    23096612.998
  23657845.091    -9214716.62943  -7172483.51542  23657846.547    23657844.262
  21104559.030   -22391420.02644 -17422677.31042  21104560.779    21104557.649
  20280243.453   -29112494.43444 -22670758.41142  20280245.745    20280241.082
  22235004.159   -20364923.33943 -15817401.57342  22235004.575    22235002.989
  24051201.272    -5283106.14243  -4106393.75542  24051203.065    24051202.462
  22330747.290   -18284276.14643 -13758662.40542  22330749.110    22330743.182
  23348419.988   -10962296.62543  -8113069.18442  23348421.487    23348420.770
 04  7 22  0 48 30.0000000  0  8G 3G19G27G13G 8G10G23G 1
  23094719.030   -13809874.49643 -10746868.32642  23094720.922    23094719.339
  23644247.427    -9286173.55143  -7228164.16442  23644248.803    23644246.462
  21099222.356   -22419464.28544 -17444529.94742  21099224.130    21099220.900
  20283233.709   -29096780.60344 -22658513.86942  20283235.972    20283231.343
  22221888.277   -20433848.54943 -15871109.46942  22221888.686    22221886.985
  24037531.556    -5354940.10043  -4162368.22542  24037533.443    24037532.738
  22346907.973   -18199350.03943 -13692486.25042  22346909.849    22346904.183
  23365361.634   -10873266.33343  -8043695.02642  23365363.129    23365362.285
 04  7 22  0 49  0.0000000  0  8G 3G19G27G13G 8G10G23G 1
  23092930.253   -13819276.28943 -10754194.39042  23092931.970    23092930.229
  23630700.264    -9357363.94243  -7283637.07242  23630701.774    23630699.565
  21093919.996   -22447327.89944 -17466241.83942  21093921.766    21093918.612
  20286310.726   -29080610.95944 -22645914.15042  20286312.974    20286308.369
  22208806.567   -20502593.24143 -15924676.71942  22208807.088    22208804.974
  24023944.138    -5426341.60043  -4218005.72242  24023946.013    24023945.128
  22363124.060   -18114133.69543 -13626083.94342  22363126.035    22363120.622
  23382345.967   -10784011.88043  -7974146.16242  23382347.396    23382346.734
 04  7 22  0 49 30.0000000  0  9G 3G19G27G13G28G 8G10G23G 1
  23091243.981   -13828136.60243 -10761098.48942  23091245.824    23091244.268
  23617202.632    -9428293.87943  -7338907.03042  23617204.148    23617201.666
  21088650.345   -22475020.15644 -17487820.18742  21088652.120    21088648.946
  20289472.871   -29063994.13744 -22632965.97042  20289475.037    20289470.411
  24771834.160    -2256533.53653  -1746601.90152  24771836.467    24771837.104
  22195757.613   -20571166.51443 -15978110.38642  22195758.145    22195755.853
  24010437.806    -5497317.14743  -4273311.27742  24010439.773    24010438.632
  22379393.533   -18028637.37443 -13559463.46342  22379395.459    22379390.109
  23399371.497   -10694543.31843  -7904430.46142  23399372.804    23399372.320
 04  7 22  0 50  0.0000000  0  9G 3G19G27G13G28G 8G10G23G 1
  23089664.340   -13836437.57443 -10767566.73442  23089666.138    23089664.713
  23603758.580    -9498943.15643  -7393958.36842  23603760.081    23603757.099
  21083416.622   -22502523.98444 -17509251.72142  21083418.360    21083415.173
  20292723.387   -29046912.54444 -22619655.63942  20292725.547    20292720.883
  24751758.342    -2362029.85543  -1828806.65642  24751760.782    24751761.739
  22182744.477   -20639550.95543 -16031396.89442  22182744.976    22182742.591
  23997016.192    -5567847.86743  -4328270.22342  23997018.194    23997017.059
  22395719.719   -17942845.08143 -13492612.38542  22395721.535    22395715.877
  23416440.618   -10604844.79343  -7834535.54942  23416441.939    23416441.603
 04  7 22  0 50 30.0000000  0  9G 3G19G27G13G28G 8G10G23G 1
  23088190.307   -13844184.87943 -10773603.58142  23088191.916    23088190.252
  23590367.203    -9569316.00543  -7448794.28842  23590368.758    23590365.628
  21078217.318   -22529846.29844 -17530541.81242  21078219.074    21078215.942
  20296061.162   -29029372.22444 -22605987.86342  20296063.329    20296058.711
  24731700.241    -2467434.17943  -1910939.73542  24731702.720    24731704.000
  22169765.742   -20707752.55643 -16084540.95742  22169766.438    22169764.271
  23983678.572    -5637938.24543  -4382886.07942  23983680.465    23983679.368
  22412100.150   -17856764.66943 -13425536.78042  22412102.097    22412096.605
  23433552.207   -10514923.86843  -7764467.38142  23433553.564    23433553.320
 04  7 22  0 51  0.0000000  0  9G 3G19G27G13G28G 8G10G23G 1
  23086820.640   -13851380.76443 -10779210.73742  23086822.409    23086820.776
  23577028.076    -9639412.52843  -7503414.84542  23577029.698    23577026.916
  21073051.923   -22556990.02544 -17551692.73342  21073053.719    21073050.576
  20299485.767   -29011375.82944 -22591964.70742  20299487.933    20299483.322
  24711659.540    -2572747.70743  -1993002.04842  24711661.970    24711663.740
  22156821.753   -20775774.29443 -16137544.84742  22156822.189    22156820.056
  23970424.383    -5707588.97043  -4437159.30242  23970426.390    23970425.178
  22428534.623   -17770400.50043 -13358240.05342  22428536.589    22428531.116
  23450705.065   -10424784.66643  -7694229.13242  23450706.531    23450706.454
 04  7 22  0 51 30.0000000  0  9G 3G19G27G13G28G 8G10G23G 1
  23085556.525   -13858023.92543 -10784387.20742  23085558.190    23085556.772
  23563742.123    -9709229.07043  -7557817.22242  23563743.691    23563741.346
  21067920.551   -22583954.87644 -17572704.28742  21067922.317    21067919.368
  20302997.257   -28992922.49844 -22577585.49042  20302999.478    20302994.848
  24691637.001    -2677968.22043  -2074991.83542  24691639.157    24691640.928
  22143911.681   -20843615.53543 -16190408.11642  22143912.277    22143910.184
  23957254.265    -5776797.20743  -4491087.73042  23957256.055    23957255.234
  22445023.152   -17683752.97043 -13290722.52442  22445025.054    22445019.595
  23467899.563   -10334427.88243  -7623821.33142  23467901.055    23467900.823
 04  7 22  0 52  0.0000000  0  9G 3G19G27G13G28G 8G10G23G 1
  23084398.202   -13864110.09443 -10789129.64242  23084399.977    23084398.481
  23550511.015    -9778759.23743  -7611996.46742  23550512.446    23550509.854
  21062824.198   -22610737.14644 -17593573.55042  21062825.890    21062822.731
  20306596.582   -28974007.98044 -22562846.89842  20306598.769    20306594.171
  24671632.669    -2783090.36443  -2156904.97442  24671635.097    24671636.676
  22131037.155   -20911272.28943 -16243127.60742  22131037.602    22131035.455
  23944169.675    -5845556.97443  -4544666.70742  23944171.220    23944170.327
  22461565.995   -17596819.81443 -13222982.48242  22461567.922    22461562.601
  23485135.762   -10243850.93143  -7553241.95942  23485137.312    23485136.927
 04  7 22  0 52 30.0000000  0  9G 3G19G27G13G28G 8G10G23G 1
  23083345.315   -13869642.75443 -10793440.78742  23083347.054    23083345.527
  23537333.956    -9848004.75543  -7665953.93142  23537335.509    23537332.409
  21057761.545   -22637341.52844 -17614304.23042  21057763.262    21057760.191
  20310282.820   -28954636.42644 -22547752.17442  20310285.033    20310280.463
  24651646.903    -2888116.71643  -2238743.49142  24651649.100    24651650.613
  22118196.936   -20978748.25043 -16295706.26042  22118197.484    22118195.225
  23931170.166    -5913870.92143  -4597898.28842  23931171.437    23931170.364
  22478162.105   -17509606.60543 -13155024.17142  22478163.975    22478158.971
  23502413.009   -10153059.36643  -7482495.33042  23502414.434    23502414.234
 04  7 22  0 53  0.0000000  0  9G 3G19G27G13G28G 8G10G23G 1
  23082398.198   -13874620.55343 -10797319.55942  23082399.782    23082398.405
  23524211.851    -9916961.76143  -7719686.58242  23524213.433    23524210.180
  21052732.948   -22663767.20044 -17634895.63342  21052734.692    21052731.463
  20314056.267   -28934806.95444 -22532300.63342  20314058.482    20314053.914
  24631679.725    -2993044.80143  -2320505.40542  24631681.934    24631683.313
  22105391.351   -21046043.46243 -16348144.03842  22105391.813    22105389.335
  23918255.838    -5981736.09443  -4650780.18842  23918257.259    23918256.058
  22494811.633   -17422113.76643 -13086847.96542  22494813.362    22494808.191
  23519730.964   -10062053.68043  -7411581.87742  23519732.445    23519732.278
 04  7 22  0 53 30.0000000  0  9G 3G19G27G13G28G 8G10G23G 1
  23081557.231   -13879038.99643 -10800762.44742  23081559.000    23081557.587
  23511146.020    -9985623.90443  -7773189.43242  23511147.467    23511144.112
  21047738.996   -22690010.68844 -17655345.09042  21047740.753    21047737.489
  20317917.682   -28914515.13944 -22516488.82242  20317919.936    20317915.299
  24611732.206    -3097869.16743  -2402186.49942  24611734.303    24611735.670
  22092620.591   -21113153.30143 -16400437.37942  22092621.113    22092618.764
  23905428.322    -6049146.66943  -4703307.80542  23905429.578    23905428.291
  22511514.559   -17334338.80243 -13018451.92042  22511516.390    22511511.005
  23537089.990    -9970831.17143  -7340499.47142  23537091.555    23537091.255
 04  7 22  0 54  0.0000000  0  9G 3G19G27G13G28G 8G10G23G 1
  23080822.352   -13882900.59143 -10803771.47642  23080824.156    23080822.610
  23498136.100   -10053991.36743  -7826462.72942  23498137.608    23498134.098
  21042778.943   -22716075.18344 -17675655.06842  21042780.744    21042777.474
  20321866.489   -28893763.80644 -22500318.95942  20321868.754    20321864.130
  24591804.044    -3202591.07743  -2483787.74042  24591806.308    24591807.518
  22079884.339   -21180080.76443 -16452588.60742  22079884.986    22079882.966
  23892686.425    -6116103.29543  -4755481.72342  23892688.076    23892687.134
  22528270.424   -17246286.05543 -12949839.43442  22528272.304    22528266.879
  23554489.676    -9879396.04643  -7269251.40942  23554491.244    23554490.707
 04  7 22  0 54 30.0000000  0  9G 3G19G27G13G28G 8G10G23G 1
  23080194.041   -13886202.93243 -10806344.72342  23080195.810    23080194.237
  23485183.013   -10122059.73343  -7879502.90142  23485184.608    23485181.117
  21037853.404   -22741958.82844 -17695824.13142  21037855.169    21037851.911
  20325903.195   -28872551.03844 -22483789.53142  20325905.454    20325900.830
  24571895.972    -3307207.00343  -2565306.41942  24571898.420    24571899.380
  22067183.720   -21246824.25743 -16504596.45342  22067184.134    22067182.157
  23880031.884    -6182602.30143  -4807299.05842  23880033.467    23880033.016
  22545079.537   -17157955.12643 -12881010.18142  22545081.359    22545075.787
  23571929.760    -9787747.88743  -7197837.30942  23571931.247    23571930.915
 04  7 22  0 55  0.0000000  0  9G 3G19G27G13G28G 8G10G23G 1
  23079671.919   -13888945.70543 -10808481.89942  23079673.734    23079672.346
  23472286.974   -10189826.42443  -7932308.04742  23472288.581    23472285.502
  21032962.149   -22767662.11544 -17715852.65142  21032963.906    21032960.773
  20330027.700   -28850876.51044 -22466900.28242  20330030.014    20330025.345
  24552008.520    -3411715.76743  -2646741.59442  24552010.823    24552011.721
  22054517.920   -21313382.97343 -16556460.34942  22054518.384    22054516.360
  23867465.184    -6248642.20443  -4858758.63942  23867466.589    23867466.001
  22561940.919   -17069347.55443 -12811965.38742  22561942.887    22561937.414
  23589410.324    -9695887.94643  -7126258.22342  23589411.690    23589411.522
 04  7 22  0 55 30.0000000  0  9G 3G19G27G13G28G 8G10G23G 1
  23079256.351   -13891131.24043 -10810184.92142  23079258.038    23079256.479
  23459448.956   -10257291.48643  -7984878.14542  23459450.429    23459447.158
  21028104.831   -22793188.23244 -17735743.11842  21028106.505    21028103.246
  20334239.640   -28828742.90944 -22449653.31642  20334241.917    20334237.198
  24532141.195    -3516118.52443  -2728094.17342  24532143.591    24532144.313
  22041886.701   -21379760.36743 -16608182.93642  22041887.212    22041884.912
  23854985.038    -6314223.85643  -4909861.17542  23854986.781    23854985.957
  22578854.155   -16980467.53043 -12742708.27142  22578856.161    22578851.068
  23606930.270    -9603820.42043  -7054517.35542  23606931.683    23606931.398
 04  7 22  0 56  0.0000000  0  9G 3G19G27G13G28G 8G10G23G 1
  23078947.141   -13892753.80343 -10811449.19142  23078949.028    23078947.697
  23446669.689   -10324447.07443  -8037207.08442  23446671.173    23446667.599
  21023282.114   -22818531.94444 -17755491.46042  21023283.798    21023280.552
  20338539.913   -28806144.92844 -22432044.49442  20338542.235    20338537.455
  24512295.499    -3620408.18743  -2809358.63842  24512297.812    24512298.568
  22029291.054   -21445950.92443 -16659759.93442  22029291.478    22029289.107
  23842593.946    -6379339.97043  -4960600.89242  23842595.494    23842594.573
  22595820.263   -16891311.32443 -12673235.94842  22595822.193    22595817.152
  23624490.246    -9511541.30043  -6982611.61942  23624491.754    23624491.475
 04  7 22  0 56 30.0000000  0  9G 3G19G27G13G28G 8G10G23G 1
  23078745.367   -13893815.64143 -10812276.59342  23078747.202    23078745.417
  23433949.287   -10391293.29643  -8089294.94742  23433950.796    23433947.196
  21018493.515   -22843696.15144 -17775099.91642  21018495.244    21018491.954
  20342928.064   -28783084.91644 -22414075.64842  20342930.410    20342925.626
  24492471.010    -3724586.09643  -2890536.01842  24492473.225    24492473.880
  22016730.203   -21511957.43643 -16711193.52342  22016730.670    22016728.425
  23830290.848    -6443991.07643  -5010978.29442  23830292.564    23830291.832
  22612837.994   -16801882.73743 -12603551.39542  22612839.936    22612834.872
  23642089.972    -9419054.54043  -6910544.11442  23642091.494    23642091.091
 04  7 22  0 57  0.0000000  0  9G 3G19G27G13G28G 8G10G23G 1
  23078650.130   -13894315.13443 -10812665.78342  23078652.058    23078650.374
  23421288.167   -10457825.70743  -8141138.33242  23421289.662    23421286.472
  21013739.262   -22868679.48144 -17794567.43342  21013741.020    21013737.876
  20347404.453   -28759561.20844 -22395745.47942  20347406.810    20347402.051
  24472668.048    -3828648.92943  -2971623.73542  24472670.419    24472670.989
  22004205.217   -21577777.42543 -16762481.75842  22004205.640    22004203.182
  23818077.160    -6508173.89243  -5060990.77842  23818078.705    23818078.126
  22629907.378   -16712181.83743 -12533654.65842  22629909.279    22629904.329
  23659728.954    -9326359.98043  -6838314.63242  23659730.633    23659730.822
 04  7 22  0 57 30.0000000  0  9G 3G19G27G13G28G 8G10G23G 1
  23078661.414   -13894256.04543 -10812619.71142  23078663.285    23078661.628
  23408687.078   -10524046.19643  -8192738.61042  23408688.540    23408685.017
  21009018.496   -22893486.62344 -17813897.65442  21009020.246    21009017.152
  20351968.298   -28735578.33544 -22377057.51842  20351970.649    20351965.782
  24452886.491    -3932599.61843  -3052624.08442  24452888.902    24452889.451
  21991714.608   -21643415.90543 -16813628.58642  21991715.080    21991712.482
  23805952.487    -6571890.97543  -5110640.37442  23805953.809    23805953.237
  22647027.483   -16622214.48843 -12463550.27442  22647029.292    22647024.362
  23677406.803    -9233463.28943  -6765927.67642  23677408.440    23677408.663
 04  7 22  0 58  0.0000000  0  9G 3G19G27G13G28G 8G10G23G 1
  23078780.654   -13893629.46243 -10812131.43242  23078782.467    23078780.788
  23396147.354   -10589943.43043  -8244087.06042  23396148.828    23396145.259
  21004333.013   -22918109.10244 -17833083.99042  21004334.679    21004331.654
  20356621.155   -28711127.29444 -22358004.75642  20356623.505    20356618.637
  24433128.514    -4036427.98343  -3133529.12042  24433130.797    24433131.341
  21979260.098   -21708863.87943 -16864626.94042  21979260.675    21979258.239
  23793918.258    -6635132.01143  -5159919.03842  23793919.511    23793919.062
  22664200.015   -16531973.50243 -12393232.68142  22664201.796    22664196.575
  23695124.183    -9140357.29143  -6693377.67142  23695125.818    23695126.169
 04  7 22  0 58 30.0000000  0  9G 3G19G27G13G28G 8G10G23G 1
  23079006.725   -13892441.89143 -10811206.03442  23079008.466    23079006.804
  23383667.849   -10655522.06743  -8295187.20642  23383669.458    23383666.106
  20999681.300   -22942553.98344 -17852131.94342  20999682.933    20999679.857
  20361361.700   -28686215.24344 -22338592.77442  20361364.053    20361359.258
  24413392.897    -4140139.43043  -3214343.03742  24413395.056    24413395.519
  21966840.743   -21774128.27743 -16915482.24242  21966841.254    21966839.138
  23781973.252    -6697902.00043  -5208830.60942  23781974.872    23781974.131
  22681422.852   -16441467.23943 -12322708.34942  22681424.644    22681419.451
  23712879.912    -9047050.19543  -6620670.91142  23712881.448    23712881.907
 04  7 22  0 59  0.0000000  0  9G 3G19G27G13G28G 8G10G23G 1
  23079340.028   -13890689.27143 -10809840.31042  23079341.871    23079340.302
  23371250.460   -10720775.27243  -8346033.76642  23371252.065    23371248.661
  20995064.229   -22966817.52444 -17871038.58342  20995065.832    20995062.656
  20366190.758   -28660838.01944 -22318818.32342  20366193.118    20366188.361
  24393680.514    -4243728.19643  -3295061.35842  24393682.601    24393682.887
  21954456.993   -21839204.88743 -16966191.23742  21954457.502    21954455.441
  23770119.344    -6760195.18443  -5257370.67142  23770121.048    23770120.192
  22698696.356   -16350693.15443 -12251975.34542  22698698.140    22698693.137
  23730674.579    -8953539.55643  -6547805.58342  23730675.838    23730676.258
 04  7 22  0 59 30.0000000  0  9G 3G19G27G13G28G 8G10G23G 1
  23079781.151   -13888371.56543 -10808034.30742  23079782.922    23079781.291
  23358895.587   -10785700.76943  -8396625.00042  23358897.129    23358893.723
  20990481.372   -22990900.38544 -17889804.44842  20990483.024    20990479.874
  20371108.387   -28634995.85944 -22298681.56642  20371110.716    20371105.939
  24373991.593    -4347193.15243  -3375683.20242  24373993.666    24373993.707
  21942108.901   -21904094.03143 -17016754.13242  21942109.302    21942107.202
  23758356.261    -6822009.97743  -5305537.98042  23758357.932    23758357.119
  22716020.725   -16259653.02143 -12181035.07142  22716022.500    22716017.503
  23748507.248    -8859826.79243  -6474782.72442  23748508.646    23748509.420
 04  7 22  1  0  0.0000000  0  9G 3G19G27G13G28G 8G10G23G 1
  23080329.080   -13885491.88143 -10805790.38542  23080330.806    23080329.402
  23346602.828   -10850299.27143  -8446961.40142  23346604.397    23346601.101
  20985932.222   -23014806.06644 -17908432.22942  20985933.940    20985930.765
  20376113.721   -28608692.21544 -22278185.22942  20376116.047    20376111.378
  24354325.993    -4450536.26643  -3456210.06542  24354328.029    24354327.861
  21929795.928   -21968799.05443 -17067173.58442  21929796.345    21929793.856
  23746683.780    -6883348.03243  -5353333.80642  23746685.344    23746684.698
  22733394.931   -16168351.89343 -12109891.38842  22733396.698    22733391.423
  23766378.254    -8765916.80543  -6401606.18542  23766379.510    23766380.232
 04  7 22  1  0 30.0000000  0  9G 3G19G27G13G28G 8G10G23G 1
  23080984.746   -13882044.97243 -10803104.44042  23080986.584    23080985.297
  23334373.970   -10914563.28943  -8497037.19842  23334375.472    23334371.839
  20981417.744   -23038529.65144 -17926918.13442  20981419.438    20981416.413
  20381207.967   -28581921.85244 -22257325.20942  20381210.243    20381205.629
  24334684.765    -4553750.84243  -3536636.76642  24334686.885    24334686.745
  21917519.047   -22033315.04643 -17117445.74242  21917519.546    21917516.894
  23735103.546    -6944202.55143  -5400752.83342  23735104.931    23735104.398
  22750819.653   -16076786.18143 -12038541.53942  22750821.443    22750816.101
  23784286.986    -8671805.87543  -6328273.12442  23784288.281    23784289.138
 04  7 22  1  1  0.0000000  0  9G 3G19G27G13G28G 8G10G23G 1
  23081748.249   -13878034.73943 -10799979.59942  23081749.867    23081748.425
  23322208.153   -10978494.37343  -8546853.56142  23322209.697    23322205.916
  20976937.106   -23062075.37344 -17945265.43542  20976938.832    20976935.753
  20386390.247   -28554688.92544 -22236104.74542  20386392.514    20386387.842
  24315067.687    -4656839.30443  -3616965.20042  24315069.969    24315069.712
  21905277.571   -22097645.85143 -17167573.58242  21905277.969    21905275.347
  23723614.737    -7004575.79543  -5447796.84442  23723616.153    23723615.681
  22768293.504   -15984961.33343 -11966989.76242  22768295.384    22768289.808
  23802233.096    -8577499.44143  -6254787.64342  23802234.451    23802235.112
 04  7 22  1  1 30.0000000  0  9G 3G19G27G13G28G 8G10G23G 1
  23082618.982   -13873456.85143 -10796412.40742  23082620.758    23082619.570
  23310106.903   -11042085.54643  -8596404.99342  23310108.490    23310104.891
  20972491.129   -23085439.10344 -17963470.92542  20972492.839    20972489.789
  20391661.352   -28526989.16344 -22214520.52242  20391663.583    20391658.946
  24295475.601    -4759795.87943  -3697190.89542  24295477.897    24295477.705
  21893071.708   -22161786.27443 -17217553.08642  21893072.424    21893070.095
  23712219.204    -7064461.57443  -5494461.00542  23712220.391    23712219.619
  22785816.730   -15892874.60543 -11895233.91642  22785818.713    22785813.333
  23820216.790    -8482994.49343  -6181147.49542  23820218.242    23820219.027
 04  7 22  1  2  0.0000000  0  9G 3G19G27G13G28G 8G10G23G 1
  23083598.101   -13868312.87443 -10792404.11042  23083599.746    23083598.308
  23298070.611   -11105336.02243  -8645691.01742  23298072.169    23298068.901
  20968079.372   -23108622.94144 -17981536.24242  20968081.055    20968077.991
  20397020.932   -28498824.28644 -22192573.87242  20397023.197    20397018.580
  24275908.701    -4862620.86943  -3777314.07342  24275910.920    24275910.504
  21880901.918   -22225738.92243 -17267386.26242  21880902.543    21880900.247
  23700915.685    -7123860.21243  -5540745.60842  23700917.191    23700916.244
  22803389.586   -15800529.32243 -11823276.63042  22803391.421    22803386.127
  23838237.841    -8388294.29943  -6107355.25242  23838239.295    23838239.886
 04  7 22  1  2 30.0000000  0  9G 3G19G27G13G28G 8G10G23G 1
  23084685.173   -13862599.77343 -10787952.32442  23084686.924    23084685.509
  23286100.273   -11168240.54943  -8694707.43242  23286101.840    23286098.560
  20963702.393   -23131624.11744 -17999459.21742  20963704.082    20963700.989
  20402469.664   -28470191.62144 -22170262.70842  20402471.889    20402467.189
  24256367.493    -4965309.82043  -3857331.26242  24256369.703    24256369.118
  21868768.252   -22289500.48543 -17317070.54642  21868768.783    21868766.559
  23689706.116    -7182767.15643  -5586647.04742  23689707.537    23689706.855
  22821011.646   -15707923.97343 -11751116.68942  22821013.402    22821008.506
  23856295.894    -8293397.61043  -6033409.79742  23856297.486    23856297.816
 04  7 22  1  3  0.0000000  0  9G 3G19G27G13G28G 8G10G23G 1
  23085879.952   -13856320.95843 -10783059.73242  23085881.630    23085880.421
  23274195.278   -11230799.82943  -8743454.82842  23274196.924    23274193.745
  20959359.465   -23154446.16244 -18017242.62342  20959361.158    20959358.091
  20408006.618   -28441094.38344 -22147589.55042  20408008.867    20408004.231
  24236851.515    -5067864.54543  -3937243.87442  24236853.885    24236853.197
  21856670.304   -22353074.29943 -17366608.54742  21856670.791    21856668.560
  23678589.319    -7241183.80243  -5632166.46042  23678590.902    23678590.314
  22838682.178   -15615063.58443 -11678758.00242  22838683.965    22838679.253
  23874390.756    -8198308.97043  -5959314.89142  23874392.131    23874392.330
 04  7 22  1  3 30.0000000  0  9G 3G19G27G13G28G 8G10G23G 1
  23087182.587   -13849476.30243 -10777726.23542  23087184.193    23087182.772
  23262357.028   -11293011.08643  -8791931.08242  23262358.447    23262355.254
  20955050.691   -23177088.96644 -18034886.35242  20955052.354    20955049.216
  20413632.147   -28411532.43544 -22124554.26842  20413634.349    20413629.712
  24217361.508    -5170283.18943  -4017050.45742  24217364.007    24217363.157
  21844608.597   -22416460.00043 -17415999.95642  21844608.935    21844606.461
  23667566.977    -7299108.49343  -5677302.49742  23667568.239    23667567.364
  22856401.272   -15521949.63043 -11606201.75942  22856402.960    22856398.083
  23892522.088    -8103029.83443  -5885071.48842  23892523.467    23892523.582
 04  7 22  1  4  0.0000000  0  9G 3G19G27G13G28G 8G10G23G 1
  23088593.594   -13842060.73743 -10771947.82842  23088595.267    23088593.949
  23250586.164   -11354866.77943  -8840130.27142  23250587.740    23250584.542
  20950776.950   -23199547.65244 -18052386.62242  20950778.620    20950775.517
  20419346.959   -28381500.79544 -22101152.99442  20419349.219    20419344.559
  24197899.025    -5272559.39443  -4096746.02142  24197901.377    24197900.494
  21832583.548   -22479652.41143 -17465240.76442  21832583.877    21832581.361
  23656639.087    -7356534.33443  -5722049.88142  23656640.483    23656639.527
  22874169.193   -15428578.59243 -11533445.12342  22874170.875    22874165.863
  23910689.795    -8007556.35543  -5810676.57642  23910691.293    23910691.482
 04  7 22  1  4 30.0000000  0  9G 3G19G27G13G28G 8G10G23G 1
  23090111.963   -13834081.86143 -10765730.52242  23090113.679    23090112.400
  23238882.038   -11416372.16943  -8888056.45642  23238883.657    23238880.399
  20946536.734   -23221830.16944 -18069749.61042  20946538.410    20946535.202
  20425149.652   -28351007.45744 -22077391.95942  20425151.902    20425147.326
  24178462.434    -5374699.19243  -4176335.27942  24178464.715    24178464.008
  21820593.786   -22542659.17443 -17514336.90942  21820594.255    21820591.562
  23645805.272    -7413467.49043  -5766413.29942  23645806.584    23645805.481
  22891984.578   -15334959.46643 -11460495.22542  22891986.320    22891981.190
  23928893.241    -7911897.81643  -5736137.55742  23928894.938    23928894.790
 04  7 22  1  5  0.0000000  0  9G 3G19G27G13G28G 8G10G23G 1
  23091739.160   -13825531.54843 -10759067.93842  23091740.716    23091739.188
  23227246.467   -11477516.75143  -8935701.50942  23227248.002    23227244.784
  20942331.560   -23243928.63744 -18086969.18942  20942333.186    20942330.007
  20431041.839   -28320044.49544 -22053264.97442  20431044.126    20431039.414
  24159053.493    -5476693.18343  -4255810.92842  24159055.794    24159055.105
  21808641.019   -22605472.53343 -17563282.35942  21808641.466    21808638.607
  23635066.301    -7469898.21943  -5810385.26042  23635067.871    23635067.089
  22909848.064   -15241086.10043 -11387347.18942  22909849.890    22909844.990
  23947133.162    -7816047.47443  -5661449.11742  23947134.866    23947134.736
 04  7 22  1  5 30.0000000  0  9G 3G19G27G13G28G 8G10G23G 1
  23093473.718   -13816416.23443 -10751965.08342  23093475.255    23093473.832
  23215678.899   -11538304.29143  -8983068.37442  23215680.419    23215677.125
  20938160.093   -23265849.45244 -18104050.33642  20938161.745    20938158.619
  20437022.004   -28288618.24444 -22028776.99442  20437024.329    20437019.627
  24139671.380    -5578546.09343  -4335176.66442  24139673.681    24139672.961
  21796723.544   -22668097.85743 -17612081.27242  21796724.110    21796721.431
  23624422.871    -7525831.32543  -5853969.41842  23624424.270    23624423.083
  22927758.623   -15146965.98343 -11314006.91142  22927760.395    22927755.940
  23965407.484    -7720013.00843  -5586617.13542  23965409.331    23965409.556
 04  7 22  1  6  0.0000000  0  9G 3G19G27G13G28G 8G10G23G 1
  23095316.770   -13806729.87043 -10744417.25042  23095318.457    23095317.324
  23204181.239   -11598725.96943  -9030150.15042  23204182.684    23204179.289
  20934023.681   -23287586.60444 -18120988.35842  20934025.335    20934022.165
  20443091.543   -28256722.75744 -22003923.38042  20443093.872    20443089.159
  24120317.730    -5680250.15543  -4414426.41442  24120319.804    24120319.134
  21784843.021   -22730529.66043 -17660729.38742  21784843.575    21784841.073
  23613875.023    -7581258.93643  -5897159.75242  23613876.546    23613875.302
  22945717.040   -15052594.78843 -11240471.00042  22945718.798    22945714.149
  23983718.388    -7623790.04043  -5511638.25142  23983720.045    23983720.432
 04  7 22  1  6 30.0000000  0  9G 3G19G27G13G28G 8G10G23G 1
  23097268.200   -13796477.04743 -10736428.05542  23097269.651    23097268.180
  23192752.320   -11658784.16643  -9076948.65042  23192753.898    23192750.658
  20929921.277   -23309144.69644 -18137786.86442  20929922.940    20929919.833
  20449249.485   -28224362.71444 -21978707.76842  20449251.840    20449247.076
  24100991.690    -5781808.64443  -4493562.74542  24100993.723    24100993.014
  21772998.693   -22792772.24443 -17709230.07142  21772999.160    21772996.537
  23603423.272    -7636184.10843  -5939958.55042  23603424.678    23603423.190
  22963722.067   -14957978.66543 -11166744.22142  22963723.869    22963719.085
  24002064.027    -7527384.44243  -5436517.17542  24002065.561    24002065.931
 04  7 22  1  7  0.0000000  0  9G 3G19G27G13G28G 8G10G23G 1
  23099327.043   -13785654.88043 -10727995.19542  23099328.948    23099327.641
  23181393.631   -11718473.17643  -9123459.51242  23181395.175    23181391.910
  20925853.552   -23330520.82744 -18154443.57142  20925855.212    20925852.092
  20455496.343   -28191534.82744 -21953127.60842  20455498.689    20455493.996
  24081693.967    -5883216.96843  -4572582.08742  24081696.031    24081695.590
  21761190.858   -22854821.96843 -17757580.47642  21761191.336    21761188.675
  23593067.736    -7690602.10043  -5982362.12442  23593069.146    23593067.703
  22981773.871   -14863115.98743 -11092825.27742  22981775.770    22981770.768
  24020444.301    -7430794.58943  -5361252.38342  24020445.929    24020446.090
 04  7 22  1  7 30.0000000  0  9G 3G19G27G13G28G 8G10G23G 1
  23101495.292   -13774264.05643 -10719119.22942  23101496.751    23101495.300
  23170106.159   -11777791.10843  -9169681.23042  23170107.574    23170103.921
  20921820.328   -23351715.65644 -18170959.01842  20921821.989    20921818.866
  20461832.059   -28158240.16144 -21927183.71842  20461834.367    20461829.743
  24062425.452    -5984473.94843  -4651483.50042  24062427.322    24062426.846
  21749419.655   -22916679.83843 -17805781.38542  21749420.058    21749417.610
  23582809.060    -7744512.09143  -6024369.86342  23582810.498    23582809.190
  22999872.128   -14768009.00543 -11018715.98442  22999874.046    22999869.106
  24038859.863    -7334022.59843  -5285845.66942  24038861.436    24038861.590
 04  7 22  1  8  0.0000000  0  9G 3G19G27G13G28G 8G10G23G 1
  23103770.744   -13762302.95643 -10709798.87642  23103772.595    23103771.014
  23158889.520   -11836734.01943  -9215610.67542  23158891.026    23158887.446
  20917821.880   -23372727.74844 -18187332.05642  20917823.546    20917820.353
  20468256.864   -28124477.49844 -21900875.13842  20468259.225    20468254.527
  24043186.163    -6085576.60843  -4730264.65142  24043188.210    24043187.546
  21737685.639   -22978343.53143 -17853830.98442  21737686.018    21737683.442
  23572647.732    -7797910.79543  -6065979.19142  23572649.202    23572647.925
  23018016.877   -14672657.54143 -10944416.23242  23018018.694    23018013.686
  24057309.650    -7237068.03443  -5210296.91742  24057311.164    24057311.750
 04  7 22  1  8 30.0000000  0  9G 3G19G27G13G28G 8G10G23G 1
  23106154.568   -13749777.55843 -10700038.85142  23106156.252    23106154.594
  23147743.832   -11895304.97243  -9261250.29642  23147745.295    23147741.663
  20913856.969   -23393562.96144 -18203567.27542  20913858.679    20913855.466
  20474769.567   -28090252.67144 -21874206.45742  20474771.902    20474767.290
  24023975.297    -6186529.18843  -4808928.86142  24023977.587    24023976.875
  21725987.199   -23039819.08443 -17901733.98442  21725987.667    21725985.133
  23562582.564    -7850802.90643  -6107193.80842  23562584.103    23562582.766
  23036206.789   -14577069.15743 -10869931.85542  23036208.493    23036203.484
  24075792.838    -7139938.64343  -5134611.73042  24075794.192    24075795.319
 04  7 22  1  9  0.0000000  0  9G 3G19G27G13G28G 8G10G23G 1
  23108647.277   -13736676.97443 -10689830.59442  23108649.200    23108647.536
  23136671.530   -11953490.43643  -9306589.56142  23136672.963    23136669.200
  20909927.953   -23414210.10644 -18219655.95042  20909929.631    20909926.403
  20481372.434   -28055554.57044 -21847168.99442  20481374.672    20481370.108
  24004795.502    -6287318.80143  -4887466.06042  24004797.773    24004797.131
  21714326.661   -23101094.81643 -17949481.26342  21714327.110    21714324.663
  23552616.426    -7903175.13343  -6148003.31442  23552617.780    23552616.378
  23054443.326   -14481234.07443 -10795255.20742  23054445.139    23054440.297
  24094310.848    -7042624.13643  -5058782.31242  24094312.072    24094313.568
 04  7 22  1  9 30.0000000  0  9G 3G19G27G13G28G 8G10G23G 1
  23111247.805   -13723011.99343 -10679182.55342  23111249.708    23111247.864
  23125670.839   -12011298.67743  -9351634.88642  23125672.312    23125668.537
  20906032.753   -23434679.83144 -18235606.37542  20906034.411    20906031.104
  20488063.269   -28020393.98144 -21819771.14442  20488065.525    20488060.961
  23985645.329    -6387954.71243  -4965883.49042  23985647.402    23985646.397
  21702702.059   -23162181.57643 -17997081.29742  21702702.493    21702700.393
  23542747.465    -7955036.77643  -6188414.92842  23542748.699    23542747.531
  23072724.897   -14385164.59343 -10720395.93642  23072726.569    23072721.840
  24112862.409    -6945136.81643  -4982818.31642  24112863.576    24112864.979
 04  7 22  1 10  0.0000000  0  9G 3G19G27G13G28G 8G10G23G 1
  23113956.696   -13708777.36143 -10668090.64142  23113958.485    23113956.720
  23114743.396   -12068721.65443  -9396379.99442  23114744.867    23114741.316
  20902172.270   -23454966.77144 -18251414.37542  20902173.938    20902170.645
  20494843.065   -27984765.60844 -21792008.78642  20494845.323    20494840.765
  23966525.435    -6488429.94343  -5044175.72142  23966527.617    23966526.203
  21691114.904   -23223073.35043 -18044529.39642  21691115.303    21691113.009
  23532977.106    -8006380.71643  -6228423.15542  23532978.362    23532977.206
  23091051.695   -14288856.68843 -10645350.88342  23091053.257    23091048.791
  24131447.542    -6847472.50943  -4906716.33742  24131448.823    24131449.570
 04  7 22  1 10 30.0000000  0  9G 3G19G27G13G28G 8G10G23G 1
  23116773.317   -13693973.78143 -10656555.37342  23116775.320    23116773.634
  23103889.793   -12125757.44443  -9440823.39142  23103891.190    23103887.752
  20898346.465   -23475071.42644 -18267080.33442  20898348.136    20898344.836
  20501711.815   -27948670.21744 -21763882.51442  20501714.059    20501709.501
  23947436.207    -6588743.14243  -5122341.70942  23947438.524    23947436.837
  21679564.801   -23283770.66743 -18091825.96342  21679565.145    21679562.671
  23523305.276    -8057206.07043  -6268027.31842  23523306.570    23523305.526
  23109423.556   -14192312.36743 -10570121.62042  23109425.100    23109420.890
  24150065.734    -6749633.13243  -4830477.93942  24150067.125    24150066.975
 04  7 22  1 11  0.0000000  0  9G 3G19G27G13G28G 8G10G23G 1
  23119698.286   -13678604.81943 -10644579.57642  23119700.090    23119698.287
  23093110.080   -12182406.99843  -9484965.86342  23093111.362    23093107.681
  20894554.676   -23494997.15444 -18282606.86842  20894556.359    20894553.103
  20508668.747   -27912111.47144 -21735395.18542  20508670.984    20508666.487
  23928377.286    -6688896.35843  -5200383.03542  23928379.636    23928378.068
  21668050.641   -23344276.56243 -18138973.38342  21668051.152    21668048.392
  23513731.962    -8107514.72043  -6307228.80642  23513733.163    23513732.177
  23127839.427   -14095536.80543 -10494712.17042  23127840.953    23127836.986
  24168716.494    -6651623.76443  -4754107.08742  24168717.860    24168717.785
 04  7 22  1 11 30.0000000  0  9G 3G19G27G13G28G 8G10G23G 1
  23122731.930   -13662661.04143 -10632155.81942  23122733.869    23122732.304
  23082405.827   -12238657.94343  -9528797.74242  23082407.149    23082403.287
  20890798.899   -23514734.18444 -18297986.36942  20890800.567    20890797.265
  20515715.731   -27875079.37644 -21706539.02042  20515717.932    20515713.423
  23909350.877    -6788878.30043  -5278290.92242  23909353.061    23909351.967
  21656574.997   -23404580.94543 -18185963.78742  21656575.563    21656572.699
  23504258.909    -8157295.17143  -6346018.78242  23504260.150    23504258.975
  23146300.909   -13998521.59143 -10419115.97542  23146302.461    23146298.305
  24187400.771    -6553435.92843  -4677597.22442  24187402.143    24187402.843
 04  7 22  1 12  0.0000000  0  9G 3G19G27G13G28G 8G10G23G 1
  23125873.330   -13646154.63243 -10619293.73142  23125875.061    23125873.260
  23071775.291   -12294520.05043  -9572326.56242  23071776.753    23071772.931
  20887076.628   -23534294.65744 -18313228.29042  20887078.322    20887074.973
  20522850.366   -27837586.77044 -21677324.00942  20522852.560    20522847.989
  23890355.594    -6888699.44243  -5356073.49442  23890357.567    23890356.710
  21645135.651   -23464695.79943 -18232806.47642  21645136.079    21645133.087
  23494884.627    -8206558.19343  -6384405.51642  23494885.755    23494884.511
  23164805.352   -13901280.48043 -10343343.72842  23164806.965    23164802.755
  24206116.785    -6455083.10143  -4600958.81242  24206118.198    24206119.008
 04  7 22  1 12 30.0000000  0  9G 3G19G27G13G28G 8G10G23G 1
  23129122.703   -13629077.97143 -10605987.17542  23129124.510    23129122.955
  23061221.133   -12349982.93843  -9615544.33742  23061222.566    23061218.673
  20883389.607   -23553670.46144 -18328326.31642  20883391.284    20883387.920
  20530074.034   -27799625.86844 -21647744.08742  20530076.249    20530071.765
  23871392.642    -6988350.28043  -5433723.35442  23871394.740    23871393.853
  21633733.756   -23524612.59743 -18279494.86442  21633734.209    21633731.481
  23485610.204    -8255294.12343  -6422381.53742  23485611.503    23485610.326
  23183353.999   -13803806.88243 -10267390.30642  23183355.745    23183351.311
  24224865.641    -6356558.86043  -4524186.60742  24224867.177    24224867.017
 04  7 22  1 13  0.0000000  0  9G 3G19G27G13G28G 8G10G23G 1
  23132480.110   -13611436.38643 -10592240.49842  23132481.797    23132479.869
  23050742.295   -12405048.88643  -9658452.81142  23050743.780    23050740.087
  20879736.669   -23572866.59844 -18343284.33642  20879738.379    20879735.012
  20537385.804   -27761201.91344 -21617803.35442  20537388.013    20537383.648
  23852461.483    -7087834.37443  -5511243.27642  23852463.545    23852462.716
  21622368.707   -23584336.49443 -18326032.92442  21622369.190    21622366.423
  23476435.969    -8303506.71943  -6459949.74142  23476437.019    23476435.793
  23201945.391   -13706107.33343 -10191260.87242  23201947.013    23201942.814
  24243645.981    -6257869.46343  -4447285.95842  24243647.495    24243646.966
 04  7 22  1 13 30.0000000  0  9G 3G19G27G13G28G 8G10G23G 1
  23135945.604   -13593223.87843 -10578048.93542  23135947.406    23135945.535
  23040340.614   -12459709.30143  -9701045.26042  23040342.090    23040338.671
  20876119.170   -23591876.59844 -18358097.31142  20876120.913    20876117.535
  20544787.077   -27722308.34144 -21587496.68942  20544789.277    20544784.839
  23833563.696    -7187143.48643  -5588626.86242  23833565.722    23833564.776
  21611041.676   -23643860.52143 -18372415.25242  21611042.174    21611039.399
  23467362.592    -8351187.90443  -6497103.88942  23467363.866    23467362.315
  23220580.858   -13608177.04043 -10114951.61542  23220582.404    23220578.193
  24262458.506    -6159010.04543  -4370252.73842  24262460.120    24262459.646
 04  7 22  1 14  0.0000000  0  9G 3G19G27G13G28G 8G10G23G 1
  23139519.689   -13574443.52343 -10563414.86342  23139521.208    23139519.425
  23030016.169   -12513964.51943  -9743321.98642  23030017.629    23030014.272
  20872536.530   -23610703.23944 -18372767.41542  20872538.248    20872534.985
  20552277.045   -27682948.59344 -21556826.76842  20552279.268    20552274.717
  23814698.794    -7286278.99643  -5665875.16842  23814700.779    23814699.879
  21599751.943   -23703187.65143 -18418644.14142  21599752.449    21599749.884
  23458389.656    -8398339.51043  -6533845.38442  23458391.094    23458389.430
  23239259.505   -13510020.51043 -10038466.06642  23239260.997    23239257.168
  24281302.613    -6059984.84243  -4293090.26042  24281304.400    24281303.361
 04  7 22  1 14 30.0000000  0  9G 3G19G27G13G28G 8G10G23G 1
  23143200.934   -13555096.24943 -10548339.08042  23143202.826    23143201.028
  23019769.148   -12567812.83343  -9785281.67742  23019770.667    23019766.835
  20868988.734   -23629346.92744 -18387294.95542  20868990.417    20868987.156
  20559855.602   -27643123.22744 -21525794.03242  20559857.783    20559853.214
  23795867.164    -7385239.75543  -5742987.32142  23795869.147    23795868.127
  21588499.784   -23762317.61243 -18464719.39842  21588500.267    21588497.714
  23449517.798    -8444960.52543  -6570173.39442  23449519.079    23449517.891
  23257981.127   -13411639.78843  -9961805.82242  23257982.659    23257978.631
  24300177.835    -5960795.81243  -4215800.26142  24300179.732    24300178.451
 04  7 22  1 15  0.0000000  0  9G 3G19G27G13G28G 8G10G23G 1
  23146990.528   -13535183.37543 -10532822.54042  23146992.171    23146990.288
  23009599.841   -12621252.87843  -9826923.22342  23009601.329    23009597.305
  20865475.541   -23647808.67444 -18401680.72542  20865477.213    20865473.977
  20567522.500   -27602833.59844 -21494399.52342  20567524.717    20567520.134
  23777068.842    -7484025.45843  -5819963.08542  23777070.790    23777069.674
  21577285.013   -23821251.50543 -18510641.86142  21577285.405    21577282.966
  23440747.318    -8491050.22043  -6606087.42442  23440748.510    23440747.283
  23276744.359   -13313037.21143  -9884972.72542  23276746.006    23276742.227
  24319083.429    -5861445.41943  -4138384.49542  24319085.369    24319084.455
 04  7 22  1 15 30.0000000  0  9G 3G19G27G13G28G 8G10G23G 1
  23150887.676   -13514703.27443 -10516864.02542  23150889.523    23150887.666
  22999509.184   -12674280.20343  -9868243.17442  22999510.700    22999506.832
  20861997.429   -23666086.52344 -18415923.19542  20861999.092    20861995.796
  20575278.024   -27562078.05644 -21462641.96442  20575280.255    20575275.655
  23758304.477    -7582632.77343  -5896799.83442  23758306.386    23758305.064
  21566107.961   -23879987.01343 -18556409.75042  21566108.342    21566105.821
  23432078.733    -8536605.44843  -6641584.96342  23432079.803    23432078.263
  23295550.211   -13214212.71843  -9807966.68942  23295551.741    23295548.166
  24338020.067    -5761933.15443  -4060842.61742  24338021.798    24338021.230
 04  7 22  1 16  0.0000000  0  9G 3G19G27G13G28G 8G10G23G 1
  23154892.330   -13493659.11543 -10500465.96542  23154894.045    23154892.194
  22989496.630   -12726894.75843  -9909241.46242  22989498.199    22989494.791
  20858553.792   -23684182.88544 -18430024.25242  20858555.467    20858552.144
  20583121.545   -27520859.73944 -21430523.79842  20583123.786    20583119.244
  23739573.598    -7681062.34143  -5973498.07042  23739575.779    23739574.335
  21554968.322   -23938526.56443 -18602024.95342  21554968.690    21554966.042
  23423510.871    -8581627.57343  -6676667.10442  23423512.223    23423510.809
  23314397.229   -13115170.23743  -9730790.79842  23314398.771    23314394.842
  24356986.587    -5662263.05643  -3983177.67242  24356988.470    24356988.210
 04  7 22  1 16 30.0000000  0  9G 3G19G27G13G28G 8G10G23G 1
  23159004.757   -13472047.89443 -10483626.07642  23159006.503    23159004.670
  22979563.844   -12779090.98343  -9949913.77842  22979565.376    22979561.913
  20855145.447   -23702094.14944 -18443981.07642  20855147.098    20855143.740
  20591053.866   -27479175.35544 -21398042.47942  20591056.069    20591051.524
  23720877.645    -7779309.30743  -6050054.03442  23720879.843    23720878.319
  21543866.809   -23996866.65243 -18647484.72142  21543867.167    21543864.143
  23415046.020    -8626111.56443  -6711329.90942  23415047.189    23415045.834
  23333286.417   -13015908.04743  -9653443.73042  23333287.901    23333283.679
  24375983.722    -5562433.19543  -3905388.30642  24375985.563    24375985.124
 04  7 22  1 17  0.0000000  0  9G 3G19G27G13G28G 8G10G23G 1
  23163224.977   -13449870.49343 -10466344.95542  23163226.682    23163224.994
  22969711.633   -12830866.40543  -9990258.24942  22969713.070    22969709.122
  20851772.221   -23719820.37944 -18457793.71442  20851773.913    20851770.571
  20599074.808   -27437025.35844 -21365198.33042  20599077.076    20599072.405
  23702216.831    -7877372.10543  -6126466.45642  23702218.979    23702217.238
  21532803.103   -24055006.49343 -18692788.46942  21532803.601    21532800.576
  23406683.488    -8670056.36443  -6745572.58742  23406684.876    23406683.495
  23352217.043   -12916427.71943  -9575926.61042  23352218.528    23352214.063
  24395010.856    -5462444.93443  -3827475.48942  24395012.624    24395012.440
 04  7 22  1 17 30.0000000  0  9G 3G19G27G13G28G 8G10G23G 1
  23167552.868   -13427127.93443 -10448623.51242  23167554.569    23167552.671
  22959939.338   -12882219.73043 -10030273.78542  22959940.814    22959936.950
  20848434.080   -23737362.41544 -18471462.82242  20848435.787    20848432.472
  20607183.978   -27394411.09444 -21331992.42242  20607186.263    20607181.658
  23683591.271    -7975250.30143  -6202735.04242  23683593.197    23683591.518
  21521777.281   -24112946.79543 -18737936.71542  21521777.777    21521774.945
  23398423.694    -8713461.58443  -6779394.79142  23398425.080    23398423.621
  23371188.531   -12816731.80243  -9498241.56242  23371190.122    23371185.767
  24414067.778    -5362300.79843  -3749441.21542  24414069.570    24414069.694
 04  7 22  1 18  0.0000000  0  9G 3G19G27G13G28G 8G10G23G 1
  23171987.662   -13403822.27843 -10430463.23942  23171989.431    23171987.557
  22950247.435   -12933150.29943 -10069959.87042  22950248.904    22950245.268
  20845130.671   -23754721.62244 -18484989.46742  20845132.366    20845129.222
  20615381.228   -27351334.15444 -21298425.97842  20615383.483    20615378.929
  23665000.747    -8072943.81343  -6278859.72742  23665002.670    23665001.029
  21510789.043   -24170689.33843 -18782930.87942  21510789.560    21510787.011
  23390266.644    -8756327.38843  -6812796.66042  23390268.073    23390266.313
  23390200.683   -12716823.45643  -9420390.97342  23390202.344    23390197.747
  24433153.778    -5262003.65443  -3671287.70242  24433155.528    24433155.655
 04  7 22  1 18 30.0000000  0  9G 3G19G27G13G28G 8G10G23G 1
  23176530.553   -13379949.32243 -10411860.93042  23176532.390    23176530.693
  22940637.564   -12983650.63743 -10109310.73642  22940639.061    22940635.423
  20841863.061   -23771892.94744 -18498369.70642  20841864.708    20841861.664
  20623667.379   -27307790.20944 -21264495.64042  20623669.628    20623665.029
  23646446.530    -8170446.18843  -6354835.51242  23646448.412    23646446.925
  21499839.811   -24228228.06343 -18827766.21742  21499840.197    21499837.666
  23382212.878    -8798647.47743  -6845773.33142  23382214.464    23382212.867
  23409253.879   -12616699.44943  -9342372.32442  23409255.576    23409250.807
  24452269.638    -5161549.97143  -3593012.20842  24452271.378    24452271.309
 04  7 22  1 19  0.0000000  0  9G 3G19G27G13G28G 8G10G23G 1
  23181180.257   -13355514.68343 -10392820.97142  23181182.073    23181180.486
  22931108.944   -13033723.58943 -10148328.55942  22931110.417    22931106.727
  20838630.260   -23788881.49044 -18511607.51942  20838631.898    20838628.868
  20632041.378   -27263784.71044 -21230205.64042  20632043.700    20632039.071
  23627927.992    -8267761.00243  -6430665.13642  23627929.813    23627928.407
  21488928.157   -24285568.50843 -18872447.04842  21488928.491    21488926.051
  23374263.292    -8840426.08143  -6878328.03142  23374264.449    23374262.822
  23428346.717   -12516366.09743  -9264190.61442  23428348.474    23428343.907
  24471414.061    -5060946.34943  -3514619.90742  24471415.848    24471415.683
 04  7 22  1 19 30.0000000  0  9G 3G19G27G13G28G 8G10G23G 1
  23185937.195   -13330517.36443 -10373342.52242  23185938.932    23185937.233
  22921662.309   -13083365.73443 -10187010.70042  22921663.831    22921659.779
  20835432.525   -23805685.73444 -18524701.72542  20835434.162    20835431.111
  20640503.320   -27219316.74844 -21195555.29842  20640505.611    20640501.108
  23609445.698    -8364885.55043  -6506346.49942  23609447.525    23609446.241
  21478054.757   -24342708.70643 -18916971.85342  21478055.065    21478052.533
  23366416.426    -8881660.52343  -6910458.75542  23366417.699    23366416.300
  23447479.189   -12415824.05143  -9185846.22542  23447480.959    23447476.559
  24490586.594    -4960193.14643  -3436110.96442  24490588.326    24490588.421
 04  7 22  1 20  0.0000000  0  9G 3G19G27G13G28G 8G10G23G 1
  23190801.332   -13304955.55043 -10353424.24142  23190803.194    23190801.522
  22912298.787   -13132571.99243 -10225353.20042  22912300.207    22912296.185
  20832270.343   -23822302.81244 -18537650.08542  20832272.020    20832268.925
  20649053.715   -27174384.10144 -21160542.86942  20649055.971    20649051.552
  23591000.533    -8461815.36343  -6581876.11242  23591002.344    23591001.095
  21467220.200   -24399645.53743 -18961338.19142  21467220.464    21467217.711
  23358674.089    -8922346.79643  -6942162.28642  23358675.320    23358673.819
  23466651.606   -12315071.85443  -9107338.11342  23466653.308    23466649.228
  24509788.279    -4859288.92143  -3357484.39442  24509789.978    24509789.799
 04  7 22  1 20 30.0000000  0  9G 3G19G27G13G28G 8G10G23G 1
  23195772.500   -13278833.53443 -10333069.41442  23195774.139    23195772.309
  22903017.855   -13181343.80343 -10263357.17842  22903019.147    22903015.506
  20829143.229   -23838736.16444 -18550455.28042  20829144.861    20829141.694
  20657691.807   -27128990.92044 -21125171.56742  20657694.047    20657689.573
  23572591.852    -8558552.59443  -6657255.68142  23572593.683    23572592.402
  21456423.554   -24456382.39643 -19005548.69642  21456423.890    21456421.043
  23351035.257    -8962487.48743  -6973440.72442  23351036.597    23351035.162
  23485863.378   -12214115.01043  -9028670.54842  23485865.055    23485860.728
  24529017.621    -4758238.90043  -3278744.26942  24529019.228    24529018.845
 04  7 22  1 21  0.0000000  0  8G 3G19G27G13G28G 8G10G23
  23200851.351   -13252143.13943 -10312271.70242  23200853.207    23200851.368
  22893821.616   -13229670.03943 -10301013.93142  22893823.070    22893819.059
  20826052.723   -23854977.11544 -18563110.55742  20826054.361    20826051.103
  20666419.082   -27083128.84444 -21089434.89342  20666421.353    20666416.722
  23554221.708    -8655087.31043  -6732477.43142  23554223.695    23554222.425
  21445666.475   -24512910.52943 -19049596.56142  21445666.918    21445664.087
  23343502.951    -9002072.55943  -7004286.18142  23343504.033    23343502.310
  23505114.771   -12112946.51743  -8949838.06242  23505116.496    23505112.055
 04  7 22  1 21 30.0000000  0  8G 3G19G27G13G28G 8G10G23
  23206035.913   -13224896.59043 -10291040.60942  23206037.782    23206036.199
  22884708.216   -13277560.08643 -10338330.76842  22884709.737    22884705.432
  20822996.551   -23871037.02644 -18575624.76442  20822998.242    20822994.895
  20675233.277   -27036809.92444 -21053342.25242  20675235.555    20675230.956
  23535888.505    -8751429.33543  -6807549.02542  23535890.389    23535889.057
  21434947.267   -24569240.89643 -19093490.32242  21434947.707    21434944.805
  23336073.657    -9041112.18543  -7034706.64542  23336075.023    23336073.533
  23524404.481   -12011579.61143  -8870850.91142  23524406.149    23524401.647
 04  7 22  1 22  0.0000000  0  8G 3G19G27G13G28G 8G10G23
  23211327.576   -13197090.18943 -10269373.31842  23211329.329    23211327.372
  22875679.414   -13325007.40043 -10375302.68042  22875680.791    22875676.690
  20819975.834   -23886911.17844 -18587994.22742  20819977.529    20819974.136
  20684135.139   -26990030.33544 -21016890.64242  20684137.381    20684132.892
  23517593.018    -8847572.91243  -6882465.98042  23517594.793    23517593.420
  21424266.499   -24625368.56143 -19137226.12642  21424266.941    21424264.100
  23328749.003    -9079601.18143  -7064698.06442  23328750.470    23328749.246
  23543732.472   -11910011.25343  -8791706.84542  23543734.063    23543729.657
 04  7 22  1 22 30.0000000  0  8G 3G19G27G13G28G 8G10G23
  23216724.501   -13168727.48743 -10247272.46842  23216726.434    23216724.851
  22866734.636   -13372012.48443 -10411929.99842  22866736.242    22866732.204
  20816989.930   -23902602.29444 -18600221.06542  20816991.618    20816988.204
  20693123.982   -26942793.34944 -20980082.60142  20693126.231    20693121.777
  23499334.690    -8943519.28243  -6957229.26842  23499336.702    23499335.286
  21413623.647   -24681296.41143 -19180806.23942  21413624.158    21413621.459
  23321529.726    -9117541.30743  -7094261.74742  23321530.761    23321529.355
  23563097.877   -11808245.99343  -8712409.28942  23563099.551    23563094.996
 04  7 22  1 23  0.0000000  0  8G 3G19G27G13G28G 8G10G23
  23222229.244   -13139802.24243 -10224733.36142  23222230.860    23222228.964
  22857875.399   -13418566.29443 -10448205.60942  22857877.051    22857873.057
  20814040.180   -23918103.24544 -18612299.72242  20814041.889    20814038.468
  20702201.162   -26895092.67144 -20942913.24942  20702203.391    20702198.908
  23481115.770    -9039259.70543  -7031832.09942  23481117.818    23481116.382
  21403020.391   -24737016.91444 -19224224.77742  21403020.891    21403018.259
  23314415.685    -9154924.09943  -7123391.17642  23314417.147    23314415.715
  23582501.586   -11706278.22043  -8632953.98142  23582503.144    23582499.114
 04  7 22  1 23 30.0000000  0  8G 3G19G27G13G28G 8G10G23
  23227839.089   -13110319.64743 -10201759.88242  23227841.021    23227839.259
  22849102.204   -13464670.78043 -10484131.19642  22849103.691    22849099.219
  20811125.837   -23933418.13344 -18624233.40242  20811127.540    20811124.178
  20711365.770   -26846932.35444 -20905385.73942  20711368.053    20711363.516
  23462935.680    -9134797.27643  -7106276.87542  23462937.605    23462936.142
  21392455.789   -24792534.33244 -19267485.07842  21392456.247    21392453.537
  23307407.511    -9191752.93843  -7152088.93842  23307408.862    23307407.385
  23601942.873   -11604114.01843  -8553345.61442  23601944.576    23601940.288
 04  7 22  1 24  0.0000000  0  8G 3G19G27G13G28G 8G10G23
  23233556.038   -13080278.86243 -10178351.48642  23233557.792    23233555.996
  22840415.029   -13510322.36843 -10519703.79842  22840416.552    22840412.143
  20808247.217   -23948545.23744 -18636020.74642  20808248.979    20808245.570
  20720617.942   -26798312.09444 -20867499.83242  20720620.197    20720615.682
  23444794.627    -9230129.10743  -7180561.31642  23444796.596    23444794.996
  21381930.077   -24847846.52843 -19310585.45742  21381930.632    21381927.816
  23300505.063    -9228025.53143  -7180353.28142  23300506.555    23300504.835
  23621421.544   -11501753.76943  -8473584.50442  23621423.145    23621418.814
 04  7 22  1 24 30.0000000  0  8G 3G19G27G13G28G 8G10G23
  23239378.392   -13049681.19943 -10154509.14442  23239380.253    23239378.386
  22831814.047   -13555519.48843 -10554922.24542  22831815.566    22831811.840
  20805404.230   -23963485.03744 -18647662.14442  20805405.974    20805402.650
  20729957.374   -26749232.78544 -20829256.23942  20729959.660    20729955.182
  23426692.761    -9325254.17543  -7254684.64542  23426694.841    23426693.116
  21371443.481   -24902953.71043 -19353526.08842  21371443.947    21371441.057
  23293708.404    -9263741.40243  -7208183.80642  23293709.790    23293708.291
  23640937.083   -11399199.70243  -8393672.27342  23640938.815    23640934.668
 04  7 22  1 25  0.0000000  0  8G 3G19G27G13G28G 8G10G23
  23245306.854   -13018528.51343 -10130234.36142  23245308.589    23245306.583
  22823300.205   -13600260.59243 -10589785.45142  22823301.713    22823297.781
  20802596.837   -23978238.03544 -18659157.98842  20802598.568    20802595.292
  20739384.019   -26699695.75444 -20790655.95542  20739386.250    20739381.773
  23408630.655    -9420171.86043  -7328646.37542  23408632.546    23408630.749
  21360995.813   -24957856.75744 -19396307.64842  21360996.255    21360993.259
  23287017.840    -9298900.34643  -7235580.36242  23287019.225    23287017.819
  23660489.145   -11296453.98243  -8313610.78142  23660490.954    23660486.680
 04  7 22  1 25 30.0000000  0  8G 3G19G27G13G28G 8G10G23
  23251340.390   -12986820.83543 -10105527.04542  23251342.202    23251340.452
  22814873.473   -13644543.13743 -10624291.33042  22814874.948    22814870.931
  20799825.125   -23992803.61044 -18670507.78642  20799826.800    20799823.558
  20748897.688   -26649701.15744 -20751699.13242  20748899.954    20748895.449
  23390608.259    -9514879.91843  -7402444.74342  23390610.225    23390608.293
  21350587.260   -25012553.98444 -19438928.83642  21350587.735    21350584.714
  23280434.019    -9333500.62943  -7262541.60242  23280435.228    23280433.765
  23680077.159   -11193517.70843  -8233400.73742  23680079.080    23680074.586
 04  7 22  1 26  0.0000000  0  8G 3G19G27G13G28G 8G10G23
  23257480.336   -12954557.11443 -10080386.51942  23257481.988    23257479.934
  22806534.651   -13688363.06743 -10658436.66542  22806536.152    22806532.660
  20797089.489   -24007179.50544 -18681709.77842  20797091.176    20797087.937
  20758498.674   -26599247.65944 -20712384.73142  20758500.938    20758496.476
  23372626.204    -9609375.39743  -7476077.46542  23372628.297    23372626.392
  21340218.293   -25067043.53844 -19481388.19342  21340218.721    21340215.719
  23273956.716    -9367539.47243  -7289065.38042  23273958.035    23273956.169
  23699701.512   -11090390.54743  -8153042.02542  23699703.263    23699699.266
 04  7 22  1 26 30.0000000  0  8G 3G19G27G13G28G 8G10G23
  23263724.765   -12921740.10443 -10054814.79442  23263726.618    23263724.890
  22798284.347   -13731719.83643 -10692221.05742  22798285.794    22798282.315
  20794389.668   -24021366.95744 -18692764.93442  20794391.387    20794388.176
  20768186.489   -26548337.40844 -20672714.41542  20768188.739    20768184.366
  23354684.717    -9703657.96943  -7549544.29342  23354686.798    23354684.941
  21329888.616   -25121326.70544 -19523686.74042  21329889.043    21329885.919
  23267585.770    -9401017.42843  -7315152.08342  23267587.156    23267585.400
  23719361.629   -10987075.85343  -8072537.16042  23719363.313    23719359.023
 04  7 22  1 27  0.0000000  0  8G 3G19G27G13G28G 8G10G23
  23270074.803   -12888372.91943 -10028814.41642  23270076.485    23270074.502
  22790121.421   -13774613.97443 -10725645.02542  22790123.031    22790119.333
  20791725.287   -24035368.33744 -18703675.09242  20791726.998    20791723.803
  20777960.865   -26496973.46544 -20632690.57242  20777963.076    20777958.555
  23336783.557    -9797728.83143  -7622846.15342  23336785.636    23336783.779
  21319597.653   -25175405.40544 -19565825.96142  21319598.101    21319595.034
  23261321.524    -9433935.92843  -7340802.82842  23261322.910    23261321.269
  23739056.560   -10883577.82243  -7991889.46742  23739058.130    23739054.069
 04  7 22  1 27 30.0000000  0  8G 3G19G27G13G28G 8G10G23
  23276529.522   -12854450.91143 -10002381.67242  23276531.364    23276529.543
  22782048.659   -13817037.76243 -10758702.53242  22782050.000    22782046.365
  20789097.424   -24049177.78444 -18714435.69542  20789099.108    20789095.929
  20787822.331   -26445151.01844 -20592309.47542  20787824.586    20787819.971
  23318924.056    -9891580.90543  -7695977.53642  23318926.148    23318924.163
  21309346.829   -25229273.54643 -19607801.10142  21309347.295    21309344.141
  23255165.003    -9466288.51443  -7366012.61742  23255166.361    23255164.721
  23758787.271   -10779892.43743  -7911095.75342  23758788.810    23758785.139
 04  7 22  1 28  0.0000000  0  8G 3G19G27G13G28G 8G10G23
  23283089.085   -12819981.15543  -9975522.16142  23283090.825    23283089.039
  22774064.574   -13858995.19243 -10791396.61142  22774066.039    22774062.389
  20786504.938   -24062801.18844 -18725051.33142  20786506.622    20786503.455
  20797769.781   -26392876.63144 -20551576.20342  20797772.026    20797767.487
  23301105.280    -9985218.93443  -7768942.13142  23301107.394    23301105.381
  21299134.902   -25282937.28943 -19649616.96842  21299135.304    21299132.284
  23249115.182    -9498080.81343  -7390785.83042  23249116.571    23249114.974
  23778552.404   -10676027.58043  -7830162.18242  23778553.979    23778550.112
 04  7 22  1 28 30.0000000  0  8G 3G19G27G13G28G 8G10G23
  23289753.727   -12784957.54543  -9948231.04442  23289755.458    23289753.891
  22766170.651   -13900476.90143 -10823719.94642  22766172.102    22766168.464
  20783949.339   -24076230.96944 -18735516.09142  20783951.004    20783947.842
  20807804.570   -26340143.57244 -20510485.52542  20807806.823    20807802.328
  23283328.910   -10078633.99943  -7841732.98042  23283331.100    23283329.035
  21288963.428   -25336388.44544 -19691267.19842  21288963.822    21288960.900
  23243173.358    -9529304.31843  -7415115.82242  23243174.804    23243173.433
  23798352.540   -10571977.30843  -7749084.17142  23798354.332    23798350.508
 04  7 22  1 29  0.0000000  0  8G 3G19G27G13G28G 8G10G23
  23296522.227   -12749389.40343  -9920515.63242  23296523.876    23296522.176
  22758366.240   -13941489.28143 -10855677.58842  22758367.728    22758363.765
  20781429.074   -24089475.24644 -18745836.30542  20781430.704    20781427.522
  20817924.862   -26286961.15544 -20469044.69942  20817927.123    20817922.660
  23265593.440   -10171833.14443  -7914355.58942  23265595.832    23265593.668
  21278830.800   -25389635.59043 -19732758.44842  21278831.175    21278828.400
  23237338.606    -9559966.49943  -7439008.39742  23237339.992    23237338.473
  23818186.112   -10467751.99343  -7667869.73342  23818187.902    23818184.056
 04  7 22  1 29 30.0000000  0  8G 3G19G27G13G28G 8G10G23
  23303395.400   -12713271.33743  -9892371.72542  23303396.893    23303395.201
  22750652.813   -13982024.31343 -10887263.30342  22750654.309    22750649.971
  20778945.336   -24102527.58244 -18756006.95042  20778946.961    20778943.754
  20828131.796   -26233323.64244 -20427249.24742  20828134.069    20828129.526
  23247900.936   -10264808.72643  -7986804.00542  23247903.091    23247900.816
  21268738.565   -25442671.57344 -19774085.15142  21268738.867    21268735.935
  23231611.856    -9590060.51243  -7462458.27242  23231613.206    23231611.815
  23838054.091   -10363346.81643  -7586515.10842  23838055.908    23838051.774
 04  7 22  1 30  0.0000000  0  8G 3G19G27G13G28G 8G10G23
  23310372.486   -12676605.62943  -9863801.05242  23310374.166    23310372.499
  22743030.075   -14022081.11743 -10918476.36242  22743031.578    22743027.316
  20776497.854   -24115388.85644 -18766028.71742  20776499.542    20776496.281
  20838424.782   -26179232.90944 -20385100.65042  20838427.043    20838422.677
  23230250.826   -10357560.49443  -8059078.02342  23230252.930    23230250.646
  21258685.966   -25495497.54444 -19815248.22942  21258686.402    21258683.434
  23225993.285    -9619586.67843  -7485465.65442  23225994.486    23225993.084
  23857955.468   -10258764.76243  -7505022.71642  23857957.262    23857953.282
 04  7 22  1 30 30.0000000  0  8G 3G19G27G13G28G 8G10G23
  23317453.759   -12639393.26143  -9834804.40342  23317455.441    23317453.688
  22735498.933   -14061657.56343 -10949315.12442  22735500.353    22735496.482
  20774086.888   -24128058.87744 -18775901.45142  20774088.564    20774085.225
  20848804.044   -26124689.85344 -20342599.58742  20848806.263    20848801.947
  23212643.419   -10450086.92643  -8131176.43842  23212645.553    23212643.314
  21248673.729   -25548112.74444 -19856247.06042  21248674.136    21248671.009
  23220482.952    -9648544.25943  -7508029.97342  23220484.138    23220482.435
  23877889.943   -10154007.66143  -7423393.86742  23877891.770    23877888.152
 04  7 22  1 31  0.0000000  0  8G 3G19G27G13G28G 8G10G23
  23324638.713   -12601636.73543  -9805383.77542  23324640.358    23324638.664
  22728059.375   -14100753.21743 -10979779.22842  22728060.816    22728056.793
  20771711.973   -24140538.89444 -18785626.13542  20771713.695    20771710.317
  20859269.020   -26069696.40044 -20299747.56242  20859271.280    20859266.814
  23195078.972   -10542388.26943  -8203099.47942  23195081.042    23195078.775
  21238701.185   -25600518.15344 -19897082.43142  21238701.606    21238698.587
  23215080.373    -9676933.77943  -7530151.65442  23215081.634    23215080.252
  23897857.372   -10049078.59643  -7341631.12942  23897859.023    23897855.600
 04  7 22  1 31 30.0000000  0  8G 3G19G27G13G28G 8G10G23
  23331927.111   -12563334.84443  -9775538.15842  23331928.857    23331927.200
  22720712.012   -14139363.60443 -11009865.20742  22720713.441    22720708.786
  20769373.824   -24152825.90444 -18795200.41942  20769375.533    20769372.125
  20869819.904   -26014251.10644 -20256543.46042  20869822.152    20869817.687
  23177558.283   -10634460.55843  -8274844.04442  23177560.231    23177557.831
  21228769.144   -25652711.42743 -19937752.48742  21228769.572    21228766.497
  23209786.622    -9704751.95643  -7551828.10642  23209788.027    23209786.629
  23917857.678    -9943976.67543  -7259733.56442  23917859.397    23917855.988
 04  7 22  1 32  0.0000000  0  8G 3G19G27G13G28G 8G10G23
  23339319.078   -12524491.17843  -9745270.40242  23339320.736    23339318.789
  22713456.884   -14177489.51443 -11039573.67542  22713458.316    22713453.779
  20767071.985   -24164922.23844 -18804626.12742  20767073.681    20767070.263
  20880456.241   -25958357.16944 -20212989.75942  20880458.431    20880454.060
  23160080.737   -10726304.81143  -8346410.91242  23160082.749    23160080.361
  21218876.931   -25704694.67544 -19978258.88242  21218877.353    21218874.322
  23204601.568    -9732000.68643  -7573060.85842  23204602.863    23204601.275
  23937889.934    -9838706.12743  -7177704.65742  23937891.747    23937888.495
 04  7 22  1 32 30.0000000  0  8G 3G19G27G13G28G 8G10G23
  23346813.762   -12485104.59643  -9714579.55942  23346815.637    23346813.951
  22706294.932   -14215126.29943 -11068901.01942  22706296.418    22706292.116
  20764806.872   -24176825.27144 -18813901.20642  20764808.575    20764805.146
  20891178.211   -25902012.87744 -20169085.15542  20891180.391    20891176.053
  23142647.461   -10817917.43043  -8417797.30142  23142649.339    23142646.905
  21209025.427   -25756464.66344 -20018599.13542  21209025.798    21209022.719
  23199524.909    -9758677.16743  -7593847.73642  23199526.396    23199524.889
  23957954.721    -9733266.44343  -7095543.98242  23957956.447    23957953.378
 04  7 22  1 33  0.0000000  0  8G 3G19G27G13G28G 8G10G23
  23354411.792   -12445178.62643  -9683468.46742  23354413.416    23354411.607
  22699225.495   -14252274.82443 -11097847.89142  22699227.137    22699222.667
  20762578.160   -24188537.11644 -18823027.31142  20762579.810    20762576.424
  20901985.217   -25845221.39044 -20124832.08842  20901987.442    20901983.122
  23125257.861   -10909299.47743  -8489003.99942  23125259.820    23125257.421
  21199214.260   -25808023.31444 -20058774.67542  21199214.632    21199211.282
  23194557.176    -9784783.11343  -7614189.95942  23194558.566    23194556.808
  23978050.394    -9627661.59343  -7013254.54442  23978052.338    23978049.097
 04  7 22  1 33 30.0000000  0  8G 3G19G27G13G28G 8G10G23
  23362111.735   -12404712.13643  -9651936.10342  23362113.672    23362112.124
  22692250.342   -14288930.64943 -11126410.87142  22692251.819    22692247.415
  20760386.334   -24200055.05344 -18832002.32442  20760387.954    20760384.628
  20912877.615   -25787981.26044 -20080229.40942  20912879.804    20912875.542
  23107912.922   -11000447.03543  -8560027.97542  23107914.923    23107912.575
  21189443.695   -25859368.09444 -20098783.58742  21189444.054    21189440.824
  23189698.587    -9810315.22043  -7634085.10142  23189700.024    23189698.320
  23998178.152    -9521890.87743  -6930835.90942  23998179.932    23998176.883
 04  7 22  1 34  0.0000000  0  8G 3G19G27G13G28G 8G10G23
  23369914.591   -12363711.68543  -9619987.74242  23369916.082    23369914.382
  22685367.800   -14325097.55343 -11154592.83042  22685369.328    22685365.255
  20758230.433   -24211384.43644 -18840830.40642  20758232.023    20758228.716
  20923854.392   -25730298.79144 -20035282.04242  20923856.576    20923852.154
  23090612.079   -11091364.32943  -8630872.52942  23090613.957    23090611.493
  21179712.681   -25910503.83344 -20138629.60142  21179713.165    21179710.069
  23184948.575    -9835278.74143  -7653537.15642  23184949.773    23184947.967
  24018335.822    -9415961.45843  -6848293.65842  24018337.585    24018334.813
 04  7 22  1 34 30.0000000  0  8G 3G19G27G13G28G 8G10G23
  23377819.520   -12322168.65143  -9587616.53842  23377821.364    23377819.494
  22678580.658   -14360763.80043 -11182384.65742  22678582.101    22678577.868
  20756112.306   -24222515.03544 -18849503.59842  20756113.883    20756110.636
  20934916.956   -25672164.76544 -19989982.83642  20934919.154    20934914.750
  23073356.960   -11182040.12743  -8701528.90542  23073358.934    23073356.377
  21170023.532   -25961420.86244 -20178305.19042  21170023.900    21170021.029
  23180307.861    -9859663.22043  -7672538.05242  23180309.257    23180307.777
  24038525.131    -9309865.28743  -6765621.38042  24038526.848    24038524.181
 04  7 22  1 35  0.0000000  0  8G 3G19G27G13G28G 8G10G23
  23385826.427   -12280092.59543  -9554830.02842  23385828.362    23385826.299
  22671887.746   -14395936.13543 -11209791.64842  22671889.212    22671884.699
  20754030.566   -24233454.84644 -18858028.12042  20754032.127    20754028.880
  20946063.599   -25613588.67944 -19944339.15642  20946065.800    20946061.462
  23056146.432   -11272481.32943  -8772002.48842  23056148.450    23056145.896
  21160374.420   -26012126.57744 -20217816.11242  21160374.810    21160372.040
  23175776.544    -9883476.32643  -7691093.67942  23175777.822    23175776.390
  24058744.348    -9203612.54743  -6682827.15242  24058746.094    24058743.487
 04  7 22  1 35 30.0000000  0  8G 3G19G27G13G28G 8G10G23
  23393935.259   -12237480.68243  -9521625.95642  23393937.128    23393935.194
  22665289.568   -14430608.47543 -11236809.02142  22665291.054    22665286.935
  20751985.989   -24244199.26444 -18866400.39042  20751987.555    20751984.291
  20957294.971   -25554567.40044 -19898348.56342  20957297.183    20957292.795
  23038981.771   -11362682.40243  -8842288.95542  23038983.748    23038981.078
  21150766.539   -26062616.16644 -20257158.62642  21150766.913    21150764.194
  23171354.606    -9906713.29043  -7709200.40742  23171355.996    23171354.318
  24078994.109    -9097200.51443  -6599908.82842  24078995.869    24078992.824
 04  7 22  1 36  0.0000000  0  8G 3G19G27G13G28G 8G10G23
  23402145.354   -12194335.82243  -9488006.61442  23402147.183    23402145.151
  22658786.843   -14464780.79943 -11263436.78742  22658788.220    22658784.115
  20749978.312   -24254749.70644 -18874621.50642  20749979.920    20749976.608
  20968610.799   -25495102.74244 -19852012.49442  20968613.001    20968608.527
  23021862.533   -11452643.72543  -8912388.60742  23021864.551    23021861.949
  21141199.651   -26112891.20244 -20296333.96542  21141199.978    21141197.174
  23167042.251    -9929375.18443  -7726859.00242  23167043.648    23167041.999
  24099273.767    -8990632.59243  -6516868.98942  24099275.494    24099271.951
 04  7 22  1 36 30.0000000  0  8G 3G19G27G13G28G 8G10G23
  23410457.452   -12150656.50343  -9453970.78342  23410459.174    23410457.329
  22652380.156   -14498448.55143 -11289671.37242  22652381.567    22652377.280
  20748008.114   -24265103.09544 -18882689.08642  20748009.736    20748006.464
  20980011.215   -25435193.19944 -19805329.75342  20980013.447    20980009.010
  23004789.700   -11542361.18243  -8982298.22842  23004791.723    23004789.238
  21131674.001   -26162948.56944 -20335339.69342  21131674.379    21131671.468
  23162839.785    -9951458.83143  -7744067.03642  23162841.174    23162839.690
  24119582.803    -8883907.93543  -6433707.00542  24119584.599    24119580.828
 04  7 22  1 37  0.0000000  0  8G 3G19G27G13G28G 8G10G23
  23418869.565   -12106449.85543  -9419524.07942  23418871.307    23418869.533
  22646068.549   -14531615.39843 -11315515.62842  22646070.038    22646065.793
  20746074.434   -24275264.82144 -18890607.31242  20746076.063    20746072.749
  20991494.950   -25374845.41844 -19758305.53142  20991497.241    20991492.829
  22987762.627   -11631838.88243  -9052021.02942  22987764.575    22987762.108
  21122188.973   -26212793.23944 -20374179.66942  21122189.341    21122186.314
  23158746.643    -9972969.19043  -7760828.34142  23158748.081    23158746.246
  24139920.441    -8777033.91543  -6350428.64442  24139922.163    24139918.310
 04  7 22  1 37 30.0000000  0  8G 3G19G27G13G28G 8G10G23
  23427383.331   -12061710.21243  -9384662.03542  23427385.070    23427383.258
  22639853.971   -14564273.00343 -11340963.08142  22639855.430    22639851.196
  20744178.556   -24285227.56044 -18898370.48842  20744180.219    20744176.947
  21003063.387   -25314053.51144 -19710935.23042  21003065.629    21003061.106
  22970782.566   -11721069.01643  -9121550.91042  22970784.531    22970782.053
  21112745.690   -26262418.10244 -20412848.36642  21112746.067    21112742.928
  23154763.750    -9993899.22443  -7777137.45342  23154765.073    23154763.380
  24160287.444    -8670005.34243  -6267029.84342  24160289.291    24160285.056
 04  7 22  1 38  0.0000000  0  8G 3G19G27G13G28G 8G10G23
  23435996.888   -12016445.32043  -9349390.70242  23435998.644    23435996.930
  22633735.631   -14596425.66843 -11366017.07942  22633736.948    22633732.728
  20742319.494   -24294997.01544 -18905983.05742  20742321.144    20742317.900
  21014714.864   -25252824.32244 -19663224.18542  21014717.162    21014712.698
  22953848.823   -11810056.14743  -9190891.43042  22953850.740    22953848.325
  21103342.957   -26311828.82044 -20451350.21442  21103343.393    21103340.446
  23150890.273   -10014254.76943  -7792998.90442  23150891.565    23150889.835
  24180682.423    -8562830.01443  -6183516.71542  24180684.292    24180679.885
 04  7 22  1 38 30.0000000  0  8G 3G19G27G13G28G 8G10G23
  23444711.077   -11970653.61343  -9313708.88542  23444712.625    23444710.865
  22627713.891   -14628069.29643 -11390674.41242  22627715.322    22627711.089
  20740497.732   -24304570.50044 -18913442.91442  20740499.405    20740496.123
  21026449.933   -25191156.32744 -19615171.23442  21026452.185    21026447.822
  22936962.066   -11898796.66243  -9260039.79642  22936964.037    22936961.415
  21093981.814   -26361022.61844 -20489683.00942  21093982.177    21093979.088
  23147126.750   -10034032.52043  -7808410.13042  23147127.913    23147126.300
  24201105.538    -8455507.23443  -6099888.72542  24201107.354    24201102.679
 04  7 22  1 39  0.0000000  0  8G 3G19G27G13G28G 8G10G23
  23453525.149   -11924333.43043  -9277615.23042  23453526.961    23453525.403
  22621790.071   -14659198.97743 -11414931.29542  22621791.474    22621787.273
  20738713.926   -24313944.23444 -18920747.13142  20738715.578    20738712.340
  21038269.044   -25129047.31344 -19566774.62842  21038271.219    21038266.739
  22920122.967   -11987285.60143  -9328992.12842  22920125.026    22920122.389
  21084662.529   -26409995.11444 -20527843.37742  21084662.943    21084659.956
  23143473.706   -10053229.14443  -7823368.53742  23143474.976    23143473.339
  24221556.323    -8348035.28443  -6016144.42842  24221558.173    24221554.091
 04  7 22  1 39 30.0000000  0  8G 3G19G27G13G28G 8G10G23
  23462439.192   -11877492.40243  -9241115.78042  23462440.594    23462438.920
  22615963.349   -14689818.93943 -11438790.98542  22615964.700    22615960.506
  20736967.108   -24323123.98544 -18927900.17942  20736968.742    20736965.471
  21050170.470   -25066504.65344 -19518040.11442  21050172.706    21050168.156
  22903330.988   -12075527.94443  -9397752.32842  22903332.905    22903330.155
  21075384.397   -26458751.96144 -20565835.70542  21075384.798    21075381.732
  23139930.218   -10071850.15143  -7837878.40042  23139931.491    23139929.672
  24242034.829    -8240422.19643  -5932290.14142  24242036.564    24242032.499
 04  7 22  1 40  0.0000000  0  8G 3G19G27G13G28G 8G10G23
  23471452.656   -11830124.22043  -9204205.49642  23471454.406    23471452.916
  22610235.296   -14719920.10043 -11462246.40542  22610236.644    22610232.404
  20735258.675   -24332101.67144 -18934895.78142  20735260.285    20735257.068
  21062155.766   -25003521.13244 -19468962.07242  21062158.036    21062153.586
  22886587.706   -12163514.74943  -9466313.38442  22886589.472    22886586.655
  21066148.906   -26507285.14444 -20603653.74542  21066149.246    21066146.116
  23136497.726   -10089887.42743  -7851933.42542  23136499.136    23136497.424
  24262540.760    -8132661.88443  -5848321.18842  24262542.539    24262539.025
 04  7 22  1 40 30.0000000  0  8G 3G19G27G13G28G 8G10G23
  23480565.512   -11782237.20243  -9166890.98242  23480567.035    23480565.519
  22604604.753   -14749507.89643 -11485301.79642  22604606.188    22604601.939
  20733587.482   -24340884.07344 -18941739.21642  20733589.066    20733585.841
  21074223.499   -24940104.66844 -19419546.66842  21074225.763    21074221.416
  22869891.744   -12251251.76443  -9534679.80142  22869893.633    22869890.910
  21056954.482   -26555601.70944 -20641302.99742  21056954.871    21056951.697
  23133175.113   -10107347.65443  -7865538.79042  23133176.462    23133174.806
  24283073.019    -8024763.30343  -5764244.46442  24283074.765    24283071.883
 04  7 22  1 41  0.0000000  0  8G 3G19G27G13G28G 8G10G23
  23489776.798   -11733831.24543  -9129172.07242  23489778.383    23489776.921
  22599072.688   -14778578.97943 -11507954.55942  22599073.985    22599069.798
  20731953.866   -24349468.84744 -18948428.65142  20731955.449    20731952.216
  21086373.815   -24876254.75944 -19369793.51842  21086376.058    21086371.671
  22853243.925   -12338736.07443  -9602849.28042  22853245.899    22853243.251
  21047801.915   -26603699.14044 -20678781.50042  21047802.311    21047798.980
  23129962.634   -10124229.30343  -7878693.31642  23129963.887    23129962.386
  24303631.767    -7916726.32843  -5680059.94542  24303633.398    24303630.570
 04  7 22  1 41 30.0000000  0  8G 3G19G27G13G28G 8G10G23
  23499086.798   -11684905.84143  -9091048.39542  23499088.584    23499087.236
  22593639.700   -14807129.96543 -11530202.06842  22593641.022    22593636.585
  20730358.294   -24357853.86844 -18954962.43442  20730359.866    20730356.602
  21098606.717   -24811970.56844 -19319701.97042  21098608.983    21098604.556
  22836644.766   -12425964.37143  -9670819.30542  22836646.826    22836644.158
  21038691.388   -26651574.96944 -20716087.32242  21038691.781    21038688.377
  23126860.901   -10140530.20043  -7891395.32542  23126862.055    23126860.338
  24324216.880    -7808550.97943  -5595767.63542  24324218.518    24324215.597
 04  7 22  1 42  0.0000000  0  8G 3G19G27G13G28G 8G10G23
  23508495.608   -11635463.60643  -9052522.01042  23508497.111    23508495.694
  22588305.784   -14835160.39643 -11552043.94342  22588307.103    22588302.673
  20728800.590   -24366039.80044 -18961341.08342  20728802.204    20728798.883
  21110921.780   -24747254.14044 -19269273.61242  21110924.038    21110919.639
  22820094.530   -12512936.40543  -9738589.63842  22820096.467    22820093.757
  21029622.924   -26699229.80744 -20753220.95742  21029623.342    21029619.978
  23123869.189   -10156250.83743  -7903645.16842  23123870.491    23123868.637
  24344828.235    -7700240.03643  -5511369.60342  24344829.829    24344826.807
 04  7 22  1 42 30.0000000  0  8G 3G19G27G13G28G 8G10G23
  23518002.315   -11585505.29043  -9013593.44242  23518003.924    23518002.520
  22583071.123   -14862667.73243 -11573478.19442  22583072.553    22583068.348
  20727280.926   -24374025.43644 -18967563.65942  20727282.577    20727279.278
  21123319.131   -24682105.87144 -19218508.72842  21123321.411    21123316.904
  22803593.305   -12599650.20443  -9806158.74442  22803595.259    22803592.572
  21020596.919   -26746662.16244 -20790181.20842  21020597.319    21020593.908
  23120988.400   -10171390.24143  -7915442.10542  23120989.557    23120988.105
  24365464.419    -7591794.37743  -5426866.58242  24365466.180    24365463.455
 04  7 22  1 43  0.0000000  0  8G 3G19G27G13G28G 8G10G23
  23527606.972   -11535033.54343  -8974264.83042  23527608.457    23527607.000
  22577936.295   -14889651.73043 -11594504.65542  22577937.660    22577933.291
  20725799.364   -24381811.44144 -18973630.66842  20725801.029    20725797.617
  21135798.120   -24616528.25444 -19167409.32342  21135800.348    21135795.915
  22787141.423   -12686105.57643  -9873526.47842  22787143.311    22787140.664
  21011613.081   -26793872.64944 -20826968.59342  21011613.424    21011610.194
  23118217.666   -10185949.54443  -7926787.02942  23118219.009    23118217.571
  24386126.335    -7483216.76143  -5342260.80742  24386127.897    24386125.268
 04  7 22  1 43 30.0000000  0  8G 3G19G27G13G28G 8G10G23
  23537308.374   -11484051.79643  -8934538.82542  23537310.020    23537308.531
  22572900.954   -14916112.81143 -11615123.67142  22572902.377    22572897.704
  20724355.438   -24389399.36744 -18979543.33742  20724357.120    20724353.674
  21148358.394   -24550523.51944 -19115977.08642  21148360.595    21148356.295
  22770738.437   -12772303.40243  -9940693.52542  22770740.373    22770737.824
  21002671.029   -26840862.95044 -20863584.38742  21002671.402    21002668.268
  23115557.108   -10199930.36543  -7937681.15742  23115558.480    23115556.942
  24406812.644    -7374511.10143  -5257555.23742  24406814.245    24406811.351
 04  7 22  1 44  0.0000000  0  8G 3G19G27G13G28G 8G10G23
  23547107.812   -11432555.99543  -8894412.25842  23547109.441    23547107.906
  22567966.273   -14942043.66443 -11635329.48542  22567967.711    22567963.350
  20722950.376   -24396782.99844 -18985296.82042  20722952.081    20722948.640
  21161000.934   -24484086.98444 -19064208.38442  21161003.162    21160998.860
  22754385.969   -12858236.26743 -10007654.10642  22754387.893    22754385.377
  20993772.216   -26887626.52844 -20900023.52242  20993772.557    20993769.523
  23113007.937   -10213326.70843  -7948119.86942  23113009.383    23113007.745
  24427523.837    -7265673.24043  -5172746.64042  24427525.446    24427522.130
 04  7 22  1 44 30.0000000  0  8G 3G19G27G13G28G 8G10G23
  23557003.298   -11380554.54343  -8853891.69442  23557004.968    23557003.568
  22563131.896   -14967449.83643 -11655126.50142  22563133.227    22563128.648
  20721582.979   -24403968.76244 -18990896.10742  20721584.689    20721581.249
  21173723.837   -24417227.50344 -19012110.10542  21173726.109    21173721.742
  22738082.564   -12943910.08043 -10074412.83442  22738084.582    22738082.133
  20984915.303   -26934169.97044 -20936291.11642  20984915.626    20984912.518
  23110568.848   -10226145.51843  -7958108.55442  23110570.107    23110568.439
  24448258.812    -7156711.77943  -5087841.71242  24448260.408    24448256.707
 04  7 22  1 45  0.0000000  0  8G 3G19G27G13G28G 8G10G23
  23566996.074   -11328041.21343  -8812972.21942  23566997.808    23566996.701
  22558398.731   -14992322.17443 -11674507.54542  22558400.126    22558395.533
  20720254.686   -24410948.66844 -18996334.99342  20720256.437    20720253.024
  21186528.716   -24349937.66544 -18959676.49542  21186530.921    21186526.600
  22721830.319   -13029315.96343 -10140962.79042  22721832.259    22721829.832
  20976101.805   -26980485.20544 -20972380.89642  20976102.131    20976099.016
  23108240.706   -10238379.00843  -7967641.14042  23108242.012    23108240.523
  24469017.896    -7047620.94943  -5002835.97942  24469019.629    24469016.175
 04  7 22  1 45 30.0000000  0  8G 3G19G27G13G28G 8G10G23
  23577085.053   -11275024.38743  -8771660.44742  23577086.544    23577085.274
  22553765.987   -15016665.80143 -11693476.57742  22553767.358    22553763.272
  20718964.523   -24417728.62644 -19001618.07642  20718966.263    20718962.873
  21199413.875   -24282225.54344 -18906913.82942  21199416.097    21199411.839
  22705628.143   -13114459.08943 -10207308.00742  22705630.025    22705627.492
  20967330.620   -27026578.00644 -21008297.34342  20967330.961    20967327.764
  23106023.103   -10250033.53143  -7976722.56842  23106024.279    23106022.670
  24489800.562    -6938408.96943  -4917735.93642  24489802.238    24489798.606
 04  7 22  1 46  0.0000000  0  8G 3G19G27G13G28G 8G10G23
  23587269.708   -11221502.84743  -8729955.36642  23587271.282    23587270.193
  22549235.288   -15040476.64843 -11712030.46542  22549236.622    22549232.190
  20717712.948   -24424305.76544 -19006743.11342  20717714.693    20717711.277
  21212379.775   -24214089.49944 -18853820.82342  21212381.967    21212377.696
  22689476.579   -13199335.50643 -10273445.41642  22689478.502    22689475.936
  20958602.270   -27072445.23644 -21044038.03142  20958602.663    20958599.562
  23103915.893   -10261106.25443  -7985350.68842  23103917.168    23103915.525
  24510606.299    -6829075.17443  -4832540.84542  24510608.109    24510604.439
 04  7 22  1 46 30.0000000  0  8G 3G19G27G13G28G 8G10G23
  23597550.263   -11167478.88343  -8687858.80642  23597551.803    23597550.595
  22544805.531   -15063754.04543 -11730168.64442  22544807.009    22544802.480
  20716499.910   -24430680.07144 -19011710.10742  20716501.626    20716498.262
  21225425.975   -24145531.43444 -18800398.97942  21225428.169    21225423.811
  22673375.927   -13283944.94143 -10339374.77842  22673377.793    22673375.217
  20949916.964   -27118086.97644 -21079603.00142  20949917.366    20949914.238
  23101919.422   -10271597.79143  -7993525.89042  23101920.675    23101919.134
  24531434.754    -6719621.62743  -4747252.40542  24531436.532    24531433.339
 04  7 22  1 47  0.0000000  0  8G 3G19G27G13G28G 8G10G23
  23607925.745   -11112954.61043  -8645372.37942  23607927.428    23607926.055
  22540477.926   -15086497.01743 -11747890.40842  22540479.339    22540474.668
  20715325.514   -24436851.48844 -19016519.00442  20715327.219    20715323.878
  21238552.234   -24076552.69244 -18746649.34242  21238554.394    21238550.047
  22657326.254   -13368286.41543 -10405095.33142  22657328.037    22657325.558
  20941274.672   -27163503.04244 -21114992.12842  20941274.985    20941271.883
  23100033.278   -10281508.79943  -8001248.75342  23100034.561    23100033.324
  24552286.088    -6610050.43943  -4661872.42242  24552287.729    24552283.948
 04  7 22  1 47 30.0000000  0  7G 3G19G27G13G28G 8G10
  23618398.314   -11057922.73243  -8602490.43642  23618399.768    23618398.402
  22536253.684   -15108695.42643 -11765187.86142  22536255.052    22536250.557
  20714191.497   -24442810.69744 -19021162.54942  20714193.167    20714189.854
  21251759.959   -24007145.50744 -18692565.84842  21251762.101    21251757.944
  22641329.557   -13452349.63343 -10470599.06542  22641331.296    22641328.745
  20932677.029   -27208683.81244 -21150197.91442  20932677.373    20932674.233
  23098259.513   -10290830.44843  -8008512.35642  23098260.825    23098259.316
 04  7 22  1 48  0.0000000  0  7G 3G19G27G13G28G 8G10
  23628963.274   -11002401.90343  -8559227.46042  23628964.911    23628963.682
  22532129.923   -15130364.64643 -11782072.96242  22532131.380    22532127.009
  20713094.753   -24448574.08944 -19025653.50542  20713096.419    20713093.059
  21265045.810   -23937327.93944 -18638162.57842  21265047.958    21265043.806
  22625382.892   -13536150.23843 -10535898.17942  22625384.673    22625381.895
  20924121.120   -27253645.68944 -21185233.12042  20924121.482    20924118.190
  23096594.679   -10299579.15443  -8015329.54642  23096595.891    23096594.546
 04  7 22  1 48 30.0000000  0  7G 3G19G27G13G28G 8G10
  23639623.110   -10946385.28443  -8515578.20342  23639624.673    23639623.137
  22528109.103   -15151495.00743 -11798538.18242  22528110.469    22528105.940
  20712037.003   -24454132.68044 -19029984.86742  20712038.624    20712035.280
  21278411.092   -23867092.92244 -18583434.01942  21278413.213    21278408.958
  22609487.808   -13619678.84043 -10600985.34642  22609489.695    22609486.922
  20915608.436   -27298379.49844 -21220090.63142  20915608.846    20915605.585
  23095040.521   -10307746.68143  -8021693.84042  23095041.760    23095040.532
 04  7 22  1 49  0.0000000  0  7G 3G19G27G13G28G 8G10
  23650377.471   -10889871.60443  -8471541.56842  23650378.835    23650377.415
  22524191.374   -15172082.33443 -11814580.21542  22524192.719    22524188.386
  20711018.831   -24459482.89244 -19034153.86642  20711020.468    20711017.179
  21291856.276   -23796438.35844 -18528378.54142  21291858.457    21291854.090
  22593645.313   -13702930.96043 -10665857.05942  22593647.211    22593644.483
  20907139.857   -27342881.92544 -21254767.84442  20907140.254    20907137.009
  23093597.293   -10315330.07243  -8027602.98642  23093598.573    23093597.335
 04  7 22  1 49 30.0000000  0  7G 3G19G27G13G28G 8G10
  23661225.027   -10832865.01543  -8427120.88942  23661226.825    23661225.398
  22520376.675   -15192127.53843 -11830199.81542  22520378.081    22520373.923
  20710040.032   -24464626.65944 -19038161.98342  20710041.662    20710038.298
  21305380.550   -23725368.05544 -18472999.10942  21305382.697    21305378.472
  22577855.229   -13785907.89743 -10730514.34942  22577857.134    22577854.519
  20898714.951   -27387154.91144 -21289266.26142  20898715.344    20898712.129
  23092265.037   -10322332.12143  -8033059.12242  23092266.261    23092264.844
 04  7 22  1 50  0.0000000  0  7G 3G19G27G13G28G 8G10
  23672166.183   -10775370.93743  -8382320.28542  23672167.619    23672166.330
  22516665.094   -15211633.09743 -11845398.93942  22516666.440    22516661.955
  20709099.873   -24469567.18544 -19042011.73842  20709101.521    20709098.137
  21318983.057   -23653886.77844 -18417299.45342  21318985.211    21318980.901
  22562117.194   -13868612.24643 -10794959.22142  22562119.044    22562116.455
  20890333.197   -27431201.22644 -21323588.06042  20890333.530    20890330.366
  23091042.442   -10328756.14243  -8038064.87442  23091043.703    23091042.421
 04  7 22  1 50 30.0000000  0  7G 3G19G27G13G28G 8G10
  23683199.853   -10717387.72543  -8337138.58042  23683201.519    23683200.175
  22513056.850   -15230594.33343 -11860173.91342  22513058.208    22513053.676
  20708199.189   -24474300.28044 -19045699.86842  20708200.808    20708197.462
  21332664.031   -23581992.42544 -18361277.89942  21332666.215    21332661.975
  22546431.839   -13951039.21843 -10859187.97342  22546433.741    22546430.967
  20881995.481   -27475016.53344 -21357729.85542  20881995.754    20881992.653
  23089930.747   -10334599.24143  -8042617.91542  23089932.016    23089930.367
 04  7 22  1 51  0.0000000  0  7G 3G19G27G13G28G 8G10
  23694326.943   -10658914.65043  -8291575.16442  23694328.631    23694327.269
  22509552.801   -15249007.89243 -11874522.11642  22509554.141    22509549.691
  20707338.514   -24478823.23744 -19049224.25242  20707340.123    20707336.796
  21346423.990   -23509683.78644 -18304933.54742  21346426.136    21346421.851
  22530799.811   -14033185.22243 -10923197.78542  22530801.769    22530799.073
  20873702.268   -27518598.00444 -21391689.44142  20873702.540    20873699.422
  23088929.671   -10339858.84843  -8046716.33642  23088931.002    23088929.522
 04  7 22  1 51 30.0000000  0  7G 3G19G27G13G28G 8G10
  23705545.579   -10599960.54843  -8245636.94042  23705547.110    23705545.788
  22506152.144   -15266879.47243 -11888448.00842  22506153.460    22506148.898
  20706516.506   -24483142.77744 -19052590.13042  20706518.111    20706514.853
  21360261.090   -23436968.99043 -18248272.69342  21360263.269    21360259.100
  22515220.260   -14115056.31743 -10986993.36042  22515222.121    22515219.522
  20865452.203   -27561952.57144 -21425472.21442  20865452.526    20865449.314
  23088038.556   -10344542.76643  -8050366.12842  23088039.702    23088038.304
 04  7 22  1 52  0.0000000  0  7G 3G19G27G13G28G 8G10
  23716856.952   -10540518.77343  -8199318.74442  23716858.474    23716856.951
  22502856.012   -15284199.44143 -11901944.06142  22502857.395    22502852.990
  20705734.921   -24487249.74344 -19055790.35742  20705736.546    20705733.350
  21374176.871   -23363840.99944 -18191289.85842  21374179.046    21374174.914
  22499694.679   -14196642.82943 -11050567.20542  22499696.518    22499694.009
  20857247.179   -27605070.63444 -21459070.70542  20857247.538    20857244.161
  23087258.136   -10348642.41743  -8053560.67442  23087259.454    23087258.182
 04  7 22  1 52 30.0000000  0  7G 3G19G27G13G28G 8G10
  23728259.423   -10480599.24243  -8152628.23942  23728260.926    23728259.336
  22499663.974   -15300974.63743 -11915015.65042  22499665.274    22499660.688
  20704992.469   -24491151.43144 -19058830.62742  20704994.066    20704990.938
  21388169.728   -23290309.03344 -18133992.27042  21388171.832    21388167.618
  22484222.233   -14277951.62343 -11113924.65142  22484223.997    22484221.285
  20849085.666   -27647959.67344 -21492490.73042  20849086.079    20849082.648
  23086587.874   -10352165.88143  -8056306.24142  23086588.932    23086587.753
 04  7 22  1 53  0.0000000  0  8G 3G19G27G13G28G31G 8G10
  23739750.540   -10420212.54243  -8105573.69242  23739752.237    23739750.583
  22496573.763   -15317212.92643 -11927668.84642  22496575.151    22496570.674
  20704287.438   -24494856.33744 -19061717.56442  20704289.007    20704285.931
  21402237.321   -23216383.23944 -18076387.77342  21402239.496    21402235.366
  22468801.085   -14358990.22543 -11177071.56142  22468802.909    22468800.157
  24641325.095    -4700729.56853  -3605831.06352  24641327.024    24641328.301
  20840966.059   -27690628.24044 -21525738.96142  20840966.506    20840963.039
  23086025.083   -10355122.43443  -8058610.03842  23086026.345    23086025.161
 04  7 22  1 53 30.0000000  0  8G 3G19G27G13G28G31G 8G10
  23751336.025   -10359330.00843  -8058132.77942  23751337.791    23751336.289
  22493591.831   -15332882.63243 -11939878.97442  22493593.199    22493588.801
  20703625.789   -24498333.25444 -19064426.84942  20703627.326    20703624.306
  21416385.507   -23142034.31044 -18018453.57242  21416387.724    21416383.458
  22453437.311   -14439727.24943 -11239983.47042  22453439.147    22453436.243
  24619434.297    -4815766.26743  -3695469.84442  24619436.347    24619437.326
  20832894.454   -27733044.99544 -21558790.97342  20832894.918    20832891.368
  23085575.894   -10357482.04443  -8060448.69842  23085577.153    23085576.130
 04  7 22  1 54  0.0000000  0  8G 3G19G27G13G28G31G 8G10
  23763011.214   -10297978.00843  -8010326.06442  23763012.829    23763011.196
  22490713.831   -15348007.21143 -11951664.35842  22490715.171    22490710.622
  20703002.983   -24501606.13944 -19066977.14942  20703004.513    20703001.559
  21430609.242   -23067288.14244 -17960209.83942  21430611.493    21430607.242
  22438126.466   -14520185.94243 -11302678.50342  22438128.306    22438125.259
  24597531.330    -4930865.92143  -3785157.70142  24597533.414    24597534.295
  20824866.189   -27775233.62344 -21591665.22842  20824866.673    20824863.131
  23085235.941   -10359269.30343  -8061841.36442  23085237.231    23085235.899
 04  7 22  1 54 30.0000000  0  8G 3G19G27G13G28G31G 8G10
  23774777.149   -10236147.66443  -7962146.62242  23774778.824    23774777.107
  22487941.570   -15362574.87143 -11963015.75642  22487942.963    22487938.572
  20702421.135   -24504663.79244 -19069359.74042  20702422.633    20702419.723
  21444910.245   -22992135.57943 -17901649.43442  21444912.514    21444908.238
  22422870.732   -14600354.57543 -11365147.51342  22422872.594    22422869.600
  24575619.106    -5046014.98543  -3874884.09642  24575621.022    24575621.934
  20816883.505   -27817182.93244 -21624352.99842  20816883.996    20816880.478
  23085006.609   -10360473.68543  -8062779.85942  23085007.952    23085006.654
 04  7 22  1 55  0.0000000  0  8G 3G19G27G13G28G31G 8G10
  23786632.378   -10173846.94243  -7913600.59942  23786634.089    23786632.854
  22485274.614   -15376590.63043 -11973937.10342  22485275.954    22485271.383
  20701879.211   -24507511.72944 -19071578.92042  20701880.695    20701877.797
  21459287.245   -22916583.77043 -17842777.92842  21459289.509    21459285.309
  22407669.404   -14680237.81643 -11427394.15142  22407671.272    22407668.158
  24553697.191    -5161216.89243  -3964651.62542  24553699.210    24553699.535
  20808945.300   -27858898.11044 -21656858.32642  20808945.766    20808942.338
  23084887.267   -10361101.79543  -8063269.27942  23084888.483    23084887.179
 04  7 22  1 55 30.0000000  0  8G 3G19G27G13G28G31G 8G10
  23798577.529   -10111075.70743  -7864688.00842  23798579.135    23798577.867
  22482712.918   -15390051.65743 -11984426.19542  22482714.358    22482709.710
  20701377.689   -24510147.40544 -19073632.69442  20701379.188    20701376.254
  21473740.471   -22840631.96244 -17783594.73542  21473742.714    21473738.637
  22392522.937   -14759832.85243 -11489416.20742  22392524.783    22392521.639
  24531765.451    -5276466.89643  -4054456.69042  24531767.827    24531768.085
  20801052.024   -27900377.13144 -21689179.64042  20801052.483    20801049.194
  23084877.831   -10361151.95743  -8063308.41742  23084878.897    23084877.607
 04  7 22  1 56  0.0000000  0  8G 3G19G27G13G28G31G 8G10
  23810611.020   -10047838.98943  -7815412.69542  23810612.686    23810611.562
  22480256.594   -15402959.93743 -11994484.56642  22480257.982    22480253.435
  20700916.068   -24512573.21844 -19075522.94542  20700917.605    20700914.671
  21488269.025   -22764284.46244 -17724103.20942  21488271.275    21488267.198
  22377431.053   -14839141.35743 -11551214.97842  22377432.795    22377429.838
  24509824.675    -5391765.12243  -4144299.28442  24509827.089    24509827.498
  20793203.362   -27941621.67944 -21721318.22842  20793203.820    20793200.556
  23084977.796   -10360627.58943  -8062899.82442  23084978.888    23084977.480
 04  7 22  1 56 30.0000000  0  8G 3G19G27G13G28G31G 8G10
  23822733.781    -9984133.50943  -7765772.14842  23822735.414    23822734.203
  22477906.641   -15415309.18243 -12004107.33742  22477908.067    22477903.533
  20700495.500   -24514783.43844 -19077245.19842  20700497.060    20700494.089
  21502873.461   -22687537.79644 -17664300.63742  21502875.749    21502871.653
  22362394.643   -14918157.29543 -11612785.76542  22362396.435    22362393.699
  24487876.337    -5507103.79043  -4234173.39742  24487878.544    24487879.032
  20785400.514   -27982625.98244 -21753269.63442  20785400.882    20785397.673
  23085187.418   -10359524.03043  -8062039.90942  23085188.704    23085187.514
 04  7 22  1 57  0.0000000  0  8G 3G19G27G13G28G31G 8G10
  23834945.311    -9919963.33943  -7715769.49342  23834946.743    23834945.550
  22475662.626   -15427100.74743 -12013295.55742  22475664.056    22475659.684
  20700115.657   -24516779.49144 -19078800.55642  20700117.258    20700114.219
  21517553.215   -22610395.36543 -17604189.68342  21517555.454    21517551.250
  22347413.825   -14996881.63143 -11674129.33142  22347415.667    22347412.974
  24465920.511    -5622482.26143  -4324078.50242  24465922.580    24465923.227
  20777643.053   -28023391.74344 -21785035.15242  20777643.379    20777640.178
  23085507.318   -10357843.97443  -8060730.78142  23085508.428    23085507.169
 04  7 22  1 57 30.0000000  0  8G 3G19G27G13G28G31G 8G10
  23847243.704    -9855332.34243  -7665407.66942  23847245.366    23847244.604
  22473524.836   -15438335.42043 -12022049.85142  22473526.155    22473521.783
  20699776.254   -24518562.78444 -19080190.12742  20699777.885    20699774.876
  21532307.492   -22532860.35743 -17543772.82842  21532309.756    21532305.628
  22332488.486   -15075315.00643 -11735246.18742  22332490.375    22332487.577
  24443957.150    -5737899.49443  -4414013.88142  24443959.154    24443960.064
  20769930.781   -28063920.36644 -21816615.88042  20769931.097    20769927.814
  23085936.245   -10355589.54043  -8058974.07942  23085937.467    23085936.226
 04  7 22  1 58  0.0000000  0  8G 3G19G27G13G28G31G 8G10
  23859630.422    -9790239.69943  -7614686.17842  23859632.125    23859631.187
  22471493.493   -15449010.00843 -12030367.70542  22471494.794    22471490.392
  20699478.009   -24520130.08344 -19081411.38842  20699479.657    20699476.589
  21547136.930   -22454931.63243 -17483049.19142  21547139.158    21547135.047
  22317619.237   -15153453.95243 -11796133.62942  22317621.145    22317618.182
  24421987.475    -5853350.11943  -4503975.29542  24421989.394    24421990.436
  20762264.230   -28104208.41744 -21848009.16742  20762264.566    20762261.284
  23086474.988   -10352758.75543  -8056768.27542  23086476.262    23086474.747
 04  7 22  1 58 30.0000000  0  8G 3G19G27G13G28G31G 8G10
  23872103.690    -9724693.71143  -7563611.43842  23872105.187    23872104.130
  22469567.786   -15459129.65343 -12038253.11342  22469569.090    22469564.727
  20699219.783   -24521487.19244 -19082468.86642  20699221.460    20699218.309
  21562039.774   -22376616.66843 -17422024.59142  21562042.025    21562037.916
  22302805.011   -15231303.59443 -11856795.63342  22302806.865    22302803.807
  24400010.752    -5968837.70243  -4593965.47142  24400012.558    24400013.743
  20754642.445   -28144261.30144 -21879219.18842  20754642.833    20754639.471
  23087122.329   -10349358.35243  -8054118.64042  23087123.335    23087121.844
 04  7 22  1 59  0.0000000  0  8G 3G19G27G13G28G31G 8G10
  23884664.220    -9658688.59243  -7512178.93942  23884665.764    23884664.488
  22467749.355   -15468685.79043 -12045699.42242  22467750.680    22467746.271
  20699003.193   -24522625.40844 -19083355.78242  20699004.884    20699001.643
  21577017.262   -22297909.15143 -17360694.08342  21577019.520    21577015.384
  22288047.436   -15308855.08943 -11917225.32242  22288049.290    22288046.113
  24378029.051    -6084351.47343  -4683975.94442  24378031.085    24378031.761
  20747066.942   -28184070.84644 -21910239.61042  20747067.309    20747064.117
  23087879.119   -10345381.03043  -8051019.42242  23087880.320    23087878.928
 04  7 22  1 59 30.0000000  0  8G 3G19G27G13G28G31G 8G10
  23897311.209    -9592226.84943  -7460390.58542  23897312.915    23897311.791
  22466038.144   -15477678.18643 -12052706.45642  22466039.507    22466035.053
  20698828.241   -24523544.90444 -19084072.26542  20698829.935    20698826.625
  21592069.219   -22218811.33744 -17299059.44342  21592071.478    21592067.156
  22273346.657   -15386108.00443 -11977422.35342  22273348.541    22273345.276
  24356042.779    -6199889.44543  -4774005.38142  24356044.767    24356045.449
  20739537.813   -28223636.56844 -21941070.02442  20739538.201    20739534.935
  23088745.353   -10340828.00643  -8047471.63942  23088746.424    23088745.197
 04  7 22  2  0  0.0000000  0  8G 3G19G27G13G28G31G 8G10
  23910043.840    -9525316.35143  -7408252.53642  23910045.659    23910044.273
  22464433.227   -15486111.98043 -12059278.24142  22464434.564    22464430.136
  20698693.918   -24524250.81244 -19084622.31842  20698695.636    20698692.280
  21607193.953   -22139330.14643 -17237126.07642  21607196.258    21607191.996
  22258701.886   -15463066.95843 -12037390.32742  22258703.700    22258700.329
  24334051.289    -6315454.27043  -4864055.77942  24334053.206    24334054.149
  20732054.078   -28262963.83744 -21971714.64042  20732054.468    20732051.341
  23089720.514   -10335705.60343  -8043480.16642  23089721.599    23089719.829
 04  7 22  2  0 30.0000000  0  8G 3G19G27G13G28G31G 8G10
  23922862.413    -9457955.28543  -7355763.44042  23922864.032    23922862.568
  22462935.490   -15493982.41243 -12065411.05342  22462936.817    22462932.327
  20698601.095   -24524738.51744 -19085002.34542  20698602.818    20698599.404
  21622392.274   -22059463.26643 -17174892.18542  21622394.528    21622390.317
  22244113.871   -15539726.94343 -12097125.32742  22244115.747    22244112.317
  24312056.455    -6431039.37443  -4954121.91942  24312058.218    24312058.859
  20724616.649   -28302047.49444 -22002169.41942  20724617.074    20724613.860
  23090803.665   -10330010.56643  -8039042.50442  23090805.099    23090803.671
 04  7 22  2  1  0.0000000  0  8G 3G19G27G13G28G31G 8G10
  23935765.910    -9390145.71843  -7302924.85742  23935767.749    23935766.155
  22461544.939   -15501288.71843 -12071104.26242  22461546.328    22461541.869
  20698549.852   -24525007.81344 -19085212.18642  20698551.567    20698548.115
  21637663.491   -21979212.39843 -17112359.08342  21637665.726    21637661.644
  22229582.666   -15616087.37343 -12156626.91442  22229584.611    22229581.261
  24290057.739    -6546642.21643  -5044201.92242  24290059.631    24290060.067
  20717225.574   -28340887.96844 -22032434.72242  20717225.948    20717222.873
  23091996.595   -10323743.66743  -8034159.20142  23091997.877    23091996.108
 04  7 22  2  1 30.0000000  0  8G 3G19G27G13G28G31G 8G10
  23948754.783    -9321891.08743  -7249739.47242  23948756.411    23948754.682
  22460262.066   -15508031.59243 -12076358.43742  22460263.364    22460258.778
  20698540.109   -24525059.14944 -19085252.17642  20698541.841    20698538.334
  21653007.371   -21898580.11744 -17049528.77342  21653009.604    21653005.486
  22215108.644   -15692148.47543 -12215895.23942  22215110.452    22215107.210
  24268055.939    -6662260.89243  -5134294.17842  24268057.879    24268058.496
  20709880.805   -28379485.01644 -22062510.32942  20709881.214    20709878.077
  23093297.393   -10316906.87743  -8028831.87142  23093298.759    23093296.968
 04  7 22  2  2  0.0000000  0  8G 3G19G27G13G28G31G 8G10
  23961827.325    -9253193.49143  -7196208.87742  23961829.171    23961827.527
  22459086.062   -15514210.21343 -12081172.91542  22459087.507    22459083.005
  20698571.909   -24524891.90844 -19085121.86542  20698573.663    20698570.122
  21668423.407   -21817568.04643 -16986402.51942  21668425.632    21668421.592
  22200691.765   -15767909.06343 -12274929.41742  22200693.610    22200690.363
  24246052.057    -6777892.88643  -5224396.90442  24246053.770    24246054.485
  20702582.368   -28417838.22444 -22092395.94242  20702582.788    20702579.732
  23094706.899   -10309500.87743  -8023060.96442  23094708.111    23094706.537
 04  7 22  2  2 30.0000000  0  8G 3G19G27G13G28G31G 8G10
  23974983.626    -9184057.65743  -7142336.84642  23974985.411    23974983.612
  22458017.496   -15519826.64543 -12085549.35742  22458018.860    22458014.248
  20698644.921   -24524508.09944 -19084822.80842  20698646.674    20698643.133
  21683911.063   -21736180.07143 -16922983.37442  21683913.284    21683909.274
  22186331.932   -15843370.66943 -12333730.63142  22186333.758    22186330.461
  24224045.118    -6893537.66943  -5314509.56442  24224047.188    24224047.959
  20695330.026   -28455949.51044 -22122093.04142  20695330.444    20695327.333
  23096224.175   -10301528.93043  -8016849.08342  23096225.247    23096223.371
 04  7 22  2  3  0.0000000  0  8G 3G19G27G13G28G31G 8G10
  23988224.180    -9114478.56043  -7088119.40642  23988225.856    23988224.204
  22457057.089   -15524873.25743 -12089481.78042  22457058.554    22457053.983
  20698760.628   -24523900.09744 -19084349.04242  20698762.359    20698758.837
  21699471.199   -21654411.00143 -16859267.25642  21699473.374    21699469.495
  22172030.375   -15918525.62243 -12392292.87442  22172032.199    22172029.010
  24202038.038    -7009185.66943  -5404624.77342  24202039.775    24202040.418
  20688125.295   -28493810.81444 -22151595.34542  20688125.687    20688122.558
  23097849.972   -10292984.90843  -8010191.42142  23097850.914    23097849.124
 04  7 22  2  3 30.0000000  0  8G 3G19G27G13G28G31G 8G10
  24001547.391    -9044463.98643  -7033562.63442  24001549.273    24001547.761
  22456204.274   -15529355.32943 -12092974.31742  22456205.670    22456201.038
  20698918.018   -24523073.07344 -19083704.61242  20698919.706    20698916.235
  21715102.636   -21572268.20443 -16795259.92742  21715104.790    21715100.695
  22157786.265   -15993378.69643 -12450619.88142  22157788.017    22157785.027
  24180029.961    -7124839.65343  -5494744.64142  24180031.562    24180031.772
  20680966.886   -28531428.06344 -22180907.49242  20680967.246    20680964.174
  23099583.445   -10283875.56843  -8003093.23542  23099584.655    23099582.721
 04  7 22  2  4  0.0000000  0  8G 3G19G27G13G28G31G 8G10
  24014954.246    -8974010.38643  -6978663.77042  24014955.858    24014954.580
  22455460.039   -15533266.26443 -12096021.79642  22455461.484    22455456.936
  20699118.260   -24522020.82844 -19082884.68442  20699119.868    20699116.464
  21730805.716   -21489747.33043 -16730957.97742  21730807.954    21730803.990
  22143600.913   -16067923.16443 -12508706.41142  22143602.756    22143599.689
  24158021.785    -7240490.96943  -5584862.36842  24158023.550    24158024.049
  20673856.464   -28568794.17444 -22210023.93242  20673856.788    20673853.563
  23101425.064   -10274195.73343  -7995550.54742  23101426.336    23101424.628
 04  7 22  2  4 30.0000000  0  8G 3G19G27G13G28G31G 8G10
  24028442.597    -8903129.06943  -6923431.62142  24028444.133    24028442.999
  22454822.701   -15536615.06843 -12098631.22742  22454824.144    22454819.810
  20699359.734   -24520751.72644 -19081895.76742  20699361.329    20699357.971
  21746578.887   -21406859.04543 -16666369.76542  21746581.113    21746577.193
  22129472.856   -16142167.19543 -12566558.85142  22129474.608    22129471.580
  24136013.168    -7356146.15643  -5674983.11442  24136015.154    24136015.387
  20666792.135   -28605917.60244 -22238951.28242  20666792.435    20666789.107
  23103373.933   -10263955.61843  -7987571.24642  23103375.130    23103373.532
 04  7 22  2  5  0.0000000  0  9G 3G19G27G13G28G31G 8G10G29
  24042012.999    -8831815.45943  -6867862.59342  24042014.607    24042013.826
  22454293.950   -15539393.99443 -12100796.61442  22454295.313    22454290.912
  20699643.907   -24519258.34344 -19080732.08742  20699645.494    20699642.185
  21762422.859   -21323598.24843 -16601491.26442  21762425.094    21762421.216
  22115403.335   -16216103.25743 -12624171.31442  22115405.114    22115402.041
  24114005.797    -7471795.37543  -5765099.28142  24114007.690    24114007.943
  20659775.253   -28642791.23544 -22267683.98542  20659775.621    20659772.288
  23105430.121   -10253149.25443  -7979150.72442  23105431.323    23105429.924
  24758409.261    -5034895.58953  -3861344.38652  24758411.525    24758410.023
 04  7 22  2  5 30.0000000  0  9G 3G19G27G13G28G31G 8G10G29
  24055665.492    -8760072.46343  -6811959.05042  24055666.957    24055665.896
  22453873.451   -15541603.30343 -12102518.14542  22453874.809    22453870.378
  20699970.743   -24517540.75944 -19079393.71142  20699972.286    20699969.069
  21778337.492   -21239967.02543 -16536324.11842  21778339.704    21778335.663
  22101392.470   -16289730.90943 -12681543.46942  22101394.259    22101391.117
  24091999.840    -7587436.32443  -5855208.97442  24092001.757    24092002.191
  20652806.016   -28679415.08644 -22296222.04642  20652806.359    20652802.927
  23107594.385   -10241778.21443  -7970290.15442  23107595.471    23107593.603
  24739147.799    -5136113.10443  -3940215.09942  24739150.414    24739148.948
 04  7 22  2  6  0.0000000  0  9G 3G19G27G13G28G31G 8G10G29
  24069398.455    -8687905.77943  -6755725.30942  24069399.950    24069398.889
  22453560.820   -15543246.15843 -12103798.27442  22453562.140    22453557.690
  20700339.619   -24515601.98444 -19077882.98042  20700341.140    20700338.018
  21794321.420   -21155970.81643 -16470872.56742  21794323.640    21794319.748
  22087439.624   -16363052.70443 -12738677.28742  22087441.467    22087438.386
  24069995.743    -7703069.84943  -5945312.88642  24069997.387    24069997.756
  20645883.724   -28715791.73144 -22324567.48042  20645884.116    20645880.676
  23109864.555   -10229846.76343  -7960992.95842  23109865.831    23109864.527
  24719900.369    -5237258.49843  -4019029.64842  24719902.847    24719901.632
 04  7 22  2  6 30.0000000  0  9G 3G19G27G13G28G31G 8G10G29
  24083212.443    -8615313.30743  -6699159.80442  24083213.949    24083212.936
  22453356.857   -15544317.97643 -12104633.44142  22453358.205    22453353.708
  20700751.600   -24513437.10744 -19076196.05442  20700753.105    20700749.989
  21810375.266   -21071607.07243 -16405134.64042  21810377.445    21810373.766
  22073546.028   -16436063.74643 -12795568.94642  22073547.813    22073544.746
  24047994.172    -7818688.89343  -6035405.49842  24047995.954    24047995.898
  20639009.481   -28751916.21144 -22352716.41942  20639009.883    20639006.401
  23112242.476   -10217351.69643  -7951256.54942  23112243.529    23112241.996
  24700667.755    -5338325.32243  -4097782.92842  24700670.258    24700669.180
 04  7 22  2  7  0.0000000  0  9G 3G19G27G13G28G31G 8G10G29
  24097105.627    -8542301.74643  -6642267.70342  24097107.512    24097106.597
  22453260.784   -15544822.52343 -12105026.60142  22453262.177    22453257.679
  20701205.871   -24511049.90044 -19074335.89542  20701207.393    20701204.309
  21826497.996   -20986881.59943 -16339114.85142  21826500.121    21826496.489
  22059710.814   -16508767.64043 -12852221.29242  22059712.671    22059709.559
  24025994.988    -7934294.93243  -6125487.99842  24025996.899    24025996.689
  20632182.468   -28787792.32244 -22380671.83142  20632182.838    20632179.449
  23114726.417   -10204298.31043  -7941085.10242  23114727.472    23114725.793
  24681450.195    -5439315.75743  -4176476.73542  24681452.210    24681451.191
 04  7 22  2  7 30.0000000  0  9G 3G19G27G13G28G31G 8G10G29
  24111079.502    -8468870.59643  -6585048.72642  24111081.303    24111079.971
  22453273.373   -15544756.96843 -12104975.52842  22453274.693    22453270.158
  20701703.060   -24508437.27244 -19072300.08542  20701704.589    20701701.507
  21842689.713   -20901793.58943 -16272812.54142  21842691.829    21842688.209
  22045934.756   -16581160.97943 -12908631.63842  22045936.593    22045933.433
  24003999.454    -8049882.30143  -6215555.91342  24004001.355    24004001.103
  20625403.380   -28823416.77744 -22408431.13842  20625403.747    20625400.358
  23117316.824   -10190685.31043  -7930477.59842  23117317.951    23117316.791
  24662248.080    -5540225.22343  -4255107.42342  24662249.958    24662248.518
 04  7 22  2  8  0.0000000  0  9G 3G19G27G13G28G31G 8G10G29
  24125132.647    -8395021.06943  -6527503.70142  24125134.415    24125132.975
  22453394.534   -15544119.80943 -12104479.02342  22453395.902    22453391.476
  20702243.529   -24505597.23444 -19070087.06342  20702245.094    20702241.987
  21858950.373   -20816343.44043 -16206228.07442  21858952.470    21858948.774
  22032218.215   -16653241.61243 -12964798.33042  22032220.071    22032216.856
  23982007.840    -8165447.18143  -6305606.41242  23982009.748    23982009.751
  20618672.527   -28858787.43844 -22435992.67942  20618672.928    20618669.534
  23120014.076   -10176512.29343  -7919433.68042  23120015.073    23120013.621
  24643061.715    -5641050.21943  -4333672.30742  24643063.974    24643062.134
 04  7 22  2  8 30.0000000  0  9G 3G19G27G13G28G31G 8G10G29
  24139264.695    -8320755.77643  -6469634.66842  24139266.586    24139265.259
  22453624.631   -15542910.92043 -12103537.03442  22453626.012    22453621.503
  20702827.322   -24502529.58544 -19067696.68042  20702828.917    20702825.773
  21875279.507   -20730533.19043 -16139362.99442  21875281.671    21875277.858
  22018561.418   -16725008.89243 -13020720.85542  22018563.215    22018559.933
  23960021.442    -8280986.71643  -6395637.06942  23960023.282    23960023.175
  20611990.006   -28893904.29744 -22463356.45842  20611990.425    20611987.063
  23122817.238   -10161780.94543  -7907954.73342  23122818.306    23122816.891
  24623891.604    -5741788.95443  -4412169.99442  24623894.135    24623892.039
 04  7 22  2  9  0.0000000  0  9G 3G19G27G13G28G31G 8G10G29
  24153475.453    -8246076.90443  -6411443.34242  24153477.451    24153476.224
  22453963.464   -15541130.14543 -12102149.39942  22453964.847    22453960.413
  20703454.541   -24499233.73544 -19065128.48442  20703456.141    20703452.991
  21891677.024   -20644364.52843 -16072218.63442  21891679.178    21891675.275
  22004964.294   -16796462.10443 -13076398.64542  22004966.134    22004962.724
  23938039.994    -8396498.37643  -6485646.00342  23938041.970    23938041.843
  20605355.990   -28928766.36344 -22490521.69242  20605356.410    20605353.048
  23125726.633   -10146491.95043  -7896041.26042  23125727.659    23125726.347
  24604738.348    -5842439.34143  -4490598.82842  24604740.880    24604738.810
 04  7 22  2  9 30.0000000  0  9G 3G19G27G13G28G31G 8G10G29
  24167764.483    -8170990.24243  -6352934.34242  24167766.081    24167764.691
  22454410.671   -15538780.46643 -12100318.48142  22454412.002    22454407.554
  20704124.643   -24495712.45344 -19062384.63242  20704126.267    20704123.061
  21908141.589   -20557842.75243 -16004799.12242  21908143.741    21908139.897
  21991426.481   -16867603.75443 -13131833.65442  21991428.335    21991424.956
  23916064.289    -8511982.40143  -6575633.39642  23916066.129    23916065.694
  20598769.951   -28963376.21444 -22517490.39742  20598770.381    20598767.042
  23128741.330   -10130649.75543  -7883696.70842  23128742.340    23128740.849
  24585601.612    -5943002.60843  -4568959.78142  24585604.100    24585602.145
 04  7 22  2 10  0.0000000  0  9G 3G19G27G13G28G31G 8G10G29
  24182130.297    -8095496.31643  -6294107.96942  24182132.070    24182130.676
  22454966.283   -15535860.17043 -12098042.91442  22454967.689    22454963.126
  20704838.022   -24491963.45544 -19059463.34142  20704839.685    20704836.447
  21924673.519   -20470967.34343 -15937104.04942  21924675.727    21924671.827
  21977948.324   -16938431.58743 -13187024.13342  21977950.165    21977946.812
  23894094.357    -8627434.29243  -6665595.75742  23894096.254    23894095.707
  20592232.359   -28997731.86544 -22544261.01442  20592232.743    20592229.399
  23131861.152   -10114254.03043  -7870920.81442  23131862.320    23131861.060
  24566482.611    -6043474.95343  -4647249.87342  24566484.807    24566482.844
 04  7 22  2 10 30.0000000  0  9G 3G19G27G13G28G31G 8G10G29
  24196573.713    -8019596.60643  -6234965.36442  24196575.367    24196574.220
  22455630.968   -15532368.03043 -12095321.76542  22455632.328    22455627.657
  20705594.963   -24487985.50844 -19056363.64142  20705596.651    20705593.377
  21941272.340   -20383739.86043 -15869134.62742  21941274.581    21941270.816
  21964530.234   -17008943.81843 -13241968.68542  21964532.046    21964528.747
  23872131.432    -8742850.44243  -6755530.34642  23872133.281    23872132.702
  20585743.280   -29031831.72644 -22570832.31942  20585743.760    20585740.394
  23135086.399   -10097305.35343  -7857714.05842  23135087.552    23135086.285
  24547381.173    -6143853.36343  -4725466.79042  24547383.289    24547381.560
 04  7 22  2 11  0.0000000  0  9G 3G19G27G13G28G31G 8G10G29
  24211093.732    -7943294.46143  -6175509.19542  24211095.234    24211094.328
  22456403.920   -15528304.96143 -12092155.73342  22456405.392    22456400.845
  20706395.491   -24483778.65944 -19053085.58342  20706397.147    20706393.879
  21957937.729   -20296162.93943 -15800892.92942  21957939.952    21957936.191
  21951172.236   -17079140.78343 -13296667.56642  21951174.015    21951170.696
  23850175.653    -8858228.81143  -6845435.45042  23850177.583    23850176.779
  20579302.846   -29065676.56144 -22597204.91442  20579303.323    20579299.997
  23138416.417   -10079805.92343  -7844078.14742  23138417.575    23138416.152
  24528297.791    -6244136.56143  -4803609.51542  24528299.890    24528298.292
 04  7 22  2 11 30.0000000  0  9G 3G19G27G13G28G31G 8G10G29
  24225690.104    -7866589.55443  -6115739.16442  24225691.690    24225690.733
  22457286.451   -15523667.91343 -12088542.43442  22457287.765    22457283.122
  20707240.089   -24479339.72444 -19049626.68042  20707241.741    20707238.559
  21974669.726   -20208235.40643 -15732378.00742  21974671.931    21974668.301
  21937874.749   -17149018.98843 -13351118.08742  21937876.653    21937873.155
  23828227.989    -8973563.83243  -6935306.76342  23828230.074    23828228.998
  20572911.734   -29099261.89444 -22623375.28842  20572912.201    20572908.885
  23141851.578   -10061754.18343  -7830011.89142  23141852.781    23141851.442
  24509233.674    -6344319.80743  -4881674.31142  24509235.474    24509233.971
 04  7 22  2 12  0.0000000  0  9G 3G19G27G13G28G31G 8G10G29
  24240362.744    -7789485.73443  -6055658.34142  24240364.289    24240362.968
  22458277.592   -15518458.41243 -12084483.07242  22458279.064    22458274.347
  20708128.826   -24474669.66744 -19045987.68242  20708130.381    20708127.273
  21991468.104   -20119960.57943 -15663592.49642  21991470.179    21991466.351
  21924637.804   -17218579.37843 -13405320.93142  21924639.677    21924636.351
  23806288.784    -9088854.23643  -7025143.32742  23806290.767    23806289.821
  20566569.766   -29132589.03844 -22649344.47842  20566570.233    20566566.960
  23145391.311   -10043152.91843  -7815517.40142  23145392.582    23145391.039
  24490188.367    -6444402.38443  -4959660.67742  24490190.399    24490188.897
 04  7 22  2 12 30.0000000  0  9G 3G19G27G13G28G31G 8G10G29
  24255110.646    -7711985.84643  -5995268.88242  24255112.289    24255110.718
  22459377.805   -15512676.87343 -12079977.95842  22459379.222    22459374.702
  20709061.539   -24469768.25344 -19042168.40842  20709063.071    20709060.009
  22008331.776   -20031340.93143 -15594538.26642  22008333.913    22008330.236
  21911461.431   -17287821.41943 -13459275.71542  21911463.255    21911460.036
  23784358.539    -9204097.41943  -7114943.10642  23784360.524    23784359.792
  20560276.832   -29165658.21644 -22675112.65742  20560277.292    20560274.011
  23149035.029   -10024003.67543  -7800595.92642  23149036.471    23149035.024
  24471163.116    -6544382.68343  -5037567.35142  24471164.959    24471163.260
 04  7 22  2 13  0.0000000  0  9G 3G19G27G13G28G31G 8G10G29
  24269933.318    -7634091.35843  -5934571.89242  24269934.879    24269933.695
  22460586.997   -15506322.24843 -12075026.29242  22460588.390    22460583.875
  20710038.537   -24464634.13344 -19038167.79342  20710040.027    20710036.973
  22025261.100   -19942377.33943 -15525216.02542  22025263.211    22025259.491
  21898345.883   -17356743.73143 -13512981.37142  21898347.746    21898344.493
  23762437.832    -9319289.63643  -7204703.15242  23762439.850    23762439.191
  20554033.449   -29198467.58744 -22700678.39442  20554033.832    20554030.663
  23152783.526   -10004307.02043  -7785247.89842  23152784.731    23152783.340
  24452157.254    -6644257.67443  -5115391.97142  24452159.336    24452157.537
 04  7 22  2 13 30.0000000  0  9G 3G19G27G13G28G31G 8G10G29
  24284829.965    -7555808.01343  -5873571.92542  24284831.901    24284830.608
  22461904.802   -15499397.49343 -12069630.38142  22461906.193    22461901.568
  20711059.381   -24459269.84244 -19033987.82342  20711060.881    20711057.757
  22042254.806   -19853074.66843 -15455629.58742  22042256.964    22042253.153
  21885290.868   -17425348.65243 -13566439.68842  21885292.668    21885289.333
  23740527.319    -9434431.14243  -7294423.65442  23740529.259    23740528.582
  20547838.940   -29231019.35444 -22726043.39442  20547839.327    20547836.234
  23156635.265    -9984067.36943  -7769476.76742  23156636.366    23156634.633
  24433171.449    -6744028.19943  -5193135.17542  24433173.548    24433171.509
 04  7 22  2 14  0.0000000  0  9G 3G19G27G13G28G31G 8G10G29
  24299801.461    -7477133.12443  -5812266.87642  24299803.342    24299801.925
  22463331.864   -15491897.96043 -12063786.56942  22463333.302    22463329.005
  20712125.080   -24453669.80944 -19029624.16842  20712126.628    20712123.396
  22059313.549   -19763430.04543 -15385776.69942  22059315.663    22059312.114
  21872297.063   -17493630.74943 -13619646.47842  21872298.972    21872295.560
  23718627.369    -9549514.06843  -7384098.56142  23718629.518    23718629.093
  20541694.644   -29263307.91544 -22751203.29942  20541694.959    20541691.959
  23160590.518    -9963281.44643  -7753279.95442  23160591.749    23160590.014
  24414207.070    -6843687.10143  -5270791.39142  24414209.207    24414206.884
 04  7 22  2 14 30.0000000  0  9G 3G19G27G13G28G31G 8G10G29
  24314846.301    -7398072.08043  -5750660.95942  24314848.181    24314846.471
  22464867.893   -15483826.66143 -12057497.24342  22464869.260    22464864.821
  20713235.091   -24447836.61944 -19025078.83342  20713236.711    20713233.416
  22076436.534   -19673448.32843 -15315661.14742  22076438.626    22076435.044
  21859364.446   -17561592.27543 -13672603.46742  21859366.268    21859362.743
  23696738.402    -9664538.83643  -7473728.14142  23696740.550    23696740.356
  20535599.877   -29295335.85644 -22776160.12842  20535600.155    20535597.181
  23164649.171    -9941953.38743  -7736660.73142  23164650.260    23164648.752
  24395263.629    -6943235.23443  -5348361.30442  24395265.796    24395263.267
 04  7 22  2 15  0.0000000  0  9G 3G19G27G13G28G31G 8G10G29
  24329964.176    -7318626.29243  -5688755.18942  24329965.972    24329964.398
  22466512.964   -15475182.21343 -12050761.32742  22466514.275    22466509.708
  20714389.859   -24441768.31844 -19020350.28942  20714391.510    20714388.131
  22093623.521   -19583129.88743 -15245283.18042  22093625.587    22093622.050
  21846493.015   -17629231.33243 -13725309.20142  21846494.852    21846491.446
  23674861.826    -9779501.04343  -7563308.95442  23674863.664    23674863.500
  20529555.088   -29327101.14144 -22800912.28942  20529555.349    20529552.421
  23168811.060    -9920083.20243  -7719619.06342  23168812.222    23168810.335
  24376341.870    -7042669.36843  -5425842.34642  24376344.033    24376341.417
 04  7 22  2 15 30.0000000  0  9G 3G19G27G13G28G31G 8G10G29
  24345154.471    -7238799.38843  -5626552.44242  24345156.455    24345155.204
  22468266.735   -15465966.16743 -12043579.98742  22468268.077    22468263.695
  20715589.165   -24435465.86744 -19015439.29342  20715590.828    20715587.411
  22110874.255   -19492478.29443 -15174645.63642  22110876.204    22110872.567
  21833683.017   -17696548.75943 -13777764.28542  21833684.806    21833681.363
  23652997.432    -9894399.28143  -7652839.91042  23652999.227    23652999.123
  20523560.128   -29358604.63344 -22825460.45942  20523560.386    20523557.511
  23173075.127    -9897674.15243  -7702157.47642  23173076.417    23173074.727
  24357441.936    -7141988.69343  -5503233.96242  24357444.282    24357441.410
 04  7 22  2 16  0.0000000  0  9G 3G19G27G13G28G31G 8G10G29
  24360417.010    -7158594.83943  -5564055.46842  24360418.774    24360417.449
  22470128.870   -15456179.89943 -12035954.31542  22470130.226    22470125.829
  20716832.956   -24428929.60944 -19010346.10642  20716834.653    20716831.207
  22128187.600   -19401496.46143 -15103750.76742  22128189.584    22128185.903
  21820934.106   -17763544.95643 -13829969.08342  21820935.879    21820932.423
  23631145.836   -10009231.61343  -7742319.51542  23631147.558    23631147.235
  20517615.004   -29389846.48744 -22849804.75442  20517615.214    20517612.334
  23177441.859    -9874728.66443  -7684277.91742  23177442.868    23177441.309
  24338564.313    -7241192.03843  -5580535.17542  24338566.752    24338563.799
 04  7 22  2 16 30.0000000  0  9G 3G19G27G13G28G31G 8G10G29
  24375751.948    -7078010.85143  -5501262.85742  24375753.668    24375752.082
  22472100.625   -15445818.98143 -12027880.88342  22472101.891    22472097.510
  20718122.246   -24422154.36344 -19005066.70142  20718123.916    20718120.523
  22145564.229   -19310181.78943 -15032596.52542  22145566.247    22145562.532
  21808247.073   -17830214.92243 -13881919.64742  21808248.852    21808245.569
  23609307.592   -10123990.61943  -7831742.03542  23609309.502    23609309.239
  20511720.580   -29420822.01844 -22873941.52842  20511720.763    20511717.918
  23181910.716    -9851243.69843  -7665977.98642  23181911.711    23181910.250
  24319709.805    -7340272.68743  -5657740.79442  24319712.452    24319709.388
 04  7 22  2 17  0.0000000  0  9G 3G19G27G13G28G31G 8G10G29
  24391157.657    -6997053.60143  -5438179.35242  24391159.377    24391158.077
  22474180.732   -15434887.06743 -12019362.50142  22474182.037    22474177.865
  20719456.384   -24415143.36744 -18999603.60442  20719458.000    20719454.703
  22163003.015   -19218539.81643 -14961187.24342  22163005.057    22163001.454
  21795621.716   -17896561.52543 -13933618.24942  21795623.447    21795620.245
  23587483.518   -10238677.18243  -7921108.08542  23587485.244    23587484.981
  20505876.278   -29451534.00544 -22897872.93942  20505876.459    20505873.536
  23186481.538    -9827224.50343  -7647261.72742  23186482.632    23186480.995
  24300878.043    -7439232.02643  -5734851.89042  24300880.960    24300878.100
 04  7 22  2 17 30.0000000  0  9G 3G19G27G13G28G31G 8G10G29
  24406634.267    -6915723.39343  -5374805.21642  24406635.931    24406634.891
  22476370.109   -15423382.26743 -12010397.72942  22476371.395    22476366.951
  20720835.833   -24407893.95244 -18993954.71742  20720837.435    20720834.236
  22180504.372   -19126569.99643 -14889522.50842  22180506.455    22180502.748
  21783058.416   -17962582.01643 -13985062.72842  21783060.194    21783056.819
  23565673.916   -10353286.14743  -8010413.72142  23565675.787    23565675.334
  20500082.721   -29481979.25844 -22921596.51342  20500082.914    20500080.028
  23191154.010    -9802670.30343  -7628128.65042  23191155.179    23191153.539
  24282070.678    -7538065.78243  -5811865.10642  24282073.298    24282070.785
 04  7 22  2 18  0.0000000  0  9G 3G19G27G13G28G31G 8G10G29
  24422181.322    -6834023.61543  -5311143.10442  24422182.894    24422182.200
  22478668.022   -15411305.69743 -12000987.39142  22478669.388    22478665.152
  20722260.673   -24400406.40944 -18988120.28242  20722262.227    20722259.140
  22198067.474   -19034275.87843 -14817605.05742  22198069.620    22198065.775
  21770557.050   -18028276.85143 -14036253.46042  21770558.851    21770555.444
  23543879.645   -10467815.45743  -8099657.27342  23543881.514    23543881.055
  20494339.893   -29512158.09944 -22945112.48742  20494340.080    20494337.162
  23195927.577    -9777583.65843  -7608580.61542  23195928.935    23195927.259
  24263287.494    -7636772.66843  -5888779.48442  24263289.901    24263287.417
 04  7 22  2 18 30.0000000  0  9G 3G19G27G13G28G31G 8G10G29
  24437798.595    -6751955.63043  -5247194.10342  24437799.992    24437799.374
  22481075.197   -15398656.47143 -11991130.85942  22481076.490    22481072.204
  20723731.189   -24392678.80644 -18982098.78342  20723732.682    20723729.707
  22215692.007   -18941658.06343 -14745435.37542  22215694.223    22215690.240
  21758118.003   -18093644.49543 -14087189.23742  21758119.775    21758116.334
  23522101.575   -10582261.20843  -8188835.66542  23522103.373    23522102.691
  20488647.983   -29542069.35444 -22968419.95642  20488648.190    20488645.210
  23200802.751    -9751965.08443  -7588618.13742  23200804.014    23200802.490
  24244528.731    -7735349.41943  -5965592.48042  24244531.003    24244528.744
 04  7 22  2 19  0.0000000  0  9G 3G19G27G13G28G31G 8G10G29
  24453484.897    -6669522.84443  -5182960.81342  24453486.385    24453485.743
  22483590.797   -15385435.94943 -11980829.15342  22483592.170    22483587.928
  20725247.264   -24384711.76144 -18975890.70342  20725248.707    20725245.826
  22233377.654   -18848719.31143 -14673015.62842  22233379.844    22233376.102
  21745741.071   -18158685.34543 -14137870.34042  21745742.877    21745739.500
  23500339.295   -10696621.33443  -8277947.36842  23500341.266    23500340.538
  20483007.045   -29571712.87344 -22991518.79842  20483007.204    20483004.221
  23205778.639    -9725817.23943  -7568243.22742  23205779.798    23205778.379
  24225795.183    -7833794.72143  -6042303.04642  24225797.157    24225795.059
 04  7 22  2 19 30.0000000  0  9G 3G19G27G13G28G31G 8G10G29
  24469239.746    -6586730.38743  -5118447.26442  24469241.403    24469240.824
  22486215.073   -15371646.75543 -11970084.31642  22486216.303    22486211.980
  20726808.545   -24376507.25744 -18969497.58442  20726810.028    20726807.140
  22251123.473   -18755464.14943 -14600349.34142  22251125.696    22251122.193
  21733425.872   -18223401.09943 -14188298.13242  21733427.711    21733424.449
  23478593.972   -10810895.46443  -8366992.05342  23478595.610    23478594.816
  20477416.699   -29601090.37544 -23014410.35342  20477416.911    20477413.840
  23210854.326    -9699144.25643  -7547459.10442  23210855.542    23210854.009
  24207086.941    -7932109.05943  -6118911.52342  24207088.509    24207086.354
 04  7 22  2 20  0.0000000  0  9G 3G19G27G13G28G31G 8G10G29
  24485064.244    -6503573.32443  -5053649.61142  24485065.758    24485065.197
  22488948.482   -15357281.86843 -11958890.89342  22488949.856    22488945.441
  20728416.625   -24368057.20044 -18962913.12942  20728418.147    20728415.182
  22268930.669   -18661887.33443 -14527432.39942  22268932.837    22268929.217
  21721174.278   -18287784.00943 -14238466.57742  21721176.059    21721172.741
  23456866.153   -10925073.21243  -8455961.66142  23456868.066    23456867.278
  20471878.518   -29630193.52144 -23037088.13142  20471878.771    20471875.712
  23216031.404    -9671940.27243  -7526261.26042  23216032.394    23216030.777
  24188405.159    -8030282.49643  -6195410.22142  24188406.889    24188404.596
 04  7 22  2 20 30.0000000  0  9G 3G19G27G13G28G31G 8G10G29
  24500955.950    -6420062.32343  -4988576.13842  24500957.516    24500957.047
  22491790.008   -15342349.69743 -11947255.44842  22491791.341    22491786.772
  20730069.976   -24359368.99044 -18956143.10342  20730071.563    20730068.472
  22286797.055   -18567998.70543 -14454272.47342  22286799.227    22286795.753
  21708984.673   -18351841.57144 -14288381.51242  21708986.404    21708982.848
  23435156.376   -11039159.69343  -8544860.08242  23435158.094    23435157.182
  20466391.166   -29659029.95844 -23059558.07542  20466391.432    20466388.281
  23221306.962    -9644215.12943  -7504657.28742  23221308.256    23221306.931
  24169748.857    -8128320.74743  -6271803.60242  24169750.857    24169748.519
 04  7 22  2 21  0.0000000  0  9G 3G19G27G13G28G31G 8G10G29
  24516915.015    -6336195.48043  -4923225.41942  24516916.810    24516916.253
  22494740.203   -15326846.04043 -11935174.67142  22494741.570    22494736.998
  20731769.511   -24350437.83944 -18949183.77142  20731771.177    20731767.956
  22304723.443   -18473795.78043 -14380867.66342  22304725.566    22304722.008
  21696857.632   -18415568.81743 -14338039.07842  21696859.425    21696855.782
  23413465.281   -11153147.62743  -8633681.73042  23413467.064    23413466.007
  20460955.477   -29687594.72544 -23081816.33442  20460955.749    20460952.592
  23226682.442    -9615966.19343  -7482645.18542  23226683.663    23226682.413
  24151119.622    -8226217.62443  -6348086.82242  24151121.742    24151119.185
 04  7 22  2 21 30.0000000  0  9G 3G19G27G13G28G31G 8G10G29
  24532941.872    -6251974.42943  -4857598.69942  24532943.581    24532942.716
  22497799.312   -15310770.61043 -11922648.36142  22497800.586    22497796.182
  20733515.577   -24341262.28744 -18942033.99342  20733517.279    20733513.902
  22322709.286   -18379280.08243 -14307219.12342  22322711.448    22322707.736
  21684793.790   -18478964.82543 -14387438.48042  21684795.499    21684791.945
  23391793.256   -11267033.27043  -8722423.68642  23391795.206    23391794.236
  20455571.828   -29715886.15544 -23103861.59242  20455572.142    20455568.869
  23232158.050    -9587194.52143  -7460225.73142  23232159.162    23232157.561
  24132517.819    -8323969.83343  -6424257.31142  24132520.134    24132517.575
 04  7 22  2 22  0.0000000  0  9G 3G19G27G13G28G31G 8G10G29
  24549035.423    -6167403.30843  -4791699.17542  24549036.946    24549035.953
  22500966.868   -15294125.34543 -11909678.03842  22500968.148    22500963.498
  20735307.983   -24331843.05444 -18934694.33242  20735309.705    20735306.306
  22340753.949   -18284455.06843 -14233329.54242  22340756.128    22340752.507
  21672792.817   -18542030.06643 -14436580.17542  21672794.576    21672791.057
  23370141.278   -11380815.10143  -8811084.76542  23370143.121    23370142.014
  20450240.026   -29743905.01844 -23125694.47242  20450240.354    20450237.104
  23237731.476    -9557903.07843  -7437401.28442  23237732.834    23237731.795
  24113943.745    -8421576.58743  -6500314.44542  24113946.154    24113943.842
 04  7 22  2 22 30.0000000  0  9G 3G19G27G13G28G31G 8G10G29
  24565194.015    -6082489.42743  -4725532.57642  24565195.570    24565194.600
  22504241.871   -15276915.14043 -11896267.49042  22504243.192    22504238.538
  20737145.929   -24322184.40444 -18927168.11242  20737147.650    20737144.331
  22358856.390   -18189326.98443 -14159203.82742  22358858.578    22358855.040
  21660853.898   -18604768.84143 -14485467.46942  21660855.720    21660852.158
  23348508.600   -11494494.77943  -8899666.23942  23348510.598    23348509.152
  20444959.344   -29771655.41744 -23147318.15142  20444959.681    20444956.347
  23243403.746    -9528098.23743  -7414176.75742  23243404.817    23243403.350
  24095397.033    -8519040.33943  -6576260.15042  24095399.477    24095397.167
 04  7 22  2 23  0.0000000  0  9G 3G19G27G13G28G31G 8G10G29
  24581418.950    -5997226.98243  -4659094.36642  24581420.444    24581419.462
  22507625.891   -15259132.08943 -11882410.55842  22507627.231    22507622.483
  20739031.207   -24312277.17144 -18919448.19442  20739032.866    20739029.654
  22377017.204   -18093889.89143 -14084837.29942  22377019.503    22377016.226
  21648978.724   -18667172.54843 -14534093.67042  21648980.557    21648977.035
  23326897.636   -11608060.96143  -8988159.26142  23326899.692    23326898.446
  20439731.446   -29799128.21644 -23168725.52542  20439731.774    20439728.432
  23249174.280    -9497773.31243  -7390547.02942  23249175.381    23249174.052
  24076879.474    -8616350.38243  -6652086.11442  24076881.963    24076879.671
 04  7 22  2 23 30.0000000  0  9G 3G19G27G13G28G31G 8G10G29
  24597709.272    -5911621.52943  -4592388.89742  24597710.647    24597709.545
  22511118.264   -15240779.93843 -11868110.21142  22511119.613    22511114.611
  20740963.242   -24302124.09544 -18911536.71642  20740964.847    20740961.745
  22395236.516   -17998148.94743 -14010234.04442  22395238.689    22395235.110
  21637167.176   -18729243.47144 -14582460.55442  21637168.980    21637165.287
  23305308.209   -11721513.98643  -9076564.10142  23305310.321    23305308.925
  20434555.835   -29826326.12644 -23189918.69742  20434556.205    20434552.859
  23255042.873    -9466933.72043  -7366516.20542  23255043.924    23255042.806
  24058390.921    -8713507.76143  -6727793.08542  24058393.435    24058391.517
 04  7 22  2 24  0.0000000  0  9G 3G19G27G13G28G31G 8G10G29
  24614063.917    -5825677.67743  -4525419.69842  24614065.341    24614064.484
  22514718.191   -15221861.50543 -11853368.54242  22514719.607    22514714.865
  20742941.790   -24291726.73644 -18903434.88242  20742943.390    20742940.296
  22413512.167   -17902108.45443 -13935397.35142  22413514.454    22413511.002
  21625418.205   -18790983.70643 -14630569.75842  21625420.089    21625416.400
  23283740.492   -11834852.90443  -9164880.01542  23283742.512    23283741.202
  20429432.339   -29853250.09944 -23210898.41042  20429432.716    20429429.371
  23261009.135    -9435583.23443  -7342087.30142  23261010.146    23261008.527
  24039931.550    -8810512.16243  -6803380.86942  24039934.037    24039932.370
 04  7 22  2 24 30.0000000  0  8G19G27G13G28G31G 8G10G29
  22518429.001   -15202361.58043 -11838173.78342  22518430.395    22518425.568
  20744969.947   -24281068.99444 -18895130.15042  20744971.552    20744968.406
  22431847.812   -17805754.93843 -13860316.73142  22431850.011    22431846.574
  21613735.319   -18852377.26943 -14678408.84142  21613737.172    21613733.581
  23262197.994   -11948059.31243  -9253092.67142  23262200.180    23262198.764
  20424363.979   -29879884.48444 -23231652.47542  20424364.368    20424361.043
  23267074.223    -9403708.40543  -7317249.82642  23267075.435    23267073.932
  24021504.356    -8907345.92343  -6878835.67242  24021506.813    24021505.353
 04  7 22  2 25  0.0000000  0  8G19G27G13G28G31G 8G10G29
  22522244.944   -15182308.53843 -11822548.04542  22522246.406    22522241.456
  20747042.440   -24270177.98244 -18886643.65542  20747044.066    20747040.908
  22450237.294   -17709118.08343 -13785015.34542  22450239.527    22450235.855
  21602113.403   -18913451.22344 -14725998.88542  21602115.199    21602111.549
  23240675.641   -12061157.96343  -9341221.38642  23240677.984    23240676.840
  20419345.621   -29906255.86644 -23252201.59742  20419346.038    20419342.704
  23273234.329    -9371338.34543  -7292026.45042  23273235.305    23273233.808
  24003105.119    -9004034.29443  -6954177.19342  24003107.575    24003105.906
 04  7 22  2 25 30.0000000  0  8G19G27G13G28G31G 8G10G29
  22526169.241   -15161686.46843 -11806478.89442  22526170.651    22526165.782
  20749162.612   -24259036.53044 -18877962.01242  20749164.199    20749161.059
  22468683.178   -17612183.45443 -13709481.92242  22468685.433    22468682.111
  21590555.409   -18974188.95343 -14773326.93242  21590557.223    21590553.562
  23219177.610   -12174129.32243  -9429250.94642  23219179.746    23219178.780
  20414380.693   -29932346.95644 -23272532.30942  20414381.070    20414377.741
  23279491.096    -9338458.82543  -7266406.09542  23279492.119    23279490.859
  23984736.972    -9100558.68943  -7029390.96242  23984739.414    23984737.647
 04  7 22  2 26  0.0000000  0  8G19G27G13G28G31G 8G10G29
  22530201.110   -15140498.65843 -11789968.88842  22530202.508    22530197.831
  20751330.029   -24247646.91844 -18869086.99142  20751331.626    20751328.392
  22487185.332   -17514955.61643 -13633720.02542  22487187.518    22487183.995
  21579060.920   -19034592.72043 -14820394.76842  21579062.734    21579059.076
  23197704.211   -12286973.27443  -9517181.20342  23197706.222    23197705.123
  20409468.577   -29958160.22844 -23292646.54242  20409468.941    20409465.614
  23285843.541    -9305074.54243  -7240392.42342  23285844.631    23285843.751
  23966400.468    -9196919.67043  -7104477.35342  23966402.534    23966400.574
 04  7 22  2 26 30.0000000  0  8G19G27G13G28G31G 8G10G29
  22534340.631   -15118744.74443 -11773017.79142  22534342.094    22534337.394
  20753544.957   -24236007.55244 -18860017.35342  20753546.607    20753543.269
  22505742.373   -17417436.27943 -13557730.96142  22505744.616    22505741.123
  21567630.265   -19094661.01343 -14867201.19742  21567632.030    21567628.331
  23176255.889   -12399685.81443  -9605009.09342  23176257.715    23176256.364
  20404609.746   -29983693.56544 -23312542.64042  20404610.117    20404606.777
  23292292.571    -9271186.51243  -7213986.19542  23292293.668    23292292.348
  23948095.262    -9293113.89443  -7179433.80842  23948097.412    23948095.312
 04  7 22  2 27  0.0000000  0  8G19G27G13G28G31G 8G10G29
  22538588.013   -15096424.95443 -11755625.75842  22538589.417    22538584.646
  20755807.631   -24224117.36944 -18850752.27742  20755809.282    20755805.899
  22524355.196   -17319626.92043 -13481515.96842  22524357.261    22524353.707
  21556263.544   -19154393.06943 -14913745.61342  21556265.335    21556261.606
  23154833.082   -12512263.49643  -9692731.87842  23154835.060    23154833.515
  20399804.352   -30008945.93244 -23332219.80642  20399804.719    20399801.432
  23298836.609    -9236796.03743  -7187188.48742  23298837.879    23298836.829
  23929821.925    -9389138.43243  -7254258.08042  23929824.345    23929822.236
 04  7 22  2 27 30.0000000  0  8G19G27G13G28G31G 8G10G29
  22542942.491   -15073544.02543 -11737796.47242  22542943.668    22542938.765
  20758117.288   -24211979.88544 -18841294.50342  20758118.942    20758115.595
  22543021.776   -17221533.53843 -13405079.61942  22543023.912    22543020.493
  21544960.258   -19213792.72944 -14960031.02242  21544962.006    21544958.254
  23133435.569   -12624707.51143  -9780350.50542  23133437.478    23133435.904
  20395051.787   -30033920.92244 -23351680.82542  20395052.134    20395048.811
  23305475.420    -9201909.29443  -7160004.04842  23305476.558    23305475.548
  23911580.935    -9484995.18343  -7328951.59642  23911583.057    23911581.117
 04  7 22  2 28  0.0000000  0  8G19G27G13G28G31G 8G10G29
  22547404.682   -15050093.34243 -11719523.23342  22547406.105    22547401.275
  20760475.911   -24199585.00644 -18831636.15842  20760477.565    20760474.279
  22561743.802   -17123148.97143 -13328416.36742  22561745.985    22561742.423
  21533721.996   -19272849.95843 -15006049.60442  21533723.740    21533719.928
  23112066.149   -12737005.25243  -9867855.17042  23112067.835    23112066.310
  20390353.976   -30058608.27344 -23370917.71742  20390354.298    20390350.958
  23312210.237    -9166518.87743  -7132427.16642  23312211.320    23312210.283
  23893374.144    -9580672.36843  -7403505.16942  23893376.151    23893374.358
 04  7 22  2 28 30.0000000  0  8G19G27G13G28G31G 8G10G29
  22551972.990   -15026087.55143 -11700817.46242  22551974.347    22551969.399
  20762880.940   -24186946.42044 -18821787.91942  20762882.552    20762879.360
  22580518.235   -17024489.29443 -13251538.77542  22580520.416    22580516.787
  21522546.196   -19331578.76143 -15051812.29042  21522547.928    21522544.126
  23090722.232   -12849167.87543  -9955254.55342  23090723.953    23090722.575
  20385708.381   -30083021.27944 -23389940.82942  20385708.701    20385705.287
  23319037.670    -9130640.79543  -7104470.25442  23319038.719    23319037.604
  23875199.356    -9676181.95243  -7477928.17042  23875201.411    23875199.755
 04  7 22  2 29  0.0000000  0  8G19G27G13G28G31G 8G10G29
  22556648.883   -15001514.58843 -11681669.68942  22556650.344    22556645.429
  20765334.943   -24174050.37144 -18811739.05842  20765336.532    20765333.434
  22599346.998   -16925543.66943 -13174438.33442  22599349.146    22599345.665
  21511435.558   -19389965.44443 -15097308.36942  21511437.267    21511433.454
  23069406.844   -12961179.40343 -10042536.17642  23069408.638    23069407.489
  20381117.514   -30107146.31544 -23408739.54542  20381117.868    20381114.436
  23325960.055    -9094263.94143  -7076124.69842  23325961.186    23325959.880
  23857059.492    -9771508.36343  -7552208.42642  23857061.432    23857059.945
 04  7 22  2 29 30.0000000  0  8G19G27G13G28G31G 8G10G29
  22561432.224   -14976378.79243 -11662083.38442  22561433.600    22561428.756
  20767837.433   -24160900.07544 -18801492.07842  20767838.957    20767835.858
  22618228.932   -16826318.48443 -13097120.06642  22618231.083    22618227.592
  21500389.324   -19448013.71644 -15142540.78242  21500391.023    21500387.284
  23048120.395   -13073040.69143 -10129700.73342  23048122.438    23048121.047
  20376580.884   -30130986.37244 -23427316.20542  20376581.273    20376577.824
  23332976.073    -9057394.32243  -7047395.16742  23332977.317    23332976.365
  23838953.964    -9866653.21743  -7626347.19942  23838955.969    23838954.411
 04  7 22  2 30  0.0000000  0  8G19G27G13G28G31G 8G10G29
  22566321.883   -14950682.21643 -11642060.07742  22566323.371    22566318.656
  20770388.121   -24147495.95144 -18791047.31842  20770389.650    20770386.541
  22637163.654   -16726816.31543 -13019585.99942  22637165.665    22637162.265
  21489407.422   -19505724.28043 -15187510.04742  21489409.137    21489405.215
  23026862.819   -13184749.68343 -10216746.63942  23026864.875    23026863.308
  20372098.459   -30154541.77444 -23445671.05342  20372098.842    20372095.335
  23340085.170    -9020035.08543  -7018284.09642  23340086.432    23340085.176
  23820882.979    -9961615.08543  -7700343.43042  23820885.209    23820883.660
 04  7 22  2 30 30.0000000  0  8G19G27G13G28G31G 8G10G29
  22571318.149   -14924426.93343 -11621601.43842  22571319.645    22571314.931
  20772986.958   -24133839.04444 -18780405.57642  20772988.535    20772985.301
  22656150.155   -16627041.11443 -12941839.14742  22656152.241    22656148.859
  21478489.397   -19563098.30243 -15232217.05142  21478491.153    21478487.365
  23005634.459   -13296304.94943 -10303672.75642  23005636.543    23005635.036
  20367670.029   -30177813.54844 -23463804.89542  20367670.414    20367666.854
  23347287.185    -8982189.92443  -6988794.37542  23347288.327    23347286.729
  23802847.465   -10056393.28943  -7774196.52442  23802849.366    23802847.989
 04  7 22  2 31  0.0000000  0  8G19G27G13G28G31G 8G10G29
  22576421.420   -14897609.04843 -11600704.39042  22576422.836    22576418.236
  20775634.945   -24119923.86644 -18769562.58642  20775636.591    20775633.210
  22675189.080   -16526990.04243 -12863877.34642  22675191.322    22675187.804
  21467636.522   -19620130.63844 -15276657.80842  21467638.267    21467634.415
  22984436.940   -13407698.62643 -10390472.93842  22984438.893    22984437.355
  20363296.680   -30200795.54344 -23481712.93842  20363297.118    20363293.520
  23354581.721    -8943856.03143  -6958923.86042  23354582.931    23354582.119
  23784847.889   -10150980.52543  -7847900.82742  23784849.772    23784848.565
 04  7 22  2 31 30.0000000  0  8G19G27G13G28G31G 8G10G29
  22581630.275   -14870237.31043 -11579375.78942  22581631.612    22581626.799
  20778330.689   -24105757.62844 -18758523.96142  20778332.374    20778328.910
  22694278.833   -16426673.26143 -12785708.47942  22694281.089    22694277.670
  21456847.201   -19676828.77944 -15320838.16242  21456848.916    21456845.149
  22963269.244   -13518935.58843 -10477151.00642  22963271.244    22963269.459
  20358977.049   -30223495.33544 -23499401.08042  20358977.508    20358973.845
  23361967.895    -8905043.35543  -6928680.23642  23361968.951    23361967.721
  23766883.979   -10245382.32743  -7921460.61942  23766885.613    23766884.390
 04  7 22  2 32  0.0000000  0  8G19G27G13G28G31G 8G10G29
  22586945.713   -14842303.55443 -11557609.21642  22586947.189    22586942.567
  20781075.990   -24091330.91344 -18747282.37642  20781077.664    20781074.262
  22713420.247   -16326083.98043 -12707327.24742  22713422.491    22713419.262
  21446123.212   -19733183.44243 -15364750.85542  21446124.975    21446121.126
  22942133.450   -13630003.83743 -10563697.62742  22942135.463    22942133.886
  20354712.978   -30245903.33644 -23516861.85742  20354713.449    20354709.732
  23369445.929    -8865745.23043  -6898058.36342  23369447.056    23369445.545
  23748957.398   -10339587.68543  -7994867.35442  23748959.111    23748957.675
 04  7 22  2 32 30.0000000  0  8G19G27G13G28G31G 8G10G29
  22592366.837   -14813815.74743 -11535410.94642  22592368.214    22592363.513
  20783869.661   -24076649.99144 -18735842.70642  20783871.260    20783868.011
  22732612.166   -16225231.34943 -12628740.84642  22732614.208    22732610.816
  21435463.361   -19789201.53344 -15408401.27942  21435465.073    21435461.163
  22921029.381   -13740907.50243 -10650115.95542  22921031.274    22921029.583
  20350503.258   -30268025.53544 -23534099.92642  20350503.776    20350500.006
  23377014.690    -8825970.60843  -6867065.16842  23377016.060    23377014.899
  23731067.412   -10433601.03543  -8068124.45142  23731069.151    23731067.390
 04  7 22  2 33  0.0000000  0  8G19G27G13G28G31G 8G10G29
  22597894.457   -14784767.18943 -11512775.70742  22597895.821    22597891.358
  20786713.291   -24061706.80244 -18724198.67142  20786714.833    20786711.638
  22751854.821   -16124109.95243 -12549945.03842  22751856.820    22751853.701
  21424869.020   -19844874.96644 -15451783.14742  21424870.769    21424866.815
  22899957.987   -13851635.78143 -10736397.64842  22899960.067    22899958.794
  20346349.516   -30289853.55244 -23551108.76942  20346350.023    20346346.251
  23384675.374    -8785713.98443  -6835696.41042  23384676.470    23384675.428
  23713215.461   -10527412.37543  -8141224.13242  23713217.570    23713215.638
 04  7 22  2 33 30.0000000  0  8G19G27G13G28G31G 8G10G29
  22603527.468   -14755166.15243 -11489709.95442  22603528.786    22603524.371
  20789605.534   -24046507.82044 -18712355.31842  20789607.090    20789603.907
  22771146.907   -16022729.39243 -12470947.26042  22771148.935    22771145.946
  21414338.828   -19900210.94543 -15494902.07042  21414340.645    21414336.782
  22878919.874   -13962192.92643 -10822545.96242  22878921.582    22878920.525
  20342250.472   -30311393.93544 -23567893.48142  20342250.975    20342247.272
  23392425.678    -8744985.00443  -6803959.55942  23392426.708    23392425.516
  23695401.124   -10621026.58343  -8214170.25342  23695403.301    23695401.419
 04  7 22  2 34  0.0000000  0  9G19G27G13G28G31G 8G10G29G26
  22609263.891   -14725020.14843 -11466219.57042  22609265.272    22609260.788
  20792545.304   -24031058.97744 -18700317.27242  20792546.867    20792543.703
  22790487.007   -15921098.04443 -12391754.07142  22790489.081    22790485.771
  21403871.839   -19955215.58444 -15537762.79842  21403873.556    21403869.683
  22857913.449   -14072582.35043 -10908563.60242  22857915.253    22857913.951
  20338205.050   -30332652.50844 -23584458.60442  20338205.508    20338201.978
  23400264.427    -8703792.28243  -6771861.37842  23400265.551    23400264.467
  23677623.850   -10714447.74643  -8286965.90842  23677625.885    23677623.705
  24302121.268    -5890324.95853  -4284586.77752  24302124.137    24302123.162
 04  7 22  2 34 30.0000000  0  9G19G27G13G28G31G 8G10G29G26
  22615108.158   -14694308.79543 -11442288.66342  22615109.437    22615105.148
  20795536.841   -24015338.66044 -18688067.68742  20795538.345    20795535.182
  22809877.997   -15819197.09543 -12312350.78042  22809880.220    22809876.742
  21393471.847   -20009867.60544 -15580348.76542  21393473.593    21393469.823
  22836943.437   -14182779.99843 -10994431.80942  22836945.181    22836943.792
  20334217.419   -30353607.43444 -23600787.11942  20334217.829    20334214.419
  23408195.278    -8662116.86943  -6739387.11742  23408196.132    23408195.074
  23659887.624   -10807652.48743  -8359592.92242  23659889.898    23659887.062
  24282406.189    -5993929.13443  -4365317.19942  24282408.724    24282407.885
 04  7 22  2 35  0.0000000  0  9G19G27G13G28G31G 8G10G29G26
  22621057.752   -14663044.37043 -11417926.76842  22621058.822    22621054.512
  20798578.077   -23999357.39544 -18675614.76342  20798579.561    20798576.387
  22829318.114   -15717039.98043 -12232747.91342  22829320.334    22829316.822
  21383137.029   -20064177.66144 -15622668.25642  21383138.745    21383134.942
  22816008.365   -14292793.99843 -11080156.92342  22816010.083    22816008.805
  20330285.619   -30374269.07244 -23616887.09542  20330285.985    20330282.645
  23416214.656    -8619972.42443  -6706547.29042  23416216.026    23416214.723
  23642190.293   -10900649.55143  -8432058.14142  23642192.934    23642190.055
  24262723.883    -6097359.89843  -4445912.49442  24262726.315    24262725.466
 04  7 22  2 35 30.0000000  0  9G19G27G13G28G31G 8G10G29G26
  22627111.701   -14631229.26543 -11393135.79842  22627113.035    22627108.452
  20801668.842   -23983115.73544 -18662958.93042  20801670.384    20801667.146
  22848805.852   -15614630.12343 -12152948.06542  22848808.179    22848804.867
  21372866.976   -20118146.99644 -15664722.25042  21372868.685    21372864.841
  22795108.619   -14402622.60343 -11165737.56442  22795110.260    22795108.665
  20326409.577   -30394637.80044 -23632758.83542  20326409.889    20326406.651
  23424323.576    -8577362.28943  -6673344.64442  23424324.721    23424323.430
  23624533.495   -10993437.57943  -8504360.44942  23624535.832    23624532.997
  24243074.960    -6200616.10343  -4526371.77642  24243077.248    24243076.441
 04  7 22  2 36  0.0000000  0  9G19G27G13G28G31G 8G10G29G26
  22633270.483   -14598865.63643 -11367917.39842  22633271.657    22633267.262
  20804808.912   -23966614.40844 -18650100.76742  20804810.527    20804807.307
  22868341.438   -15511971.08343 -12072954.09342  22868343.815    22868340.183
  21362661.516   -20171776.62944 -15706511.53642  21362663.239    21362659.432
  22774244.684   -14512264.00743 -11251172.34542  22774246.393    22774244.451
  20322589.189   -30414714.20844 -23648402.78942  20322589.470    20322586.247
  23432519.783    -8534290.13643  -6639782.00642  23432520.793    23432519.992
  23606916.200   -11086015.73143  -8576499.22742  23606918.576    23606916.016
  24223459.454    -6303696.69843  -4606694.22842  24223461.779    24223460.804
 04  7 22  2 36 30.0000000  0  9G19G27G13G28G31G 8G10G29G26
  22639533.979   -14565949.07943 -11342268.13442  22639535.467    22639531.024
  20807999.467   -23949847.58344 -18637035.71742  20808001.097    20807997.913
  22887924.810   -15409059.72443 -11992763.50142  22887927.342    22887923.637
  21352521.854   -20225061.02744 -15748031.82842  21352523.570    21352519.669
  22753417.366   -14621709.75043 -11336454.69342  22753419.269    22753417.698
  20318825.518   -30434492.40644 -23663814.37142  20318825.805    20318822.585
  23440804.791    -8490753.02343  -6605857.00742  23440805.870    23440804.611
  23589340.560   -11178376.17443  -8648468.36742  23589342.717    23589340.287
  24203878.261    -6406593.63043  -4686873.58342  24203881.082    24203879.985
 04  7 22  2 37  0.0000000  0  9G19G27G13G28G31G 8G10G29G26
  22645901.925   -14532487.58443 -11316194.26542  22645903.110    22645898.551
  20811239.380   -23932821.39044 -18623768.55942  20811241.005    20811237.794
  22907554.575   -15305904.80043 -11912383.10842  22907557.011    22907553.650
  21342446.557   -20278006.82344 -15789288.24642  21342448.305    21342444.391
  22732627.200   -14730963.67043 -11421587.51042  22732629.008    22732627.222
  20315117.503   -30453978.35444 -23678998.22842  20315117.777    20315114.542
  23449176.434    -8446759.97543  -6571576.77442  23449177.494    23449176.088
  23571805.735   -11270523.42443  -8720271.36242  23571807.581    23571805.160
  24184331.699    -6509311.13143  -4766913.10542  24184334.342    24184333.270
 04  7 22  2 37 30.0000000  0  9G19G27G13G28G31G 8G10G29G26
  22652374.101   -14498475.84743 -11289691.62242  22652375.403    22652370.865
  20814530.158   -23915528.47244 -18610293.56142  20814531.738    20814528.394
  22927231.479   -15202502.27743 -11831809.78542  22927233.893    22927230.498
  21332437.080   -20330607.14744 -15830275.46842  21332438.820    21332434.906
  22711874.886   -14840016.11043 -11506563.37342  22711876.808    22711875.320
  20311466.456   -30473164.52144 -23693948.49042  20311466.738    20311463.525
  23457635.010    -8402306.76743  -6536937.96242  23457636.433    23457635.459
  23554313.212   -11362448.36843  -8791901.12442  23554315.106    23554312.411
  24164821.361    -6611840.06843  -4846805.70542  24164823.756    24164822.733
 04  7 22  2 38  0.0000000  0  9G19G27G13G28G31G 8G10G29G26
  22658949.632   -14463921.21143 -11262765.94742  22658950.952    22658946.341
  20817870.506   -23897974.91144 -18596615.46542  20817872.097    20817868.693
  22946954.064   -15098860.72143 -11751050.23542  22946956.462    22946952.949
  21322492.081   -20382868.17944 -15870998.31342  21322493.870    21322489.930
  22691160.630   -14948870.46343 -11591384.83842  22691162.465    22691161.008
  20307871.483   -30492056.47144 -23708669.48042  20307871.755    20307868.506
  23466180.712    -8357401.70643  -6501947.06042  23466181.879    23466180.551
  23536861.752   -11454154.93243  -8863360.75942  23536863.922    23536861.226
  24145345.744    -6714184.28043  -4926554.39242  24145348.195    24145347.316
 04  7 22  2 38 30.0000000  0  9G19G27G13G28G31G 8G10G29G26
  22665630.182   -14428814.11743 -11235409.76742  22665631.585    22665627.191
  20821262.612   -23880149.10344 -18582725.23242  20821264.228    20821260.897
  22966723.332   -14994971.60843 -11670097.72542  22966725.797    22966722.386
  21312613.818   -20434779.12744 -15911448.37342  21312615.565    21312611.511
  22670486.509   -15057512.82843 -11676041.16642  22670488.343    22670487.006
  20304334.576   -30510642.84444 -23723152.37142  20304334.842    20304331.631
  23474813.045    -8312036.60043  -6466597.67642  23474814.459    23474813.362
  23519454.721   -11545630.17543  -8934640.11742  23519456.812    23519454.129
  24125908.137    -6816330.65343  -5006148.87842  24125910.361    24125909.366
 04  7 22  2 39  0.0000000  0  9G19G27G13G28G31G 8G10G29G26
  22672413.427   -14393169.35343 -11207634.67042  22672414.691    22672410.060
  20824704.083   -23862064.13444 -18568633.06242  20824705.647    20824702.474
  22986537.098   -14890850.61043 -11588964.56242  22986539.395    22986535.814
  21302799.419   -20486353.21043 -15951635.94442  21302801.256    21302797.264
  22649851.128   -15165953.87343 -11760540.58042  22649852.747    22649851.307
  20300853.295   -30528937.00144 -23737407.55342  20300853.596    20300850.368
  23483530.496    -8266227.56543  -6430902.42242  23483531.630    23483530.735
  23502089.323   -11636885.12543  -9005747.82542  23502091.637    23502089.153
  24106505.590    -6918290.29743  -5085597.87942  24106508.040    24106506.863
 04  7 22  2 39 30.0000000  0  9G19G27G13G28G31G 8G10G29G26
  22679299.773   -14356980.61543 -11179435.63842  22679301.109    22679296.591
  20828196.398   -23843711.94444 -18554332.66342  20828197.921    20828194.775
  23006395.809   -14786492.19043 -11507646.39642  23006398.004    23006394.883
  21293050.738   -20537582.94844 -15991555.19342  21293052.486    21293048.534
  22629255.658   -15274182.95543 -11844874.84442  22629257.413    22629255.907
  20297429.400   -30546929.43744 -23751427.63042  20297429.726    20297426.543
  23492333.167    -8219969.38243  -6394857.11942  23492334.280    23492333.213
  23484768.065   -11727909.85243  -9076676.12742  23484770.293    23484768.065
  24087141.036    -7020053.06943  -5164893.43242  24087143.228    24087141.838
 04  7 22  2 40  0.0000000  0  9G19G27G13G28G31G 8G10G29G26
  22686290.178   -14320247.08543 -11150812.16542  22686291.509    22686286.845
  20831740.011   -23825089.89544 -18539821.99342  20831741.554    20831738.390
  23026299.602   -14681897.63243 -11426144.22442  23026301.798    23026298.548
  21283367.991   -20588466.31844 -16031204.54842  21283369.748    21283365.773
  22608701.598   -15382195.15243 -11929040.11742  22608703.368    22608701.831
  20294063.317   -30564618.51844 -23765211.32942  20294063.615    20294060.403
  23501221.561    -8173262.69843  -6358462.35942  23501222.574    23501221.274
  23467490.824   -11818700.10243  -9147421.71142  23467493.203    23467491.188
  24067814.365    -7121614.25843  -5244031.94542  24067816.837    24067815.156
 04  7 22  2 40 30.0000000  0  9G19G27G13G28G31G 8G10G29G26
  22693383.340   -14282970.50943 -11121765.48342  22693384.843    22693380.371
  20835335.060   -23806198.00344 -18525101.04442  20835336.592    20835333.317
  23046247.921   -14577068.77643 -11344459.47342  23046250.138    23046247.143
  21273751.087   -20639003.47044 -16070584.11842  21273752.851    21273748.791
  22588189.175   -15489987.82943 -12013034.34842  22588190.895    22588189.657
  20290755.082   -30582003.49344 -23778758.05842  20290755.362    20290752.121
  23510193.939    -8126110.30543  -6321720.29142  23510195.302    23510194.394
  23450258.942   -11909253.86743  -9217983.04142  23450261.124    23450259.122
  24048526.510    -7222971.83243  -5323011.80042  24048529.005    24048527.254
 04  7 22  2 41  0.0000000  0  9G19G27G13G28G31G 8G10G29G26
  22700578.912   -14245159.34443 -11092302.27442  22700580.245    22700575.730
  20838980.235   -23787042.79144 -18510174.92242  20838981.778    20838978.487
  23066239.121   -14472015.41343 -11262599.78442  23066241.347    23066238.176
  21264198.704   -20689201.52444 -16109699.44142  21264200.458    21264196.422
  22567718.005   -15597565.19543 -12096860.77742  22567719.613    22567718.154
  20287503.449   -30599091.10944 -23792073.08442  20287503.712    20287500.460
  23519249.758    -8078521.86543  -6284638.46242  23519250.871    23519250.015
  23433071.390   -11999575.88743  -9288363.78542  23433073.321    23433071.411
  24029276.566    -7324130.62843  -5401836.77842  24029279.086    24029277.355
 04  7 22  2 41 30.0000000  0  9G19G27G13G28G31G 8G10G29G26
  22707876.631   -14206807.73443 -11062417.93742  22707878.085    22707873.648
  20842676.917   -23767616.62944 -18495037.65942  20842678.534    20842675.211
  23086273.664   -14366732.56043 -11180561.30142  23086275.912    23086272.857
  21254712.011   -20739053.19144 -16148544.83642  21254713.865    21254709.996
  22547289.465   -15704917.00043 -12180511.45442  22547291.208    22547289.789
  20284310.031   -30615872.70244 -23805149.63742  20284310.320    20284307.006
  23528389.904    -8030492.86243  -6247213.27742  23528391.148    23528389.698
  23415929.316   -12089656.67943  -9358556.56142  23415931.387    23415929.565
  24010066.210    -7425080.90543  -5480499.25642  24010068.930    24010066.880
 04  7 22  2 42  0.0000000  0  9G19G27G13G28G31G 8G10G29G26
  22715277.387   -14167918.35343 -11032114.54942  22715278.628    22715274.196
  20846425.057   -23747920.08144 -18479689.71142  20846426.686    20846423.411
  23106351.303   -14261224.08643 -11098346.97742  23106353.440    23106350.675
  21245291.320   -20788559.82744 -16187121.39742  21245293.098    21245289.084
  22526904.202   -15812041.59743 -12263985.07542  22526905.961    22526904.562
  20281174.553   -30632349.56244 -23817988.74542  20281174.891    20281171.532
  23537612.446    -7982026.64343  -6209447.49042  23537613.692    23537612.902
  23398833.873   -12179495.15843  -9428560.51842  23398835.687    23398833.592
  23990895.866    -7525821.36743  -5558998.24642  23990898.519    23990896.372
 04  7 22  2 42 30.0000000  0  9G19G27G13G28G31G 8G10G29G26
  22722779.273   -14128494.17443 -11001394.40642  22722780.646    22722776.349
  20850224.360   -23727954.54444 -18464132.16442  20850225.970    20850222.780
  23126471.048   -14155493.56543 -11015959.63342  23126473.237    23126470.587
  21235935.812   -20837722.88544 -16225430.24242  21235937.608    21235933.562
  22506562.461   -15918937.76743 -12347280.72542  22506564.284    22506562.861
  20278096.941   -30648522.64444 -23830591.13942  20278097.309    20278093.874
  23546917.903    -7933127.75243  -6171344.48142  23546918.877    23546918.025
  23381784.371   -12269090.66443  -9498375.13542  23381786.413    23381784.000
  23971765.621    -7626351.29243  -5637333.21242  23971768.145    23971766.062
 04  7 22  2 43  0.0000000  0  9G19G27G13G28G31G 8G10G29G26
  22730383.292   -14088536.16043 -10970258.34942  22730384.631    22730379.971
  20854075.174   -23707718.63344 -18448363.92742  20854076.789    20854073.553
  23146632.895   -14049543.30943 -10933401.08742  23146634.981    23146632.280
  21226645.764   -20886541.90244 -16263470.98842  21226647.573    21226643.587
  22486265.018   -16025601.79543 -12430395.49042  22486266.770    22486265.311
  20275077.314   -30664390.81544 -23842955.94442  20275077.681    20275074.234
  23556305.129    -7883798.14443  -6132905.87342  23556306.192    23556304.777
  23364781.548   -12358440.26943  -9567998.16442  23364783.610    23364781.302
  23952675.973    -7726667.51343  -5715501.61642  23952678.590    23952676.495
 04  7 22  2 43 30.0000000  0  9G19G27G13G28G31G 8G10G29G26
  22738088.813   -14048041.49143 -10938704.02142  22738090.360    22738086.036
  20857978.248   -23687207.85944 -18432381.52042  20857979.881    20857976.653
  23166836.462   -13943371.66243 -10850670.01142  23166838.607    23166836.081
  21217422.103   -20935012.79544 -16301240.48442  21217423.871    21217419.978
  22466013.077   -16132026.57943 -12513323.83042  22466014.746    22466013.140
  20272116.774   -30679948.38644 -23855078.71642  20272117.180    20272113.700
  23565774.367    -7834036.21543  -6094130.40542  23565775.512    23565774.337
  23347826.994   -12447537.38943  -9637424.41342  23347829.114    23347826.507
  23933628.218    -7826763.30643  -5793498.29342  23933630.912    23933628.948
 04  7 22  2 44  0.0000000  0  9G19G27G13G28G31G 8G10G29G26
  22745895.696   -14007018.92243 -10906738.44542  22745897.005    22745892.186
  20861932.289   -23666429.16044 -18416190.34042  20861933.919    20861930.724
  23187080.979   -13836987.63443 -10767773.47242  23187083.030    23187080.599
  21208263.239   -20983142.92644 -16338744.45642  21208265.012    21208260.996
  22445805.943   -16238216.58043 -12596069.20642  22445807.572    22445805.710
  20269213.924   -30695202.79644 -23866965.27642  20269214.317    20269210.865
  23575324.375    -7783852.07343  -6055025.93942  23575325.448    23575324.424
  23330919.218   -12536387.07643  -9706657.89942  23330921.607    23330918.764
  23914621.389    -7926643.47143  -5871326.95342  23914624.084    23914622.574
 04  7 22  2 44 30.0000000  0  9G19G27G13G28G31G 8G10G29G26
  22753803.562   -13965459.04143 -10874354.08942  22753805.283    22753800.819
  20865939.530   -23645370.84844 -18399781.27942  20865941.135    20865937.963
  23207367.287   -13730382.77543 -10684704.81142  23207369.311    23207366.998
  21199171.292   -21030921.13844 -16375974.19642  21199173.049    21199169.049
  22425645.754   -16344157.79043 -12678620.73542  22425647.504    22425645.731
  20266371.171   -30710141.60844 -23878605.90142  20266371.532    20266368.090
  23584955.832    -7733237.08543  -6015585.72942  23584957.025    23584956.088
  23314061.043   -12624975.94343  -9775688.17042  23314063.308    23314060.998
  23895658.611    -8026294.65543  -5948977.17842  23895660.816    23895659.714
 04  7 22  2 45  0.0000000  0  9G19G27G13G28G31G 8G10G29G26
  22761811.938   -13923378.87243 -10841564.39042  22761813.246    22761808.455
  20869997.121   -23624048.21144 -18383166.25442  20869998.674    20869995.576
  23227692.114   -13623575.43943 -10601478.42942  23227694.087    23227691.719
  21190143.342   -21078363.29944 -16412942.07242  21190145.105    21190141.158
  22405530.832   -16449862.99243 -12760988.34942  22405532.509    22405530.517
  20263585.477   -30724780.44944 -23890012.79442  20263585.832    20263582.398
  23594666.068    -7682209.80143  -5975824.25242  23594667.208    23594666.132
  23297250.651   -12713317.34043  -9844525.56642  23297252.375    23297250.227
  23876736.894    -8125729.97843  -6026459.18242  23876738.919    23876737.900
 04  7 22  2 45 30.0000000  0  9G19G27G13G28G31G 8G10G29G26
  22769920.974   -13880760.80343 -10808355.48142  22769922.853    22769918.252
  20874108.733   -23602441.49044 -18366329.86242  20874110.266    20874107.202
  23248058.418   -13516548.74443 -10518081.08442  23248060.391    23248058.567
  21181183.085   -21125450.03844 -16449633.01542  21181184.843    21181180.910
  22385464.765   -16555309.85843 -12843154.68042  22385466.543    22385464.547
  20260860.739   -30739099.31344 -23901170.35642  20260861.049    20260857.635
  23604458.263    -7630753.34843  -5935728.37742  23604459.296    23604458.081
  23280491.085   -12801389.65643  -9913153.29542  23280492.903    23280490.396
  23857859.823    -8224927.63843  -6103756.03142  23857862.134    23857861.391
 04  7 22  2 46  0.0000000  0  9G19G27G13G28G31G 8G10G29G26
  22778130.401   -13837623.81543 -10774742.29942  22778131.871    22778126.985
  20878271.190   -23580567.66544 -18349285.34242  20878272.699    20878269.684
  23268463.178   -13409322.18443 -10434528.00842  23268465.035    23268463.200
  21172287.028   -21172198.95644 -16486060.72742  21172288.763    21172284.775
  22365445.311   -16660512.97143 -12925131.05142  22365447.062    22365444.957
  20258193.659   -30753114.87744 -23912091.57342  20258193.959    20258190.559
  23614327.778    -7578888.09843  -5895313.96042  23614328.807    23614327.793
  23263779.798   -12889207.97943  -9981583.12342  23263781.639    23263779.208
  23839025.467    -8323902.55243  -6180879.29342  23839027.689    23839027.008
 04  7 22  2 46 30.0000000  0  9G19G27G13G28G31G 8G10G29G26
  22786438.924   -13793958.76543 -10740717.57042  22786440.732    22786436.096
  20882486.639   -23558415.48644 -18332023.91642  20882488.133    20882485.090
  23288907.306   -13301887.88443 -10350813.04042  23288909.254    23288907.051
  21163457.314   -21218599.48244 -16522216.96542  21163458.999    21163454.924
  22345474.642   -16765458.62643 -13006906.82842  22345476.427    22345474.496
  20255586.380   -30766816.00644 -23922767.78342  20255586.682    20255583.332
  23624276.342    -7526606.00643  -5854574.67542  23624277.654    23624276.739
  23247119.208   -12976759.26643 -10049804.86442  23247121.099    23247118.964
  23820236.049    -8422641.55943  -6257818.72442  23820238.241    23820237.563
 04  7 22  2 47  0.0000000  0 10G19G27G13G28G31G 8G10G29G 7G26
  22794847.194   -13749776.02043 -10706289.51842  22794848.711    22794843.809
  20886753.390   -23535993.54944 -18314552.29542  20886754.920    20886751.793
  23309388.723   -13194257.09043 -10266944.97942  23309390.659    23309388.225
  21154692.164   -21264660.59944 -16558108.72242  21154693.812    21154689.839
  22325552.066   -16870152.87843 -13088486.68542  22325553.727    22325551.811
  20253037.431   -30780210.82544 -23933205.30442  20253037.729    20253034.385
  23634302.899    -7473918.54443  -5813519.58342  23634303.880    23634302.992
  23230508.095   -13064050.27043 -10117823.77442  23230510.122    23230508.207
  24455983.051
  23801490.691    -8521151.23943  -6334579.44242  23801492.809    23801491.793
 04  7 22  2 47 30.0000000  0 10G19G27G13G28G31G 8G10G29G 7G26
  22803354.552   -13705068.29643 -10671452.29142  22803356.157    22803351.547
  20891073.412   -23513292.18044 -18296862.92242  20891074.924    20891071.703
  23329909.175   -13086422.68343 -10182918.25642  23329911.131    23329908.582
  21145993.284   -21310373.17244 -16593728.86942  21145994.932    21145991.002
  22305679.428   -16974583.70943 -13169861.30242  22305681.067    22305679.245
  20250548.644   -30793289.33944 -23943396.35842  20250548.913    20250545.608
  23644407.005    -7420819.67843  -5772143.88642  23644408.168    23644407.241
  23213948.905   -13151069.41443 -10185630.86042  23213950.780    23213948.753
  24435861.398
  23782790.668    -8619419.72843  -6411152.25542  23782793.306    23782791.821
 04  7 22  2 48  0.0000000  0 10G19G27G13G28G31G 8G10G29G 7G26
  22811960.448   -13659845.66143 -10636213.92442  22811961.954    22811957.054
  20895445.006   -23490319.33544 -18278962.01542  20895446.535    20895443.323
  23350466.091   -12978396.08643 -10098741.76442  23350468.088    23350465.883
  21137359.110   -21355745.96744 -16629084.26742  21137360.767    21137356.706
  22285856.093   -17078756.70243 -13251034.95942  22285857.782    22285855.611
  20248118.615   -30806059.25844 -23953346.94442  20248118.868    20248115.555
  23654587.656    -7367320.49543  -5730456.25442  23654588.799    23654587.860
  23197440.359   -13237822.79443 -10253230.85742  23197442.283    23197440.016
  24415744.796
  23764135.692    -8717453.12643  -6487541.85342  23764138.319    23764136.540
 04  7 22  2 48 30.0000000  0 10G19G27G13G28G31G 8G10G29G 7G26
  22820666.827   -13614092.09143 -10600561.76942  22820668.373    22820663.970
  20899871.706   -23467056.89644 -18260835.44942  20899873.274    20899870.097
  23371062.056   -12870161.87243 -10014403.48842  23371064.266    23371062.001
  21128793.019   -21400761.15244 -16664161.01242  21128794.662    21128790.570
  22266085.402   -17182650.92843 -13331991.44942  22266087.196    22266085.131
  20245750.707   -30818502.51744 -23963042.99242  20245750.966    20245747.705
  23664847.663    -7313405.68843  -5688444.78742  23664848.515    23664847.769
  23180986.337   -13324290.26043 -10320608.04442  23180988.227    23180985.935
  24395630.468
  23745529.186    -8815231.09843  -6563732.42542  23745531.916    23745529.675
 04  7 22  2 49  0.0000000  0 10G19G27G13G28G31G 8G10G29G 7G26
  22829472.042   -13567820.88343 -10564506.30842  22829473.507    22829469.074
  20904351.407   -23443516.02844 -18242491.92742  20904352.968    20904349.774
  23391695.623   -12761734.26643  -9929914.55442  23391697.687    23391694.902
  21120292.528   -21445430.77744 -16698968.48342  21120294.214    21120290.171
  22246366.373   -17286275.38743 -13412737.71742  22246368.065    22246365.947
  20243442.960   -30830630.13744 -23972493.09542  20243443.167    20243439.899
  23675182.865    -7259090.05243  -5646120.95042  23675184.305    23675183.660
  23164584.234   -13410481.26443 -10387769.84842  23164586.556    23164584.112
  24375516.630
  23726969.266    -8912762.88843  -6639731.16042  23726972.071    23726969.640
 04  7 22  2 49 30.0000000  0 10G19G27G13G28G31G 8G10G29G 7G26
  22838374.819   -13521035.78843 -10528050.43042  22838376.307    22838371.968
  20908883.671   -23419698.60544 -18223932.91042  20908885.244    20908882.045
  23412364.841   -12653117.59743  -9845278.27042  23412366.985    23412364.348
  21111857.558   -21489756.93044 -16733508.32642  21111859.242    21111855.183
  22226698.700   -17389629.25043 -13493273.13842  22226700.403    22226698.093
  20241195.143   -30842443.19744 -23981698.07942  20241195.348    20241191.926
  23685594.762    -7204378.22443  -5603488.40942  23685595.742    23685594.736
  23148235.481   -13496395.69143 -10454716.09942  23148237.509    23148234.935
  24355412.383
  23708456.262    -9010048.23443  -6715537.87642  23708459.118    23708456.689
 04  7 22  2 50  0.0000000  0 10G19G27G13G28G31G 8G10G29G 7G26
  22847376.545   -13473732.68943 -10491190.89242  22847377.885    22847373.562
  20913469.827   -23395598.02344 -18205153.24942  20913471.419    20913468.226
  23433070.294   -12544308.59543  -9760492.10242  23433072.515    23433069.955
  21103489.029   -21533734.02344 -16767776.18442  21103490.706    21103486.621
  22207084.185   -17492703.70943 -13573590.82842  22207085.875    22207083.537
  20239008.227   -30853935.68444 -23990653.27342  20239008.506    20239004.991
  23696081.849    -7149267.56043  -5560545.09642  23696083.028    23696082.105
  23131940.515   -13582025.26843 -10521440.41242  23131942.731    23131940.372
  24335306.901
  23689991.993    -9107078.49443  -6791145.80942  23689994.761    23689992.251
 04  7 22  2 50 30.0000000  0 10G19G27G13G28G31G 8G10G29G 7G26
  22856473.782   -13425926.10843 -10453939.06842  22856475.161    22856470.750
  20918107.587   -23371226.77444 -18186162.68042  20918109.136    20918105.913
  23453810.216   -12435322.31743  -9675567.83742  23453812.309    23453809.436
  21095184.445   -21577374.85344 -16801782.00742  21095186.128    21095182.047
  22187520.948   -17595508.59043 -13653698.46742  22187522.749    22187520.546
  20236879.942   -30865119.67844 -23999368.07842  20236880.322    20236876.771
  23706642.210    -7093773.39943  -5517302.95342  23706643.073    23706642.514
  23115698.117   -13667380.46743 -10587950.90342  23115700.214    23115697.896
  24315214.998
  23671574.099    -9203864.00643  -6866563.04242  23671576.712    23671574.366
 04  7 22  2 51  0.0000000  0 10G19G27G13G28G31G 8G10G29G 7G26
  22865669.831   -13377600.94143 -10416283.14042  22865671.105    22865666.841
  20922800.063   -23346567.56844 -18166947.72142  20922801.660    20922798.386
  23474585.838   -12326144.79143  -9590494.47242  23474588.112    23474585.405
  21086946.902   -21620662.64344 -16835512.71842  21086948.655    21086944.610
  22168012.741   -17698024.26243 -13733580.73942  22168014.557    22168012.299
  20234813.755   -30875977.26944 -24007828.54142  20234814.175    20234810.651
  23717278.047    -7037881.75843  -5473751.09142  23717279.049    23717278.239
  23099511.414   -13752441.98943 -10654232.56542  23099513.629    23099511.040
  24295126.291
  23653206.516    -9300385.56543  -6941774.58842  23653208.881    23653206.855
 04  7 22  2 51 30.0000000  0  9G19G27G13G28G31G 8G10G29G26
  22874964.858   -13328755.48543 -10378221.76342  22874966.033    22874961.719
  20927548.102   -23321616.47644 -18147505.33042  20927549.708    20927546.446
  23495398.415   -12216774.49743  -9505270.96942  23495400.656    23495397.863
  21078777.351   -21663594.26744 -16868965.90142  21078779.071    21078775.019
  22148560.934   -17800244.12943 -13813232.52042  22148562.746    22148560.456
  20232810.467   -30886504.37944 -24016031.48942  20232810.852    20232807.439
  23727989.606    -6981591.71243  -5429888.79842  23727990.568    23727989.706
  23083381.615   -13837204.00143 -10720280.85842  23083383.869    23083381.331
  23634890.396    -9396636.95043  -7016775.60742  23634892.596    23634890.658
 04  7 22  2 52  0.0000000  0  9G19G27G13G28G31G 8G10G29G26
  22884353.985   -13279416.45343 -10339775.78742  22884355.081    22884350.701
  20932347.014   -23296398.14944 -18127854.69242  20932348.630    20932345.351
  23516242.447   -12107239.16543  -9419918.83342  23516244.602    23516241.778
  21070670.716   -21706195.03144 -16902161.27142  21070672.429    21070668.379
  22129161.016   -17902190.42843 -13892671.14242  22129162.801    22129160.635
  20230865.429   -30896725.51044 -24023996.01342  20230865.743    20230862.451
  23738772.047    -6924931.55443  -5385738.08342  23738773.021    23738771.961
  23067304.419   -13921689.42443 -10786113.62342  23067306.598    23067304.072
  23616621.633    -9492640.76843  -7091583.69942  23616623.588    23616621.686
 04  7 22  2 52 30.0000000  0  9G19G27G13G28G31G 8G10G29G26
  22893839.910   -13229566.72043 -10300931.82442  22893841.143    22893836.857
  20937200.483   -23270892.84444 -18107980.44242  20937202.103    20937198.934
  23537120.743   -11997522.27343  -9334425.25342  23537123.000    23537120.360
  21062630.575   -21748445.99544 -16935084.06542  21062632.308    21062628.264
  22109817.741   -18003841.25643 -13971879.50142  22109819.399    22109817.083
  20228982.425   -30906620.99244 -24031706.79042  20228982.670    20228979.384
  23749627.420    -6867884.81343  -5341286.12742  23749628.800    23749627.927
  23051284.308   -14005876.82143 -10851714.15442  23051286.240    23051283.596
  23598403.630    -9588375.43143  -7166182.08542  23598405.736    23598404.037
 04  7 22  2 53  0.0000000  0  9G19G27G13G28G31G 8G10G29G26
  22903421.770   -13179213.81043 -10261695.83142  22903423.070    22903418.603
  20942107.536   -23245106.36444 -18087887.09742  20942109.103    20942106.009
  23558032.555   -11887631.94743  -9248796.55742  23558034.564    23558031.846
  21054655.921   -21790353.13444 -16967738.95442  21054657.606    21054653.501
  22090529.587   -18105199.49143 -14050859.89142  22090531.398    22090529.253
  20227160.408   -30916195.70544 -24039167.62342  20227160.662    20227157.380
  23760554.894    -6810460.22443  -5296539.80042  23760555.959    23760555.337
  23035319.962   -14089769.64243 -10917085.15742  23035321.898    23035319.235
  23580236.634    -9683844.22543  -7240573.30942  23580238.561    23580236.957
 04  7 22  2 53 30.0000000  0  9G19G27G13G28G31G 8G10G29G26
  22913099.869   -13128353.95243 -10222064.75942  22913101.287    22913097.120
  20947069.286   -23219032.41444 -18067569.74642  20947070.834    20947067.667
  23578977.142   -11777565.09243  -9163030.24842  23578979.386    23578977.096
  21046747.700   -21831911.04844 -17000121.72242  21046749.420    21046745.235
  22071299.051   -18206256.63243 -14129605.63242  22071300.771    22071298.646
  20225400.592   -30925443.64444 -24046373.82242  20225400.848    20225397.566
  23771555.141    -6752655.17543  -5251496.92142  23771556.289    23771555.345
  23019413.306   -14173360.07443 -10982220.52342  23019415.279    23019412.417
  23562121.922    -9779039.22343  -7314751.16142  23562123.762    23562122.033
 04  7 22  2 54  0.0000000  0  9G19G27G13G28G31G 8G10G29G26
  22922872.858   -13076997.10943 -10182046.48842  22922874.191    22922869.902
  20952084.206   -23192678.69444 -18047034.39442  20952085.784    20952082.577
  23599953.978   -11667332.37343  -9077134.74142  23599956.068    23599953.856
  21038904.396   -21873127.97744 -17032238.78542  21038906.104    21038901.912
  22052124.875   -18307017.73843 -14208120.73142  22052126.596    22052124.549
  20223701.529   -30934372.30044 -24053331.21342  20223701.787    20223698.547
  23782625.604    -6694480.66443  -5206166.18942  23782626.794    23782625.976
  23003562.932   -14256653.60643 -11047124.55442  23003565.013    23003562.176
  23544057.962    -9873965.63043  -7388719.70842  23544059.862    23544058.180
 04  7 22  2 54 30.0000000  0  9G19G27G13G28G31G 8G10G29G26
  22932741.353   -13025138.25643 -10141637.02442  22932742.585    22932738.243
  20957153.773   -23166037.95744 -18026275.39242  20957155.332    20957152.085
  23620963.015   -11556929.37143  -8991106.51042  23620965.090    23620962.667
  21031127.155   -21913997.28144 -17064084.97642  21031128.900    21031124.655
  22033008.850   -18407473.19443 -14286397.66142  22033010.589    22033008.443
  20222064.637   -30942974.09244 -24060033.90342  20222064.901    20222061.706
  23793766.824    -6635932.78743  -5160544.56342  23793767.900    23793767.416
  22987770.707   -14339640.99043 -11111790.04542  22987772.869    22987770.151
  23526046.615    -9968614.38343  -7462471.92842  23526048.726    23526047.298
 04  7 22  2 55  0.0000000  0  9G19G27G13G28G31G 8G10G29G26
  22942704.653   -12972780.99943 -10100839.20142  22942705.918    22942701.636
  20962277.768   -23139111.48044 -18005293.73842  20962279.300    20962276.038
  23642003.821   -11446359.82343  -8904948.53242  23642005.838    23642003.450
  21023415.793   -21954521.12744 -17095661.98342  21023417.516    21023413.243
  22013951.100   -18507621.87343 -14364435.55742  22013952.885    22013950.536
  20220489.815   -30951249.92944 -24066482.61242  20220490.059    20220486.841
  23804978.272    -6577015.92243  -5114635.34142  23804979.456    23804978.676
  22972037.074   -14422322.08843 -11176216.82742  22972039.039    22972036.442
  23508088.900   -10062984.45543  -7536006.98842  23508090.812    23508089.468
 04  7 22  2 55 30.0000000  0  9G19G27G13G28G31G 8G10G29G26
  22952762.802   -12919925.38343 -10059653.05042  22952764.047    22952759.595
  20967456.522   -23111896.92744 -17984087.60942  20967458.100    20967454.867
  23663075.909   -11335624.78143  -8818661.56942  23663077.903    23663075.797
  21015770.410   -21994697.71044 -17126968.39242  21015772.133    21015767.852
  21994952.680   -18607458.85043 -14442230.55242  21994954.419    21994952.162
  20218977.583   -30959196.84144 -24072675.01942  20218977.827    20218974.552
  23816259.765    -6517731.25843  -5068439.55042  23816261.057    23816260.226
  22956362.593   -14504692.27143 -11240401.36142  22956364.426    22956361.950
  23490184.533   -10157071.37343  -7609321.40742  23490186.792    23490185.203
 04  7 22  2 56  0.0000000  0  9G19G27G13G28G31G 8G10G29G26
  22962914.620   -12866577.00643 -10018082.89742  22962915.941    22962911.592
  20972689.460   -23084397.47944 -17962659.48642  20972691.028    20972687.914
  23684178.488   -11224730.63943  -8732250.63742  23684180.401    23684178.002
  21008190.244   -22034531.07544 -17158007.35842  21008192.001    21008187.774
  21976013.423   -18706985.03943 -14519783.36642  21976015.163    21976012.933
  20217527.165   -30966818.73744 -24078614.17342  20217527.422    20217524.068
  23827609.987    -6458085.24543  -5021962.21242  23827611.111    23827610.679
  22940747.110   -14586752.94443 -11304344.71442  22940749.025    22940746.408
  23472333.886   -10250876.58343  -7682416.32442  23472336.230    23472334.528
 04  7 22  2 56 30.0000000  0  9G19G27G13G28G31G 8G10G29G26
  22973160.348   -12812736.19943  -9976129.05242  22973161.516    22973157.127
  20977976.986   -23056611.39344 -17941008.01242  20977978.528    20977975.535
  23705311.428   -11113677.97843  -8645716.19742  23705313.184    23705310.540
  21000675.795   -22074019.63244 -17188777.64442  21000677.545    21000673.324
  21957134.394   -18806195.87243 -14597090.45442  21957136.057    21957133.754
  20216139.080   -30974113.26744 -24084298.23342  20216139.330    20216135.887
  23839029.198    -6398079.41543  -4975204.46242  23839030.114    23839029.314
  22925191.061   -14668500.27743 -11368043.91842  22925193.184    22925190.545
  23454537.833   -10344395.74943  -7755288.33542  23454540.077    23454538.566
 04  7 22  2 57  0.0000000  0  9G19G27G13G28G31G 8G10G29G26
  22983499.540   -12758403.55443  -9933791.96242  22983500.722    22983496.329
  20983319.509   -23028536.59344 -17919131.55942  20983321.008    20983317.942
  23726474.137   -11002467.82243  -8559059.03542  23726476.022    23726473.251
  20993227.298   -22113162.42044 -17219278.49942  20993228.997    20993224.660
  21938315.859   -18905087.11643 -14674148.52342  21938317.633    21938315.425
  20214813.764   -30981077.84344 -24089725.17942  20214814.061    20214810.578
  23850516.002    -6337715.19743  -4928167.46042  23850517.176    23850516.235
  22909695.233   -14749930.55343 -11431496.05642  22909697.432    22909694.850
  23436796.837   -10437624.88643  -7827934.36942  23436799.148    23436797.640
 04  7 22  2 57 30.0000000  0  9G19G27G13G28G31G 8G10G29G26
  22993931.522   -12703583.41243  -9891074.99342  22993932.708    22993928.279
  20988716.497   -23000175.13544 -17897031.73542  20988718.048    20988714.882
  23747665.921   -10891105.12343  -8472283.01142  23747667.755    23747665.130
  20985843.862   -22151962.16144 -17249512.04142  20985845.614    20985841.347
  21919558.555   -19003658.28643 -14750957.15242  21919560.215    21919557.884
  20213550.844   -30987714.55244 -24094896.64042  20213551.136    20213547.714
  23862070.031    -6276998.01143  -4880855.44742  23862071.035    23862070.608
  22894260.077   -14831043.72343 -11494701.08042  22894262.157    22894259.496
  23419111.304   -10530563.91243  -7900354.30642  23419113.431    23419111.715
 04  7 22  2 58  0.0000000  0  9G19G27G13G28G31G 8G10G29G26
  23004457.161   -12648271.28343  -9847974.68442  23004458.304    23004453.756
  20994169.379   -22971520.38844 -17874703.37342  20994170.931    20994167.664
  23768887.221   -10779586.16343  -8385385.20542  23768889.133    23768886.723
  20978526.845   -22190412.71744 -17279473.48542  20978528.652    20978524.341
  21900863.304   -19101900.22743 -14827509.27442  21900865.059    21900862.956
  20212351.741   -30994016.04244 -24099806.89042  20212352.041    20212348.664
  23873691.958    -6215924.45943  -4833265.72142  23873692.863    23873692.652
  22878886.489   -14911831.23043 -11557652.35942  22878888.702    22878886.346
  23401482.316   -10623203.96143  -7972541.30442  23401484.630    23401482.842
 04  7 22  2 58 30.0000000  0  9G19G27G13G28G31G 8G10G29G26
  23015074.514   -12592475.82843  -9804497.71042  23015075.800    23015071.376
  20999676.913   -22942578.43844 -17852151.22142  20999678.463    20999675.208
  23790136.565   -10667919.75343  -8298372.52942  23790138.462    23790136.323
  20971275.101   -22228520.80744 -17309168.09342  20971276.863    20971272.558
  21882230.566   -19199816.52743 -14903807.62242  21882232.272    21882229.975
  20211215.149   -30999988.85844 -24104461.02642  20211215.465    20211212.163
  23885379.822    -6154503.99843  -4785405.64742  23885381.059    23885380.464
  22863574.460   -14992297.23343 -11620353.10142  22863576.530    22863574.197
  23383909.536   -10715549.05643  -8044498.44242  23383911.978    23383910.282
 04  7 22  2 59  0.0000000  0  9G19G27G13G28G31G 8G10G29G26
  23025784.045   -12536197.86543  -9760644.80242  23025785.225    23025780.613
  21005239.262   -22913347.60644 -17829373.96042  21005240.857    21005237.717
  23811413.623   -10556107.32443  -8211246.06542  23811415.536    23811413.814
  20964088.837   -22266285.71744 -17338595.27142  20964090.547    20964086.152
  21863660.374   -19297403.09243 -14979849.05642  21863662.160    21863659.780
  20210141.456   -31005630.82144 -24108857.35842  20210141.771    20210138.601
  23897133.786    -6092738.40343  -4737276.68742  23897134.805    23897134.015
  22848324.072   -15072438.08943 -11682800.46442  22848326.222    22848323.984
  23366393.838   -10807595.26743  -8116222.69242  23366396.367    23366394.384
 04  7 22  2 59 30.0000000  0  9G19G27G13G28G31G 8G10G29G26
  23036585.277   -12479435.79943  -9716414.61242  23036586.590    23036582.248
  21010857.405   -22883824.03644 -17806368.59442  21010858.956    21010855.850
  23832719.342   -10444147.56343  -8124004.81942  23832721.126    23832719.314
  20956968.231   -22303704.15244 -17367752.48542  20956969.973    20956965.651
  21845154.225   -19394653.61743 -15055628.62042  21845155.943    21845153.623
  20209131.622   -31010937.36744 -24112992.32442  20209131.950    20209128.815
  23908952.813    -6030627.13643  -4688878.35042  23908953.947    23908953.586
  22833136.780   -15152248.23443 -11744990.13842  22833138.871    22833136.633
  23348935.943   -10899336.72143  -8187709.49642  23348938.557    23348936.308
 04  7 22  3  0  0.0000000  0  9G19G27G13G28G31G 8G10G29G26
  23047478.190   -12422193.73443  -9671810.41842  23047479.455    23047475.122
  21016530.874   -22854009.61044 -17783136.58542  21016532.434    21016529.291
  23854051.899   -10332045.45443  -8036652.63142  23854053.800    23854051.542
  20949913.246   -22340778.55044 -17396641.61442  20949914.960    20949910.578
  21826711.887   -19491567.48243 -15131145.86542  21826713.658    21826711.506
  20208185.323   -31015910.30044 -24116867.33442  20208185.660    20208182.465
  23920837.268    -5968175.45443  -4640214.76942  23920838.094    23920837.748
  22818012.498   -15231727.41543 -11806921.91342  22818014.576    22818012.005
  23331536.135   -10990773.13743  -8258958.58742  23331538.591    23331536.322
 04  7 22  3  0 30.0000000  0  9G19G27G13G28G31G 8G10G29G26
  23058462.131   -12364471.99943  -9626832.46742  23058463.489    23058459.211
  21022260.214   -22823902.00844 -17759676.13742  21022261.723    21022258.623
  23875410.878   -10219801.67643  -7949190.04442  23875413.079    23875410.884
  20942923.961   -22377507.56244 -17425261.60942  20942925.654    20942921.280
  21808334.764   -19588140.03843 -15206397.15042  21808336.467    21808334.302
  20207302.891   -31020547.64044 -24120480.84842  20207303.209    20207299.931
  23932786.051    -5905384.60743  -4591286.89842  23932786.894    23932786.478
  22802951.685   -15310871.44643 -11868592.54442  22802953.834    22802951.351
  23314195.158   -11081900.05043  -8329966.51042  23314197.580    23314195.459
 04  7 22  3  1  0.0000000  0  9G19G27G13G28G31G 8G10G29G26
  23069536.208   -12306277.58543  -9581486.19142  23069537.559    23069533.443
  21028044.575   -22793505.71544 -17735990.73242  21028046.092    21028042.894
  23896796.120   -10107423.43843  -7861622.70742  23896798.140    23896796.207
  20935999.486   -22413896.03544 -17453616.25242  20936001.183    20935996.782
  21790022.260   -19684373.08043 -15281383.91142  21790023.951    21790021.684
  20206483.676   -31024852.87344 -24123835.57242  20206483.977    20206480.591
  23944797.532    -5842262.33143  -4542100.77142  23944798.653    23944798.205
  22787954.628   -15389682.85643 -11930003.95642  22787956.512    22787953.811
  23296912.512   -11172719.65443  -8400734.97642  23296915.013    23296913.117
 04  7 22  3  1 30.0000000  0 10G19G27G13G28G31G 8G10G29G 7G26
  23080700.932   -12247606.07243  -9535768.15442  23080702.299    23080698.076
  21033885.070   -22762813.89044 -17712075.03342  21033886.710    21033883.399
  23918207.273    -9994906.77043  -7773947.46742  23918209.406    23918207.760
  20929140.811   -22449938.12044 -17481700.98242  20929142.543    20929138.138
  21771776.132   -19780257.46143 -15356098.96942  21771777.784    21771775.407
  20205728.923   -31028818.98244 -24126926.04142  20205729.237    20205725.809
  23956873.061    -5778805.17843  -4492653.69542  23956874.081    23956873.679
  22773021.901   -15468152.93043 -11991149.42642  22773024.054    22773021.292
  23875453.395
  23279690.019   -11263223.07543  -8471257.09042  23279692.496    23279690.775
 04  7 22  3  2  0.0000000  0  9G19G27G13G28G31G 8G10G29G26
  23091956.030   -12188461.98143  -9489681.88942  23091957.227    23091952.891
  21039781.274   -22731828.64244 -17687930.70842  21039782.957    21039779.731
  23939643.732    -9882256.66043  -7686168.26042  23939645.845    23939644.603
  20922347.624   -22485636.69944 -17509518.03342  20922349.315    20922344.975
  21753596.116   -19875792.95143 -15430542.13742  21753597.758    21753595.455
  20205038.270   -31032448.11244 -24129753.93042  20205038.581    20205035.200
  23969011.034    -5715019.03143  -4442950.27842  23969012.274    23969011.904
  22758154.613   -15546281.92143 -12052029.10142  22758156.632    22758153.875
  23262528.431   -11353410.44243  -8541532.90442  23262530.482    23262528.574
 04  7 22  3  2 30.0000000  0  9G19G27G13G28G31G 8G10G29G26
  23103300.299   -12128846.13443  -9443227.98642  23103301.607    23103297.465
  21045733.581   -22700548.33143 -17663556.45142  21045735.267    21045732.196
  23961105.678    -9769474.30643  -7598285.97242  23961107.740    23961106.187
  20915619.994   -22520990.63044 -17537066.53842  20915621.700    20915617.358
  21735483.498   -19970975.30943 -15504710.14242  21735485.160    21735482.958
  20204412.160   -31035738.53144 -24132317.90042  20204412.439    20204409.090
  23981211.529    -5650905.40643  -4392991.68542  23981212.725    23981212.457
  22743352.650   -15624066.07743 -12112640.07242  22743354.918    22743351.867
  23245426.977   -11443277.57543  -8611559.20342  23245429.275    23245427.336
 04  7 22  3  3  0.0000000  0  9G19G27G13G28G31G 8G10G29G26
  23114733.347   -12068765.58043  -9396412.03442  23114734.557    23114730.321
  21051741.384   -22668977.54944 -17638955.84842  21051742.958    21051739.839
  23982591.206    -9656567.38143  -7510306.62542  23982593.333    23982591.556
  20908956.908   -22556005.31144 -17564350.68742  20908958.630    20908954.274
  21717437.738   -20065806.63943 -15578604.64542  21717439.404    21717437.110
  20203849.740   -31038694.08944 -24134620.94342  20203850.016    20203846.775
  23993473.230    -5586472.16443  -4342784.04242  23993474.312    23993473.925
  22728615.749   -15701508.16343 -12172984.50942  22728618.020    22728615.264
  23228386.296   -11532827.22743  -8681338.09742  23228388.539    23228386.446
 04  7 22  3  3 30.0000000  0  9G19G27G13G28G31G 8G10G29G26
  23126255.791   -12008214.96143  -9349229.74242  23126256.969    23126252.998
  21057805.973   -22637108.36144 -17614122.72942  21057807.521    21057804.235
  24004101.422    -9543530.70643  -7422226.18842  24004103.643    24004101.384
  20902359.741   -22590673.46944 -17591364.82242  20902361.432    20902357.109
  21699460.763   -20160276.64343 -15652217.59342  21699462.415    21699459.928
  20203352.555   -31041306.81944 -24136656.84642  20203352.839    20203349.676
  24005795.857    -5521714.76443  -4292323.78742  24005797.209    24005796.876
  22713945.906   -15778598.25243 -12233054.66642  22713948.272    22713945.538
  23211407.899   -11622049.00143  -8750861.51342  23211410.194    23211407.990
 04  7 22  3  4  0.0000000  0  9G19G27G13G28G31G 8G10G29G26
  23137866.965   -11947197.78243  -9301683.94642  23137868.215    23137864.055
  21063927.018   -22604941.84244 -17589057.91842  21063928.640    21063925.273
  24025635.747    -9430367.87643  -7334047.44142  24025637.976    24025635.499
  20895828.284   -22624996.84444 -17618110.29442  20895829.967    20895825.577
  21681552.538   -20254383.88843 -15725547.85842  21681554.303    21681551.871
  20202920.579   -31043577.19944 -24138425.96642  20202920.883    20202917.676
  24018179.670    -5456637.78043  -4241614.50242  24018180.722    24018180.420
  22699343.186   -15855335.51643 -12292849.89942  22699345.376    22699342.875
  23194491.816   -11710941.84443  -8820128.61942  23194494.175    23194492.048
 04  7 22  3  4 30.0000000  0  9G19G27G13G28G31G 8G10G29G26
  23149565.156   -11885723.98043  -9253782.34842  23149566.369    23149562.265
  21070103.355   -22572485.37444 -17563767.18242  21070104.946    21070101.568
  24047191.999    -9317089.69143  -7245778.82442  24047194.259    24047191.808
  20889360.726   -22658983.98244 -17644593.76942  20889362.446    20889358.036
  21663712.657   -20348133.43343 -15798599.39742  21663714.265    21663711.922
  20202552.354   -31045512.53444 -24139934.01542  20202552.692    20202549.356
  24030622.245    -5391252.33243  -4190664.85442  24030623.212    24030623.098
  22684806.796   -15931725.34543 -12352374.40342  22684808.825    22684806.366
  23177637.608   -11799511.09843  -8889143.59242  23177639.797    23177637.937
 04  7 22  3  5  0.0000000  0  9G19G27G13G28G31G 8G10G29G26
  23161350.626   -11823790.16043  -9205522.26942  23161351.953    23161347.916
  21076335.937   -22539732.89243 -17538245.78742  21076337.563    21076334.238
  24068771.219    -9203692.59043  -7157417.57142  24068773.323    24068770.783
  20882958.120   -22692629.18344 -17670810.79842  20882959.859    20882955.495
  21645942.439   -20441516.64943 -15871365.51242  21645944.059    21645941.591
  20202248.972   -31047106.62644 -24141176.17142  20202249.325    20202245.930
  24043124.029    -5325555.53343  -4139472.61142  24043125.080    24043125.137
  22670337.955   -16007759.85743 -12411622.04942  22670340.040    22670337.267
  23160846.766   -11887748.37443  -8957899.85142  23160848.730    23160846.886
 04  7 22  3  5 30.0000000  0  9G19G27G13G28G31G 8G10G29G26
  23173224.884   -11761391.30643  -9156899.84842  23173226.158    23173221.913
  21082626.160   -22506677.00043 -17512487.96742  21082627.826    21082624.614
  24090373.233    -9090171.97143  -7068960.05442  24090375.352    24090373.539
  20876622.052   -22725925.77444 -17696756.19242  20876623.724    20876619.432
  21628243.894   -20534523.81643 -15943838.59642  21628245.509    21628242.908
  20202012.033   -31048351.58844 -24142146.27742  20202012.378    20202008.923
  24055685.816    -5259543.43643  -4088034.66742  24055686.939    24055686.786
  22655938.417   -16083429.77943 -12470585.59542  22655940.509    22655937.646
  23144120.287   -11975644.13043  -9026390.02242  23144122.425    23144120.674
 04  7 22  3  6  0.0000000  0  9G19G27G13G28G31G 8G10G29G26
  23185184.960   -11698539.90043  -9107924.73142  23185186.283    23185182.247
  21088972.389   -22473327.79244 -17486501.59042  21088973.977    21088970.840
  24111996.320    -8976541.03543  -6980416.56242  24111998.410    24111996.972
  20870350.212   -22758884.57444 -17722438.36042  20870351.868    20870347.625
  21610615.222   -20627162.38943 -16016024.45242  21610616.937    21610614.356
  20201839.611   -31049257.32644 -24142852.04242  20201839.935    20201836.467
  24068304.876    -5193229.49343  -4036361.51342  24068305.945    24068305.634
  22641606.551   -16158743.08443 -12529271.27242  22641608.649    22641605.971
  23127458.040   -12063206.38843  -9094620.31242  23127459.911    23127458.124
 04  7 22  3  6 30.0000000  0  9G19G27G13G28G31G 8G10G29G26
  23197231.693   -11635235.77143  -9058596.88942  23197232.873    23197228.653
  21095374.903   -22439682.57844 -17460284.55842  21095376.472    21095373.396
  24133641.204    -8862799.84143  -6891787.18042  24133643.202    24133641.278
  20864142.916   -22791503.78943 -17747855.91942  20864144.596    20864140.384
  21593057.519   -20719427.40243 -16087919.20242  21593059.276    21593056.727
  20201732.421   -31049820.69444 -24143291.02842  20201732.712    20201729.261
  24080981.348    -5126614.46943  -3984453.74442  24080982.406    24080981.937
  22627343.841   -16233695.06643 -12587675.38442  22627345.658    22627342.983
  23110860.344   -12150430.15943  -9162586.82542  23110862.037    23110859.880
 04  7 22  3  7  0.0000000  0  9G19G27G13G28G31G 8G10G29G26
  23209365.479   -11571471.57543  -9008910.51742  23209366.716    23209362.675
  21101835.543   -22405731.22443 -17433828.97342  21101837.101    21101834.141
  24155307.892    -8748941.01043  -6803066.15442  24155310.190    24155307.802
  20858002.124   -22823774.01544 -17773001.54842  20858003.792    20857999.488
  21575573.712   -20811306.19943 -16159513.04142  21575575.345    21575572.692
  20201692.536   -31050031.07844 -24143454.97342  20201692.796    20201689.318
  24093716.573    -5059691.72343  -3932306.21742  24093717.580    24093717.157
  22613151.667   -16308273.91543 -12645788.77742  22613153.628    22613151.213
  23094328.681   -12237303.04843  -9230279.94642  23094330.744    23094328.234
 04  7 22  3  7 30.0000000  0  9G19G27G13G28G31G 8G10G29G26
  23221584.078   -11507263.48543  -8958878.28742  23221585.231    23221581.140
  21108351.873   -22371487.37543 -17407145.47342  21108353.415    21108350.517
  24176993.504    -8634981.00143  -6714266.24642  24176995.865    24176993.543
  20851925.062   -22855709.52744 -17797886.35942  20851926.713    20851922.433
  21558161.066   -20902810.10343 -16230814.75242  21558162.783    21558160.050
  20201717.057   -31049902.46644 -24143354.76942  20201717.380    20201713.930
  24106507.169    -4992478.33043  -3879932.24542  24106507.845    24106507.907
  22599028.865   -16382491.22243 -12703620.40142  22599030.750    22599028.035
  23077861.874   -12323836.74643  -9297708.74342  23077864.080    23077861.429
 04  7 22  3  8  0.0000000  0  9G19G27G13G28G31G 8G10G29G26
  23233887.879   -11442606.27143  -8908496.08342  23233888.991    23233885.054
  21114925.520   -22336943.22844 -17380227.97042  21114927.006    21114923.967
  24198699.675    -8520914.93343  -6625383.71642  24198702.007    24198699.694
  20845912.968   -22887303.34544 -17822504.90242  20845914.620    20845910.288
  21540821.667   -20993928.83143 -16301816.30042  21540823.405    21540820.598
  20201807.545   -31049426.40544 -24142983.81942  20201807.892    20201804.554
  24119353.246    -4924969.94543  -3827328.32342  24119354.391    24119354.150
  22584976.328   -16456337.17443 -12761162.69642  22584978.502    22584975.451
  23061461.652   -12410020.96343  -9364865.22142  23061463.953    23061461.351
 04  7 22  3  8 30.0000000  0  9G19G27G13G28G31G 8G10G29G26
  23246276.757   -11377502.15343  -8857765.61842  23246277.912    23246274.099
  21121556.144   -22302098.67143 -17353076.38542  21121557.696    21121554.677
  24220425.397    -8406745.54643  -6536420.67042  24220427.819    24220425.764
  20839965.669   -22918556.18044 -17846857.76042  20839967.342    20839963.045
  21523555.987   -21084659.85943 -16372515.76042  21523557.711    21523555.091
  20201964.259   -31048602.23544 -24142341.60942  20201964.582    20201961.333
  24132255.458    -4857169.74843  -3774497.05842  24132256.605    24132255.658
  22570995.053   -16529809.81543 -12818414.09042  22570997.319    22570994.035
  23045127.927   -12495853.58843  -9431747.74942  23045130.395    23045127.874
 04  7 22  3  9  0.0000000  0  9G19G27G13G28G31G 8G10G29G26
  23258750.397   -11311952.75743  -8806688.20342  23258751.618    23258747.645
  21128244.280   -22266952.57143 -17325689.82242  21128245.778    21128242.842
  24242170.639    -8292474.50243  -6447378.37342  24242173.058    24242171.054
  20834083.514   -22949467.49144 -17870944.49542  20834085.143    20834080.774
  21506365.024   -21174999.61543 -16442910.32842  21506366.689    21506364.030
  20202187.568   -31047428.87944 -24141427.31042  20202187.835    20202184.552
  24145212.263    -4789080.24943  -3721440.37642  24145213.523    24145212.908
  22557085.283   -16602905.99743 -12875372.14042  22557087.547    22557084.053
  23028862.044   -12581331.12043  -9498353.57142  23028864.492    23028862.048
 04  7 22  3  9 30.0000000  0  9G19G27G13G28G31G 8G10G29G26
  23271307.953   -11245962.78943  -8755267.46742  23271309.174    23271305.068
  21134989.325   -22231506.81743 -17298069.78242  21134990.845    21134988.106
  24263933.998    -8178106.39743  -6358260.48142  24263936.490    24263934.489
  20828265.677   -22980040.20044 -17894767.38742  20828267.316    20828262.961
  21489248.491   -21264947.60443 -16512999.62742  21489250.154    21489247.437
  20202477.053   -31045908.14544 -24140242.32142  20202477.287    20202473.900
  24158223.736    -4720706.64243  -3668162.36242  24158224.627    24158224.452
  22543247.222   -16675625.77643 -12932036.90442  22543249.537    22543246.086
  23012663.870   -12666453.51643  -9564682.64642  23012666.242    23012663.936
 04  7 22  3 10  0.0000000  0  9G19G27G13G28G31G 8G10G29G26
  23283949.202   -11179531.87943  -8703503.11042  23283950.563    23283946.474
  21141791.921   -22195758.96743 -17270214.32242  21141793.467    21141790.780
  24285715.851    -8063641.63843  -6269067.24242  24285718.288    24285716.173
  20822512.748   -23010272.18644 -17918324.76942  20822514.337    20822510.066
  21472207.470   -21354498.70643 -16582779.67342  21472209.133    21472206.394
  20202833.232   -31044036.70644 -24138784.05942  20202833.518    20202830.030
  24171288.408    -4652049.90343  -3614663.64642  24171289.416    24171289.565
  22529481.553   -16747964.40543 -12988404.65142  22529483.794    22529480.357
  22996534.221   -12751215.81743  -9630731.12442  22996536.594    22996533.977
 04  7 22  3 10 30.0000000  0  9G19G27G13G28G31G 8G10G29G26
  23296673.252   -11112667.44643  -8651401.00142  23296674.463    23296670.117
  21148651.181   -22159713.35543 -17242126.85242  21148652.708    21148650.017
  24307515.338    -7949087.41543  -6179804.30442  24307517.536    24307515.383
  20816823.566   -23040168.90844 -17941620.91542  20816825.199    20816820.857
  21455241.406   -21443655.34143 -16652252.32242  21455243.004    21455240.418
  20203255.247   -31041818.74644 -24137055.78842  20203255.563    20203252.140
  24184406.077    -4583118.06843  -3560950.60342  24184406.837    24184406.794
  22515787.778   -16819924.89243 -13044477.74942  22515790.063    22515786.758
  22980472.581   -12835620.40043  -9696500.86442  22980475.123    22980472.246
 04  7 22  3 11  0.0000000  0  9G19G27G13G28G31G 8G10G29G26
  23309480.905   -11045363.03943  -8598956.05242  23309482.138    23309477.884
  21155568.848   -22123361.28943 -17213800.59642  21155570.321    21155567.524
  24329332.572    -7834437.58943  -6090466.91942  24329334.711    24329332.796
  20811199.735   -23069722.30344 -17964649.54142  20811201.373    20811196.970
  21438352.481   -21532406.04743 -16721408.66642  21438354.275    21438351.633
  20203744.865   -31039245.40444 -24135050.60042  20203745.177    20203741.887
  24197576.859    -4513905.52543  -3507018.82442  24197577.760    24197577.613
  22502168.213   -16891496.00143 -13100247.42842  22502170.278    22502167.348
  22964480.791   -12919656.14543  -9761983.21942  22964483.450    22964481.016
 04  7 22  3 11 30.0000000  0  9G19G27G13G28G31G 8G10G29G26
  23322371.273   -10977623.76143  -8546172.23742  23322372.486    23322368.257
  21162544.292   -22086705.06443 -17185237.32042  21162545.823    21162542.891
  24351166.602    -7719697.56543  -6001059.17942  24351168.927    24351167.241
  20805640.688   -23098935.35844 -17987412.95742  20805642.301    20805637.910
  21421541.155   -21620750.86443 -16790248.75642  21421542.834    21421540.143
  20204301.848   -31036318.55044 -24132769.94442  20204302.137    20204298.891
  24210799.643    -4444417.90743  -3452872.73942  24210800.513    24210800.823
  22488622.640   -16962678.47343 -13155714.28442  22488624.590    22488621.794
  22948559.398   -13003323.35443  -9827178.38642  22948562.016    22948559.605
 04  7 22  3 12  0.0000000  0  9G19G27G13G28G31G 8G10G29G26
  23335342.717   -10909457.31643  -8493055.56842  23335344.087    23335339.797
  21169576.611   -22049749.94243 -17156441.13542  21169578.173    21169575.146
  24373016.501    -7604875.07043  -5911587.22142  24373018.745    24373017.273
  20800145.295   -23127813.97044 -18009915.77542  20800146.963    20800142.515
  21404806.382   -21708692.38443 -16858774.57842  21404808.053    21404805.469
  20204925.234   -31033042.97544 -24130217.56042  20204925.494    20204922.216
  24224073.400    -4374664.00043  -3398519.13242  24224074.217    24224074.530
  22475150.455   -17033475.38243 -13210880.69642  22475152.298    22475149.806
  22932707.452   -13086624.77843  -9892088.55442  22932709.992    22932707.616
 04  7 22  3 12 30.0000000  0  9G19G27G13G28G31G 8G10G29G26
  23348396.186   -10840861.31443  -8439604.17942  23348397.392    23348393.398
  21176666.859   -22012490.73143 -17127408.01242  21176668.389    21176665.315
  24394882.677    -7489968.29443  -5822049.62342  24394884.709    24394882.899
  20794714.169   -23156354.03044 -18032154.78142  20794715.828    20794711.498
  21388149.678   -21796223.41343 -16926980.53242  21388151.372    21388148.858
  20205615.899   -31029413.46444 -24127389.37442  20205616.175    20205612.859
  24237397.883    -4304642.52543  -3343957.00142  24237399.116    24237399.205
  22461753.003   -17103879.95143 -13265741.37042  22461754.857    22461752.293
  22916926.881   -13169553.18243  -9956708.04342  22916928.871    22916927.001
 04  7 22  3 13  0.0000000  0  9G19G27G13G28G31G 8G10G29G26
  23361530.145   -10771840.76143  -8385821.92342  23361531.496    23361527.660
  21183814.498   -21974929.88643 -17098139.84242  21183816.021    21183812.834
  24416764.143    -7374981.95443  -5732449.99942  24416766.177    24416764.036
  20789347.125   -23184558.75144 -18054132.48042  20789348.761    20789344.330
  21371571.400   -21883343.69543 -16994866.42142  21371573.036    21371570.313
  20206373.447   -31025432.42744 -24124287.26842  20206373.747    20206370.393
  24250773.010    -4234358.93143  -3289190.65242  24250774.058    24250773.812
  22448429.992   -17173892.25243 -13320296.39842  22448431.896    22448429.456
  22901217.284   -13252108.81443 -10021037.04242  22901219.171    22901217.147
 04  7 22  3 13 30.0000000  0  9G19G27G13G28G31G 8G10G29G26
  23374746.223   -10702391.20343  -8331705.41642  23374747.350    23374743.431
  21191020.963   -21937060.01243 -17068630.86042  21191022.515    21191019.161
  24438661.350    -7259911.49643  -5642784.80942  24438663.558    24438661.529
  20784044.949   -23212421.51444 -18075843.72842  20784046.580    20784042.307
  21355072.850   -21970043.69543 -17062424.83242  21355074.558    21355071.955
  20207199.507   -31021091.75944 -24120904.92242  20207199.779    20207196.396
  24264197.700    -4163809.46043  -3234217.11742  24264198.984    24264198.868
  22435183.465   -17243503.23143 -13374538.69842  22435185.337    22435182.817
  22885580.133   -13334282.24843 -10085068.24042  22885582.162    22885579.959
 04  7 22  3 14  0.0000000  0  9G19G27G13G28G31G 8G10G29G26
  23388041.554   -10632523.74443  -8277263.24242  23388042.677    23388038.892
  21198284.383   -21898889.91143 -17038887.94842  21198285.990    21198282.697
  24460572.460    -7144768.36943  -5553062.99242  24460574.759    24460573.153
  20778806.134   -23239951.70444 -18097295.81442  20778807.789    20778803.369
  21338653.101   -22056329.67043 -17129660.59042  21338654.842    21338652.212
  20208092.407   -31016399.42844 -24117248.55342  20208092.698    20208089.345
  24277671.424    -4093006.46543  -3179046.07142  24277672.224    24277672.450
  22422011.695   -17312719.76343 -13428473.64442  22422013.726    22422011.399
  22870014.347   -13416079.74943 -10148806.51842  22870016.525    22870014.642
 04  7 22  3 14 30.0000000  0 10G19G27G13G28G31G 8G10G29G26G11
  23401416.932   -10562236.44943  -8222493.97842  23401418.059    23401414.080
  21205605.917   -21860415.31443 -17008907.76342  21205607.473    21205604.286
  24482497.512    -7029551.31543  -5463283.54142  24482499.647    24482498.535
  20773631.215   -23267145.77644 -18118486.00842  20773632.867    20773628.545
  21322313.394   -22142195.15343 -17196568.71642  21322315.058    21322312.486
  20209052.959   -31011351.66044 -24113315.23042  20209053.247    20209049.938
  24291192.790    -4021948.92543  -3123676.62542  24291194.134    24291194.258
  22408916.545   -17381535.69343 -13482096.41242  22408918.352    22408915.989
  22854521.483   -13497495.16943 -10212247.04642  22854523.656    22854522.007
  24580050.719    -1863916.04853  -1419732.17152  24580052.405    24580049.586
 04  7 22  3 15  0.0000000  0 10G19G27G13G28G31G 8G10G29G26G11
  23414871.316   -10491532.65843  -8167400.15842  23414872.505    23414868.666
  21212985.343   -21821636.58243 -16978690.59742  21212986.880    21212983.866
  24504436.302    -6914263.45443  -5373448.89642  24504438.195    24504437.105
  20768520.178   -23294004.89944 -18139415.18942  20768521.786    20768517.457
  21306054.277   -22227637.86243 -17263147.41942  21306055.981    21306053.271
  20210081.280   -31005947.86744 -24109104.48742  20210081.583    20210078.222
  24304762.644    -3950640.40743  -3068111.64442  24304763.545    24304763.476
  22395898.006   -17449949.13743 -13535405.56742  22395899.829    22395897.379
  22839101.559   -13578526.30543 -10275388.16242  22839103.715    22839102.050
  24568711.445    -1923503.56843  -1466163.98242  24568713.447    24568710.668
 04  7 22  3 15 30.0000000  0 10G19G27G13G28G31G 8G10G29G26G11
  23428405.391   -10420411.65443  -8111981.21642  23428406.569    23428402.669
  21220423.241   -21782550.29143 -16948233.77342  21220424.800    21220421.942
  24526388.546    -6798904.16043  -5283558.62342  24526390.471    24526388.763
  20763473.209   -23320526.54844 -18160081.40442  20763474.862    20763470.541
  21289876.499   -22312652.33943 -17329392.43742  21289878.177    21289875.523
  20211177.989   -31000184.56544 -24104613.60642  20211178.289    20211174.927
  24318380.096    -3879081.39043  -3012351.43542  24318381.007    24318380.847
  22382957.048   -17517955.21143 -13588397.29442  22382958.836    22382956.278
  22823756.099   -13659167.82943 -10338225.67642  22823758.193    22823756.244
  24557416.817    -1982859.02243  -1512414.94242  24557418.890    24557415.783
 04  7 22  3 16  0.0000000  0 11G19G27G13G28G31G 8G10G29G 7G26G11
  23442018.090   -10348876.32143  -8056239.43842  23442019.292    23442015.206
  21227919.615   -21743156.91744 -16917537.66442  21227921.127    21227918.251
  24548353.910    -6683476.31343  -5193614.98042  24548355.910    24548353.714
  20758490.416   -23346711.61444 -18180485.35042  20758492.009    20758487.653
  21273780.628   -22397236.33443 -17395301.98442  21273782.325    21273779.668
  20212343.075   -30994061.70644 -24099842.55042  20212343.367    20212340.073
  24332044.701    -3807275.26843  -2956398.67142  24332045.651    24332045.583
  22370093.741   -17585551.97643 -13641070.06142  22370095.749    22370092.793
  23308442.181
  22808485.193   -13739417.64843 -10400757.95342  22808487.352    22808485.301
  24546165.981    -2041980.32843  -1558483.43542  24546168.179    24546164.998
 04  7 22  3 16 30.0000000  0 10G19G27G13G28G31G 8G10G29G26G11
  23455709.290   -10276928.46343  -8000176.21042  23455710.580    23455706.606
  21235474.609   -21703455.71243 -16886601.67742  21235476.163    21235473.076
  24570331.662    -6567982.01043  -5103619.48542  24570333.629    24570331.563
  20753571.590   -23372560.12844 -18200627.04242  20753573.235    20753568.806
  21257767.089   -22481387.03643 -17460873.92842  21257768.735    21257766.216
  20213576.779   -30987578.54644 -24094790.74242  20213577.039    20213573.795
  24345755.315    -3735225.08043  -2900255.75342  24345756.459    24345756.318
  22357308.797   -17652737.11243 -13693422.10042  22357310.818    22357307.785
  22793288.958   -13819272.92843 -10462982.80642  22793291.408    22793289.141
  24534960.165    -2100863.90043  -1604366.71042  24534962.216    24534960.069
 04  7 22  3 17  0.0000000  0 10G19G27G13G28G31G 8G10G29G26G11
  23469478.617   -10204570.75043  -7943793.59842  23469479.794    23469475.890
  21243088.129   -21663446.28843 -16855425.51342  21243089.755    21243086.509
  24592321.342    -6452423.84743  -5013574.23542  24592323.343    24592321.836
  20748716.600   -23398073.03644 -18220507.22742  20748718.222    20748713.946
  21241836.841   -22565101.71343 -17526106.10542  21241838.457    21241835.732
  20214879.223   -30980734.47344 -24089457.70642  20214879.466    20214876.228
  24359512.061    -3662933.83143  -2843924.98142  24359513.064    24359513.147
  22344602.559   -17719508.23643 -13745451.52242  22344604.722    22344601.605
  22778168.606   -13898731.24043 -10524898.33542  22778171.076    22778168.524
  24523801.138    -2159507.38543  -1650062.84642  24523803.221    24523801.450
 04  7 22  3 17 30.0000000  0 10G19G27G13G28G31G 8G10G29G26G11
  23483325.121   -10131806.58643  -7887094.29742  23483326.384    23483322.188
  21250760.027   -21623129.37243 -16824009.75342  21250761.684    21250758.536
  24614322.906    -6336804.92943  -4923481.62942  24614325.009    24614323.642
  20743925.374   -23423251.32844 -18240126.67342  20743927.012    20743922.574
  21225989.817   -22648378.51043 -17590997.08742  21225991.422    21225988.664
  20216250.275   -30973529.67844 -24083843.59042  20216250.575    20216247.285
  24373313.609    -3590405.64443  -2787409.61242  24373314.602    24373315.013
  22331975.505   -17785864.09343 -13797157.35842  22331977.553    22331974.330
  22763123.855   -13977790.91243 -10586503.25642  22763126.316    22763124.050
  24512687.501    -2217908.93243  -1695570.48142  24512689.455    24512687.722
 04  7 22  3 18  0.0000000  0 10G19G27G13G28G31G 8G10G29G26G11
  23497248.160   -10058640.67643  -7830081.93842  23497249.370    23497245.379
  21258490.243   -21582507.26643 -16792356.18742  21258491.827    21258488.808
  24636335.436    -6221130.23643  -4833345.60442  24636337.403    24636335.848
  20739197.139   -23448098.32844 -18259487.96542  20739198.791    20739194.355
  21210226.016   -22731217.49043 -17655546.90042  21210227.617    21210224.894
  20217689.512   -30965966.11144 -24077949.91042  20217689.849    20217686.568
  24387159.042    -3517646.07243  -2730713.92342  24387160.108    24387160.316
  22319427.380   -17851804.98243 -13848539.84542  22319429.382    22319426.171
  22748155.107   -14056452.12143 -10647797.64542  22748157.425    22748155.261
  24501619.974    -2276068.74543  -1740889.73742  24501621.855    24501619.504
 04  7 22  3 18 30.0000000  0 10G19G27G13G28G31G 8G10G29G26G11
  23511247.328    -9985073.71343  -7772757.07742  23511248.684    23511244.715
  21266278.852   -21541577.81943 -16760463.15742  21266280.428    21266277.582
  24658358.299    -6105400.66743  -4743166.80542  24658360.034    24658358.454
  20734532.157   -23472612.71844 -18278590.08242  20734533.828    20734529.441
  21194546.397   -22813614.20043 -17719752.07542  21194548.011    21194545.295
  20219197.520   -30958041.22744 -24071774.68442  20219197.822    20219194.568
  24401049.162    -3444656.32543  -2673838.90242  24401049.786    24401049.282
  22306958.856   -17917327.03843 -13899595.96342  22306960.872    22306957.706
  22733262.876   -14134710.36643 -10708778.05242  22733265.154    22733263.255
  24490599.388    -2333982.31653  -1786017.05952  24490601.588    24490598.595
 04  7 22  3 19  0.0000000  0 10G19G27G13G28G31G 8G10G29G26G11
  23525323.550    -9911103.21043  -7715117.77842  23525324.737    23525320.680
  21274127.000   -21500335.97343 -16728326.67742  21274128.542    21274125.739
  24680391.520    -5989613.61943  -4652943.18542  24680393.317    24680392.072
  20729931.414   -23496789.97644 -18297429.49142  20729933.044    20729928.646
  21178952.400   -22895561.11443 -17783606.77442  21178954.060    21178951.294
  20220775.438   -30949749.29844 -24065313.44642  20220775.713    20220772.400
  24414982.454    -3371434.82843  -2616783.25442  24414983.546    24414983.031
  22294571.489   -17982423.18343 -13950320.21142  22294573.397    22294570.414
  22718449.042   -14212558.43743 -10769438.85542  22718451.115    22718449.288
  24479627.404    -2391641.81953  -1830946.51052  24479629.306    24479626.612
 04  7 22  3 19 30.0000000  0  9G19G27G13G28G31G 8G10G29G26
  23539475.838    -9836732.82943  -7657166.83842  23539476.965    23539473.031
  21282034.461   -21458782.15343 -16695947.08742  21282036.022    21282033.151
  24702435.190    -5873772.59643  -4562677.49342  24702437.078    24702436.029
  20725394.557   -23520631.86744 -18316007.59142  20725396.153    20725391.666
  21163444.248   -22977056.58243 -17847109.69442  21163445.926    21163443.094
  20222423.139   -30941090.88944 -24058566.63542  20222423.426    20222420.014
  24428959.939    -3297985.70643  -2559550.29642  24428960.809    24428960.271
  22282265.445   -18047092.07943 -14000711.53542  22282267.314    22282264.360
  22703713.705   -14289994.78043 -10829778.81342  22703715.691    22703713.554
 04  7 22  3 20  0.0000000  0  9G19G27G13G28G31G 8G10G29G26
  23553701.455    -9761976.62343  -7598915.27242  23553702.679    23553698.781
  21289998.771   -21416928.73343 -16663334.05642  21290000.363    21289997.513
  24724486.932    -5757892.46243  -4472381.36242  24724488.841    24724487.323
  20720918.911   -23544150.86443 -18334334.06742  20720920.564    20720916.114
  21148020.084   -23058110.49043 -17910268.55142  21148021.784    21148019.072
  20224138.159   -30932077.77444 -24051543.43242  20224138.587    20224135.219
  24442976.966    -3224324.44043  -2502152.01242  24442977.831    24442977.686
  22270038.732   -18111343.76743 -14050777.77042  22270040.636    22270037.734
  22689054.443   -14367028.98943 -10889805.45142  22689056.602    22689054.493
 04  7 22  3 20 30.0000000  0  9G19G27G13G28G31G 8G10G29G26
  23568003.150    -9686821.83543  -7540353.12142  23568004.238    23568000.363
  21298023.206   -21374760.01243 -16630475.34142  21298024.713    21298021.909
  24746548.109    -5641959.93343  -4382044.38942  24746550.326    24746548.645
  20716507.772   -23567331.87744 -18352397.18942  20716509.389    20716504.903
  21132683.583   -23138704.68843 -17973069.18642  21132685.227    21132682.413
  20225923.810   -30922693.98644 -24044231.39042  20225924.255    20225920.955
  24457036.749    -3150438.75543  -2444578.85542  24457037.529    24457038.024
  22257894.717   -18175160.77043 -14100505.29342  22257896.649    22257893.906
  22674475.294   -14443643.52543 -10949505.06542  22674477.441    22674475.270
